GFSNW_250_spd_000.txt.gz
Wind_Speed
39 34 28 9 27 28 19 21 20 26 37 38 35 34 36 36 48 48 42 38 36 36 36 31 47 53 51 52 47 42 42 49 52 51 51 50 49 48 44 42 43 44 45 49
33 39 29 15 22 33 30 25 16 27 28 41 39 38 38 38 39 41 42 38 41 37 35 44 46 45 52 52 48 49 45 43 49 50 49 51 51 49 47 46 46 49 48 52
26 35 29 22 7 32 32 31 20 27 30 33 41 37 37 36 38 42 40 42 41 43 39 47 47 50 49 53 52 51 50 49 47 43 43 44 48 50 51 49 50 48 53 52
21 30 34 26 7 23 35 31 28 29 27 23 41 37 32 30 36 38 37 41 42 47 44 46 41 49 51 51 49 48 48 48 48 48 49 50 50 51 51 50 54 51 59 57
14 23 31 31 17 11 26 30 30 29 30 26 34 36 32 24 31 35 39 42 41 42 47 40 41 40 47 54 52 53 50 50 49 50 51 53 56 57 55 54 56 57 59 64
9 15 23 32 30 16 14 21 29 31 30 32 30 33 34 30 29 32 41 47 45 45 47 47 46 44 44 49 51 52 51 51 50 52 53 52 56 57 59 60 61 61 65 69
9 10 15 22 29 29 21 4 14 26 25 26 31 31 31 31 31 32 37 50 47 48 50 49 48 46 45 43 46 50 54 54 56 58 55 54 58 63 63 64 66 69 69 71
5 7 8 11 17 23 28 23 15 7 14 18 22 22 23 32 34 33 38 52 52 51 48 46 45 47 46 45 44 44 44 46 49 50 48 49 58 62 62 65 67 71 72 76
3 3 6 6 8 12 17 22 24 20 14 13 14 19 21 25 27 30 31 43 47 50 46 45 46 45 44 44 44 45 46 46 46 47 48 53 63 62 65 66 69 73 77 80
9 7 2 3 6 7 10 12 16 18 19 20 15 12 13 16 20 16 16 21 21 26 31 33 40 46 47 51 49 49 50 50 55 55 58 62 66 67 69 72 75 78 82 87
16 12 10 8 4 4 6 9 11 13 14 14 14 15 14 11 13 15 15 15 17 21 25 26 27 30 32 35 41 47 50 53 56 57 60 63 69 71 72 73 76 79 83 87
22 18 16 14 12 10 7 5 7 8 10 11 9 9 10 10 10 11 14 13 12 11 11 13 18 22 26 30 33 37 46 48 52 52 50 54 60 62 63 65 68 70 76 82
30 25 21 18 18 17 14 11 10 9 7 6 6 6 6 8 9 9 6 8 9 8 9 12 16 17 20 24 28 37 39 40 44 45 56 60 62 65 64 68 74 78 82 88
40 34 30 26 23 22 20 19 19 17 16 13 12 12 10 12 12 12 13 13 12 13 16 21 24 26 27 30 34 45 43 46 50 55 63 63 68 73 74 77 83 83 86 91
48 44 39 36 32 28 27 27 26 25 23 22 21 18 19 18 18 19 20 19 19 21 24 27 30 33 32 34 42 54 51 54 55 58 64 65 71 76 77 82 85 87 90 95
57 54 48 45 42 38 33 34 34 32 30 30 30 27 29 28 27 27 23 25 26 29 30 33 36 37 38 41 51 57 54 59 63 66 71 74 77 83 86 89 93 96 99 100
65 63 59 54 50 47 42 38 40 41 41 41 39 39 38 38 37 36 35 32 33 36 38 43 46 48 47 51 62 62 64 66 70 73 75 78 83 88 92 96 99 101 107 112
72 71 67 63 58 54 53 50 49 47 47 47 47 48 48 44 42 43 43 43 45 45 45 51 52 50 55 66 69 71 72 73 76 80 85 89 92 96 100 103 107 109 113 116
77 76 74 71 69 65 61 56 54 54 55 55 56 58 58 54 52 52 52 52 53 51 55 58 57 60 64 78 79 81 81 80 84 89 94 99 100 102 107 110 114 118 122 125
78 79 78 76 77 76 71 67 63 61 60 61 63 67 65 63 63 63 61 60 63 62 63 66 63 65 77 85 86 86 91 94 95 97 100 103 109 112 115 117 120 124 125 127
82 80 79 78 81 81 81 77 73 72 69 69 72 73 72 73 72 71 68 67 67 64 66 72 69 71 87 89 89 92 94 96 101 106 110 112 114 117 118 122 125 128 130 121
88 85 83 82 81 79 78 78 80 79 80 79 82 81 80 79 78 78 78 80 77 74 74 76 74 88 90 89 91 93 96 101 105 111 113 116 120 121 125 125 128 131 125 119
95 91 87 83 83 82 77 78 81 83 82 86 85 85 84 83 84 83 83 83 84 83 82 81 89 90 91 94 96 99 102 106 110 115 120 122 124 126 128 132 131 128 118 108
101 98 95 90 85 85 85 85 85 84 83 83 85 87 88 90 90 88 89 88 89 90 90 98 99 97 99 101 103 106 111 116 121 124 126 125 127 127 128 132 127 116 108 104
108 104 103 96 95 94 93 93 94 93 90 91 92 93 93 93 92 94 95 97 95 96 106 103 102 103 105 109 112 115 121 124 124 128 126 128 129 131 131 122 112 108 103 100
117 112 106 104 105 106 106 105 102 101 100 100 101 100 100 100 101 101 103 104 106 110 108 108 108 110 113 118 121 125 129 129 132 130 131 133 129 129 119 111 105 101 98 97
119 112 111 111 112 114 113 113 113 112 110 110 109 106 106 104 104 105 108 113 114 113 112 113 117 120 121 122 123 127 131 131 131 134 132 127 125 118 109 104 98 96 95 93

GFSNW_250_spd_003.txt.gz
Wind_Speed
23 29 33 19 18 21 28 28 31 27 25 30 39 41 34 38 33 28 23 30 30 30 30 29 28 29 35 29 31 41 43 45 49 49 45 42 42 44 45 46 46 46 46 44
21 27 33 22 16 27 25 33 30 27 30 29 41 37 36 38 31 27 29 29 33 28 30 32 31 32 31 34 31 37 38 39 27 35 41 43 45 45 44 44 46 47 46 48
19 25 31 22 6 28 28 27 31 29 32 32 45 41 39 43 35 25 31 31 32 32 27 27 34 33 34 33 35 33 33 31 36 37 41 41 43 43 43 44 47 45 52 50
14 23 31 27 5 29 32 36 30 32 34 36 33 31 45 45 38 32 28 32 26 29 28 29 35 31 37 32 30 34 35 38 39 39 38 39 42 43 42 46 47 46 51 52
9 18 27 27 19 12 27 31 32 38 36 35 35 35 35 39 38 37 33 32 31 30 31 34 31 33 37 37 37 35 35 36 39 38 39 41 43 43 43 41 42 44 49 57
4 11 20 27 22 12 8 24 32 34 34 28 41 33 36 33 33 34 35 38 34 34 34 34 39 41 36 38 40 43 39 39 41 42 42 44 48 48 49 51 54 56 58 63
3 5 11 20 24 19 8 14 28 31 32 33 40 38 39 29 32 36 35 36 37 36 35 35 39 37 41 34 39 42 41 44 44 44 44 46 47 46 49 51 54 57 61 64
2 2 6 11 18 23 18 9 10 25 26 33 37 46 43 36 31 32 37 38 37 42 36 35 38 38 37 39 39 41 45 43 42 42 44 47 48 49 52 56 61 60 64 67
8 3 2 6 11 15 19 16 7 10 19 23 30 38 41 43 38 34 38 42 44 42 45 38 39 42 41 41 41 40 43 46 46 46 49 53 54 57 58 58 59 61 65 69
18 13 7 3 6 10 12 16 16 12 12 15 20 22 27 32 38 37 34 35 39 44 43 40 39 41 39 36 38 40 40 41 42 44 48 52 53 56 57 59 62 66 68 71
23 18 16 11 8 8 11 12 13 15 18 17 17 20 22 22 20 23 26 28 29 37 41 38 37 37 33 34 41 42 45 46 45 48 52 53 53 54 59 62 66 69 71 73
30 25 20 18 16 14 12 13 13 14 15 17 18 20 18 16 16 19 22 20 20 25 28 30 32 39 41 40 43 44 48 50 55 59 60 58 58 59 60 62 63 64 64 67
39 34 28 24 22 19 16 16 15 14 14 16 15 14 15 16 18 18 19 21 22 19 17 15 14 15 24 33 42 43 45 44 45 42 46 45 48 49 51 54 58 62 66 69
46 41 36 31 26 24 23 20 18 18 16 15 16 16 15 15 15 16 17 18 18 18 18 18 18 17 18 23 26 28 25 31 35 41 44 46 52 52 54 58 62 65 69 73
52 48 43 39 35 29 27 26 25 23 20 19 18 17 15 14 14 16 16 17 17 19 19 18 16 18 22 30 33 32 32 40 41 46 48 50 55 58 61 62 66 71 75 80
58 55 51 48 44 39 35 32 32 30 26 25 25 25 23 23 21 20 19 17 20 22 25 24 26 25 27 37 42 38 41 44 48 52 55 57 60 65 67 71 76 80 83 88
67 62 59 56 53 48 45 43 39 34 33 32 31 32 33 31 29 27 26 27 27 29 31 34 34 34 35 44 47 47 50 51 54 56 60 64 67 71 76 80 84 86 91 93
72 71 67 64 62 59 55 51 47 44 43 39 38 38 39 40 38 37 36 35 35 37 39 39 40 42 46 57 53 57 57 56 58 62 68 73 78 81 82 84 88 92 93 96
76 75 75 73 71 68 65 61 58 53 50 49 47 48 47 45 46 45 44 44 42 41 44 47 48 53 58 60 65 64 64 64 67 70 74 78 81 84 88 91 94 98 100 106
79 77 76 78 79 76 73 69 66 63 59 57 58 59 56 53 51 51 51 50 50 49 53 56 57 61 65 69 72 71 69 69 73 77 82 85 88 90 94 99 103 107 109 113
82 81 80 83 82 81 79 75 71 70 69 67 68 66 65 63 62 61 59 59 59 58 61 65 63 70 74 77 76 77 79 82 85 87 89 92 93 97 101 105 109 112 114 118
91 88 87 84 84 84 82 79 77 76 76 75 78 78 74 71 69 69 68 69 69 69 69 71 74 77 82 80 80 82 85 88 91 94 98 100 102 104 107 110 111 115 120 124
100 96 92 89 86 85 83 80 81 83 83 82 81 81 80 80 79 79 79 78 78 77 77 81 88 91 86 83 84 87 90 93 97 100 103 107 109 111 113 115 118 123 127 128
105 102 100 97 90 87 85 87 88 87 84 84 83 83 85 86 86 85 86 86 87 86 86 91 95 92 91 92 93 94 98 100 102 106 110 112 114 116 119 120 125 127 131 133
112 108 107 101 97 96 94 94 93 92 91 90 88 87 88 88 87 87 88 89 89 90 96 95 92 92 93 95 98 100 101 104 108 113 115 116 119 121 123 127 129 132 127 128
116 114 111 109 108 106 104 102 99 97 95 95 93 92 93 93 91 91 93 92 95 98 96 94 94 95 97 100 103 105 108 111 115 119 121 122 122 126 128 131 132 130 128 125
121 117 115 116 115 114 112 109 108 105 102 99 98 99 99 98 98 98 100 104 105 101 100 101 103 104 106 109 111 114 117 118 121 123 124 124 128 130 132 132 130 127 119 112

GFSNW_250_spd_006.txt.gz
Wind_Speed
22 22 28 27 8 25 22 21 22 27 25 20 27 34 31 26 27 22 38 44 46 45 58 64 59 58 56 53 56 59 61 61 59 61 59 56 56 51 45 45 48 46 44 45
19 21 25 24 7 28 25 31 25 29 30 28 24 22 29 28 17 20 20 35 39 42 45 51 57 60 64 65 68 64 61 57 58 56 54 56 55 53 47 48 47 47 45 45
16 20 22 21 7 29 32 31 30 33 31 33 28 15 27 26 22 23 23 20 24 24 27 34 44 43 42 46 52 58 61 64 66 66 67 63 58 52 47 46 45 44 46 43
12 17 18 19 9 27 33 35 32 31 36 38 33 28 24 18 30 23 32 28 20 20 24 23 26 28 25 31 31 29 36 40 42 43 46 47 47 46 47 45 37 40 41 47
8 11 14 17 11 23 36 38 35 29 26 43 39 31 37 27 23 26 30 30 28 22 23 31 27 26 30 31 33 38 36 41 36 39 43 33 33 38 39 38 39 44 44 48
7 6 9 16 9 6 33 36 41 36 30 34 41 39 37 37 28 23 27 29 30 25 26 23 22 30 34 27 29 28 29 38 41 37 40 41 37 38 40 41 42 43 45 47
9 6 2 9 8 2 22 33 40 34 35 35 36 42 39 41 39 33 26 25 31 29 21 24 25 25 25 30 28 26 22 27 28 31 34 35 36 35 37 40 42 47 51 56
12 8 6 3 8 2 9 28 32 35 41 42 40 39 38 41 43 39 30 27 29 32 29 29 29 31 29 25 26 24 30 30 30 29 30 32 35 39 42 45 47 51 54 56
17 13 9 7 4 5 5 15 25 29 36 37 39 42 43 37 45 43 39 36 34 37 35 34 32 35 34 35 33 32 30 32 31 30 33 36 38 41 45 48 50 54 55 58
25 20 14 10 10 6 4 8 16 26 28 29 40 38 43 44 41 36 35 44 39 35 35 31 35 37 41 43 46 45 38 34 36 38 40 40 43 48 50 53 56 58 60 63
32 26 22 16 12 11 9 6 8 17 24 28 31 37 39 47 44 41 36 34 38 43 43 38 36 35 34 36 41 42 42 42 43 44 46 50 53 54 56 57 58 61 62 63
38 34 27 23 19 14 12 11 9 9 14 22 25 26 29 34 44 44 43 42 39 37 34 38 44 43 39 37 40 43 45 44 46 49 51 53 55 58 60 61 61 63 64 66
42 39 34 28 24 21 17 15 14 14 13 15 19 22 26 28 28 28 32 35 39 33 33 30 36 42 40 37 39 43 47 45 49 51 54 56 59 60 60 62 63 62 61 57
48 44 41 35 30 27 25 22 20 18 18 17 17 17 18 19 23 27 28 28 28 27 26 27 29 32 37 40 42 45 45 51 54 56 54 53 53 53 53 51 51 53 56 59
54 50 47 43 38 34 32 30 27 25 22 22 20 20 20 20 19 20 20 21 24 26 28 28 27 28 27 25 26 28 28 33 36 39 40 42 44 45 48 51 53 56 60 63
60 56 52 50 47 43 39 35 34 32 30 28 26 25 24 23 23 23 23 23 24 25 25 27 28 28 28 29 31 27 34 36 39 42 45 46 49 50 52 55 58 61 65 71
67 63 59 55 54 51 48 43 38 35 35 33 31 29 29 28 26 25 24 24 25 24 27 29 31 33 33 36 38 35 41 43 44 45 47 50 52 56 59 60 63 69 73 76
74 70 66 62 59 57 55 52 47 43 39 35 35 36 35 35 33 33 32 31 29 28 30 31 32 37 41 46 43 46 48 49 51 54 55 57 60 63 66 70 72 75 78 82
78 76 74 70 67 64 62 58 55 51 48 45 43 41 40 39 40 41 42 41 39 39 39 40 40 44 52 51 55 55 56 58 59 60 63 65 68 71 73 75 79 83 86 89
82 81 79 77 76 72 68 65 63 59 56 54 54 52 50 48 47 46 47 47 46 47 49 49 49 53 58 59 61 61 62 64 65 67 70 74 78 79 81 84 86 89 93 95
86 83 85 84 82 79 76 72 68 65 64 64 64 63 61 58 57 56 54 53 54 54 56 58 59 65 66 67 66 66 67 69 72 76 80 83 85 87 89 90 93 97 100 104
94 92 91 88 87 84 80 75 73 74 74 74 75 73 69 67 66 65 63 63 61 60 63 65 67 72 72 73 72 73 76 79 82 86 88 89 91 94 95 98 101 104 105 107
103 98 93 92 91 88 83 81 80 80 81 80 79 79 78 77 75 75 74 73 71 72 71 73 75 77 78 78 80 81 84 88 91 92 94 95 98 100 101 103 105 107 109 113
107 106 101 99 91 88 86 85 88 89 86 84 84 84 83 83 83 82 83 81 81 82 83 84 84 84 84 86 88 91 93 94 96 99 101 101 102 104 106 107 109 112 115 121
114 113 110 101 96 95 93 93 91 90 90 90 89 88 88 87 87 87 87 88 88 89 90 90 87 88 89 90 91 94 95 96 98 99 101 103 105 107 109 112 116 119 123 126
115 113 111 108 106 103 100 99 98 97 94 93 92 92 92 91 91 91 91 93 95 96 94 93 93 93 94 95 98 99 100 102 102 103 106 109 110 114 117 119 122 126 128 132
113 108 110 111 113 112 109 105 103 102 101 102 99 97 96 96 96 95 97 98 99 98 99 98 97 98 101 100 101 103 105 106 107 110 113 115 117 120 123 125 127 129 132 132

GFSNW_250_spd_009.txt.gz
Wind_Speed
22 24 25 25 26 18 23 15 15 9 14 16 22 25 23 28 26 47 45 45 45 44 37 35 35 38 43 50 55 62 66 67 68 68 68 67 65 62 59 57 57 53 52 52
21 23 23 25 25 19 24 24 22 15 7 19 21 18 24 25 30 34 50 47 44 44 44 40 41 39 43 47 52 54 56 60 64 66 66 64 63 62 61 61 60 57 53 52
20 22 20 23 22 20 27 30 27 24 14 15 20 17 24 22 16 27 39 51 49 47 43 43 43 43 41 42 46 49 50 54 58 62 66 67 65 64 62 60 58 61 57 55
18 20 18 20 20 20 30 28 31 30 26 21 13 18 15 24 12 29 36 38 43 53 50 47 45 45 45 45 46 47 49 52 54 56 58 59 61 60 59 59 60 56 56 54
17 18 19 17 19 19 27 32 37 35 32 28 22 17 19 22 27 19 34 29 31 35 42 46 55 52 51 49 49 49 51 51 55 56 56 58 59 59 59 56 55 58 57 49
17 18 16 14 15 17 16 32 37 38 38 35 29 25 17 19 29 27 22 16 22 24 31 33 34 40 45 48 55 58 57 56 57 57 56 57 57 60 62 62 57 50 46 47
20 18 16 12 12 13 8 28 35 38 40 38 37 31 27 23 23 29 28 25 22 12 24 23 23 30 27 26 30 38 45 57 51 54 56 57 47 49 49 45 43 44 47 49
24 20 16 12 10 9 9 22 33 40 38 34 44 40 34 29 27 25 30 24 23 21 19 23 24 25 28 28 23 26 28 29 33 37 41 41 43 43 37 41 39 39 42 46
29 22 19 14 12 8 8 14 29 34 42 39 37 46 43 38 32 31 30 28 27 29 25 20 23 21 24 34 28 29 27 25 25 28 31 33 34 35 35 38 39 44 45 46
32 26 22 17 16 11 8 11 22 32 37 36 42 43 40 44 41 36 35 35 32 32 35 31 27 26 28 28 28 31 31 32 25 28 31 32 30 32 35 35 42 43 45 49
36 31 27 22 16 17 12 7 16 24 35 36 39 43 41 42 42 43 41 41 36 35 34 37 38 35 36 35 35 34 32 30 29 30 31 34 38 40 41 43 46 48 51 53
42 36 32 30 23 18 18 13 10 20 27 37 37 40 42 43 45 45 38 39 43 45 41 36 35 39 36 39 42 43 42 43 43 41 42 42 43 45 46 48 52 56 59 63
49 42 37 34 30 25 22 18 15 12 18 27 37 37 35 35 39 44 51 44 41 38 37 43 45 44 42 40 41 40 44 45 47 48 50 51 51 52 55 57 61 62 64 65
55 48 43 39 36 31 28 24 19 16 14 15 23 31 34 34 34 35 39 48 48 46 45 42 41 43 44 46 49 48 47 45 50 53 54 53 54 54 55 58 60 62 65 67
59 55 49 44 42 38 32 29 25 22 20 18 17 22 26 29 30 32 34 35 36 41 41 41 42 40 40 41 40 52 45 48 49 51 49 50 53 55 58 62 63 61 58 55
65 61 55 50 47 44 40 34 30 28 26 22 22 23 21 21 20 20 25 30 31 32 31 33 35 34 33 34 35 38 42 45 44 41 41 44 48 50 50 49 49 51 54 59
69 66 62 57 53 49 46 43 38 33 32 31 28 26 26 25 24 23 22 23 24 26 31 33 35 33 30 32 32 29 34 37 37 39 40 43 44 45 47 50 53 56 59 63
74 72 68 65 60 57 53 50 46 41 37 35 35 35 34 32 29 28 29 27 26 26 28 29 30 32 34 36 35 35 38 41 42 43 45 48 50 53 56 57 59 63 67 72
78 76 74 71 67 63 60 56 52 48 44 41 40 40 40 37 37 36 36 34 34 34 33 35 34 37 40 39 39 41 44 46 48 49 50 55 59 60 62 65 68 72 76 79
85 80 76 76 75 72 67 63 59 55 52 50 49 47 45 42 42 42 41 40 39 39 40 39 39 45 47 42 46 48 48 51 53 56 59 62 64 66 68 71 75 78 81 85
89 86 83 81 81 79 74 69 64 60 57 58 59 56 55 54 51 49 46 45 43 43 46 46 49 57 55 51 54 55 56 58 62 66 68 70 71 73 76 79 82 85 88 91
95 94 91 89 86 84 81 74 68 67 66 66 67 66 65 62 60 57 57 55 53 50 54 53 54 61 61 60 61 63 64 67 70 73 75 77 79 82 84 87 91 94 98 101
103 101 97 95 90 85 80 77 75 76 78 78 76 74 71 68 68 68 68 65 63 64 63 62 64 66 65 67 68 70 73 75 78 79 83 85 88 91 93 96 98 101 102 103
108 107 102 101 93 89 82 84 85 85 84 83 82 82 80 79 78 76 74 73 73 72 71 73 74 75 77 78 79 81 83 85 87 90 92 93 95 97 98 98 101 104 106 108
112 110 108 102 96 93 90 88 89 89 89 90 89 87 87 86 85 85 84 83 82 80 80 82 83 85 85 86 88 89 89 90 93 95 96 98 98 100 103 105 108 109 112 115
112 112 108 104 102 99 97 97 95 94 94 94 94 93 92 93 93 91 91 90 88 88 87 88 89 90 90 92 93 94 95 96 98 100 100 101 103 105 107 110 113 116 119 122
105 106 108 107 107 107 105 103 101 100 101 99 98 98 96 96 98 97 97 97 96 94 93 94 97 98 98 99 99 99 101 103 104 104 105 107 109 111 115 118 120 123 127 129

GFSNW_250_spd_012.txt.gz
Wind_Speed
28 28 28 31 26 26 26 18 12 10 6 2 6 16 18 18 26 30 31 32 32 34 30 28 30 37 45 49 59 74 84 86 81 77 74 72 70 65 62 61 60 61 60 61
28 27 27 29 24 24 25 16 15 11 9 6 2 11 14 10 27 30 30 30 31 29 27 28 30 32 39 46 52 62 73 78 79 76 72 69 68 65 64 65 66 63 61 64
30 27 27 27 22 22 25 16 20 16 16 10 7 11 15 10 20 28 30 31 30 27 26 26 28 27 31 38 46 54 62 68 70 71 72 75 73 72 70 68 63 64 61 62
32 28 26 25 22 20 24 16 28 23 14 18 9 10 13 12 11 26 31 33 32 31 30 28 27 29 30 33 39 46 53 60 65 68 69 69 68 67 66 64 65 61 64 60
34 28 26 24 22 19 24 18 30 32 24 17 17 13 10 15 16 16 32 31 33 34 32 30 29 28 30 33 35 39 44 49 57 62 65 65 67 65 63 64 64 62 63 61
36 31 27 26 21 19 21 19 32 36 32 27 19 19 13 17 20 20 17 30 34 32 34 34 34 31 31 32 32 34 37 41 46 51 54 55 54 56 56 59 59 59 58 59
37 33 28 26 19 19 20 17 30 37 37 33 27 22 24 22 21 18 18 21 26 34 38 34 33 34 36 37 38 38 38 39 41 44 43 42 48 50 51 51 53 53 57 60
41 34 29 27 19 18 19 14 23 38 39 39 35 30 22 27 24 19 15 27 24 21 18 28 33 39 40 41 41 39 39 40 41 42 47 49 50 51 53 55 56 58 60 61
45 36 32 29 20 18 18 12 17 34 39 44 40 35 30 28 28 28 24 18 16 27 23 25 27 25 23 27 28 33 38 44 45 48 51 53 55 55 56 59 61 66 67 66
49 40 35 32 22 18 19 14 11 27 35 41 45 39 40 36 31 31 29 25 24 22 21 23 26 25 25 26 25 25 23 24 27 30 32 38 42 45 45 48 50 52 54 52
50 44 38 34 26 20 19 18 12 15 33 38 42 41 43 42 39 35 33 34 33 28 25 27 24 23 25 29 33 30 29 32 29 29 30 32 34 34 36 40 41 44 45 45
53 48 42 37 30 23 19 19 16 12 21 33 37 41 40 43 45 41 39 36 40 36 34 32 32 31 28 31 31 32 39 38 36 37 35 35 37 37 42 43 42 43 45 48
57 51 46 40 35 29 23 19 18 14 16 25 37 36 39 39 47 48 46 46 45 41 39 41 41 38 36 36 34 34 35 36 37 37 39 40 39 40 41 44 47 49 50 50
60 55 51 44 38 33 29 25 20 17 15 17 26 35 39 39 37 42 42 43 43 45 41 44 46 41 40 38 42 46 43 42 47 48 47 46 48 48 50 52 53 55 56 58
62 58 55 49 43 38 32 29 25 21 18 17 16 23 30 36 38 39 37 37 37 36 40 43 39 40 37 44 45 47 46 48 47 48 51 52 53 53 55 56 57 58 60 63
66 63 59 53 48 43 38 33 29 26 25 19 16 15 20 28 31 34 36 35 35 37 38 41 44 46 41 42 44 45 45 48 50 52 56 54 53 53 53 53 55 58 60 61
72 66 63 59 53 48 43 40 37 32 28 23 20 18 17 18 22 25 27 29 31 33 33 34 37 40 42 45 45 45 40 42 46 47 48 50 50 50 51 51 49 48 49 52
75 71 67 64 59 55 50 46 41 38 33 28 25 27 23 23 21 21 21 20 20 23 27 31 33 34 33 36 38 33 33 35 36 37 39 42 45 47 47 47 48 51 55 59
80 77 71 66 62 60 57 52 48 43 40 36 35 32 30 27 27 26 24 23 21 21 21 22 22 24 29 30 28 28 31 33 33 34 37 41 46 49 51 53 56 58 61 64
86 82 76 71 67 66 64 59 53 49 45 44 44 41 38 34 34 34 33 31 28 28 30 29 28 31 31 30 32 35 37 40 41 43 46 49 51 53 55 56 60 64 68 71
90 85 81 78 75 71 66 64 60 55 51 50 51 50 48 45 43 40 37 35 33 34 36 34 36 40 38 37 40 43 44 45 46 49 52 55 57 58 62 65 67 71 75 79
94 90 88 85 80 76 72 66 64 61 59 58 60 60 57 56 52 49 45 42 40 37 39 38 42 47 45 45 45 49 52 54 55 58 61 62 64 66 68 72 75 79 83 87
100 97 93 90 85 80 73 67 66 68 70 72 71 68 65 63 60 58 55 51 49 48 46 48 55 55 54 55 57 59 60 62 64 65 66 68 71 74 78 82 85 89 92 96
106 102 98 96 90 81 74 74 77 77 78 79 77 73 70 69 66 63 62 59 58 56 56 63 65 63 64 66 68 69 70 72 73 75 77 79 82 85 88 91 93 96 99 101
110 108 107 100 92 86 83 81 83 82 81 82 82 82 79 77 73 71 70 69 66 66 68 69 70 72 74 75 76 77 78 80 82 83 85 88 91 94 97 98 100 102 105 107
105 109 107 105 101 96 93 91 90 89 88 86 85 84 83 84 83 81 79 77 76 77 76 77 79 81 83 84 85 86 87 89 90 91 93 96 98 101 103 105 105 106 108 113
98 99 101 103 106 105 100 98 97 96 93 91 89 88 87 87 86 84 85 85 84 84 84 85 87 88 90 92 93 94 94 94 96 98 100 102 103 104 105 106 109 113 117 121

GFSNW_250_spd_015.txt.gz
Wind_Speed
48 41 34 28 30 24 26 23 23 18 10 11 12 19 14 8 14 21 25 29 29 31 28 30 35 45 49 63 78 81 79 76 74 72 72 71 70 68 63 59 56 58 58 58
50 42 35 28 31 23 23 20 19 17 11 9 9 9 10 8 14 20 23 22 22 24 29 32 36 40 44 52 70 81 81 78 75 73 70 67 65 67 67 68 68 66 62 64
49 41 35 29 31 23 22 17 17 16 14 12 3 5 9 10 13 17 21 22 21 20 20 21 26 33 38 43 54 75 83 81 77 73 74 77 75 74 73 70 63 67 63 67
46 42 36 30 31 23 21 16 16 14 16 15 6 3 5 4 15 15 18 20 22 23 22 22 22 27 34 39 44 54 70 79 80 79 78 75 75 74 71 67 68 64 70 66
51 42 38 31 30 24 20 15 14 14 21 19 13 7 5 1 13 20 18 21 22 22 21 21 24 28 30 36 43 45 51 63 76 80 81 79 78 75 71 69 68 68 71 70
53 48 38 35 30 25 19 15 13 15 28 25 20 14 9 7 4 14 23 19 21 21 19 18 17 21 27 32 37 42 46 51 60 68 75 77 75 76 75 74 71 70 68 71
55 49 41 37 33 26 19 16 14 14 34 29 24 19 15 17 14 9 12 26 23 22 24 23 23 22 22 24 27 31 35 39 45 52 56 61 69 70 70 68 69 68 68 67
56 50 43 39 34 28 21 16 15 14 38 36 28 25 22 23 17 16 14 12 25 28 25 24 22 23 23 23 26 29 32 35 38 41 46 51 55 60 63 64 64 64 63 61
57 51 46 41 35 28 22 16 15 15 37 42 35 30 29 27 23 19 21 18 13 18 26 29 28 27 25 24 25 28 28 29 29 31 34 39 44 47 50 52 52 53 54 56
60 53 48 42 37 30 23 18 15 13 32 46 43 36 32 29 26 24 22 21 23 21 20 19 16 18 25 31 32 33 32 33 33 33 36 39 40 40 40 43 49 49 51 52
61 55 50 45 39 31 26 19 17 11 21 42 47 43 38 34 33 29 25 22 20 27 25 27 25 22 20 22 24 27 31 35 36 38 37 38 42 43 43 43 46 49 52 51
63 56 53 46 40 34 27 22 17 15 10 33 44 47 43 39 38 36 36 28 26 25 26 25 27 21 25 26 27 26 25 26 26 25 25 28 29 30 34 34 37 40 42 46
66 59 55 49 43 37 31 25 18 15 13 18 38 45 49 45 40 40 37 38 32 31 29 29 27 27 25 24 27 31 32 32 31 33 34 34 35 37 37 38 41 42 43 45
68 62 57 52 47 41 34 28 21 15 13 12 24 39 43 47 47 41 42 46 42 37 36 35 35 32 32 32 31 32 31 32 37 41 41 41 42 43 43 44 46 48 51 54
71 65 60 56 51 44 38 32 27 21 15 16 14 24 35 40 43 43 42 42 42 43 44 44 44 42 40 40 39 39 39 39 40 41 41 43 43 44 46 48 50 50 52 53
73 67 63 58 53 48 42 36 32 27 22 17 12 13 21 30 37 39 43 42 43 47 45 42 40 42 41 36 40 43 45 47 44 46 50 50 49 48 51 55 58 58 59 58
76 70 66 62 56 51 45 41 39 33 26 20 16 12 12 14 25 31 36 37 39 42 44 42 43 41 40 41 45 47 45 41 40 44 48 50 51 53 55 55 58 59 58 56
77 73 69 64 60 54 50 46 41 37 31 24 20 21 18 15 13 17 24 26 27 28 31 32 33 31 30 32 42 47 46 42 42 45 46 48 48 48 47 44 43 45 46 49
81 77 71 68 64 59 56 53 47 42 36 31 30 28 24 18 18 15 13 12 13 17 22 26 28 30 33 36 37 32 25 28 34 35 34 36 37 37 37 38 39 41 44 49
85 81 75 71 67 65 64 58 53 46 41 38 36 33 31 26 23 21 19 16 15 16 18 16 16 24 23 22 22 25 28 29 30 29 30 33 36 38 40 42 44 47 50 53
88 83 79 77 74 71 68 61 55 50 45 43 43 41 38 35 32 29 24 23 22 23 24 21 24 29 29 25 28 30 31 31 33 35 37 38 40 42 44 47 50 54 58 62
93 89 87 84 81 78 71 64 60 55 51 49 51 50 47 44 40 37 34 31 28 26 28 25 32 39 35 33 35 37 38 39 41 42 43 45 47 49 52 56 59 62 66 70
100 97 93 90 87 81 71 64 62 60 62 63 63 60 55 51 48 45 43 39 37 35 35 39 42 44 44 41 41 43 44 45 46 48 50 52 55 58 61 65 68 71 75 79
102 100 97 95 90 80 70 70 71 71 71 71 68 63 60 56 53 50 48 46 45 44 49 53 51 51 53 53 53 53 53 54 57 59 61 63 65 68 71 75 78 80 83 87
103 103 101 96 89 83 80 79 79 78 77 74 72 70 67 64 61 58 56 53 51 54 60 58 58 59 60 61 62 63 64 65 67 68 69 71 74 77 80 83 85 88 91 95
101 104 102 98 93 88 86 85 84 82 80 78 76 74 71 70 67 65 63 61 63 66 67 65 66 67 68 69 70 71 73 75 75 76 78 80 83 86 88 90 92 95 98 101
93 97 101 102 100 96 93 90 90 89 85 82 80 78 76 74 72 71 71 72 73 70 71 73 75 75 76 77 79 80 81 82 83 85 87 89 91 93 95 96 97 99 103 106

GFSNW_250_spd_021.txt.gz
Wind_Speed
47 52 60 62 60 54 50 42 41 34 27 23 25 22 16 17 18 17 18 19 14 13 19 40 56 72 81 85 85 87 92 91 88 84 77 74 72 72 71 69 65 64 64 57
49 57 62 63 59 53 50 43 39 32 25 21 21 14 11 8 10 10 13 17 17 19 28 41 58 69 72 77 82 85 87 89 88 81 75 72 68 68 68 66 63 64 63 57
52 61 65 62 58 53 49 41 36 30 22 20 19 11 8 2 3 9 13 14 15 24 31 34 42 50 54 62 70 73 77 79 81 80 77 74 72 72 71 68 66 63 60 55
56 67 67 64 59 53 48 39 36 27 22 18 16 12 8 4 7 12 12 13 13 17 24 28 38 43 47 53 58 64 70 73 72 70 70 73 74 72 66 62 65 59 60 56
59 68 67 63 58 53 48 40 35 27 22 19 16 17 13 9 14 15 15 14 13 18 21 30 37 40 47 54 58 62 68 70 70 70 68 67 66 64 58 59 59 60 62 61
65 68 69 64 60 56 48 41 33 27 23 19 19 21 18 14 19 18 18 17 16 17 18 23 26 35 42 49 58 63 68 69 70 70 66 64 63 62 62 64 62 63 63 69
66 66 65 66 61 55 47 41 34 30 23 19 22 23 20 17 20 20 20 19 19 18 18 20 27 32 35 39 47 58 64 68 67 68 68 65 65 67 65 63 64 63 64 68
68 71 67 66 60 56 50 43 35 31 25 21 21 26 23 22 23 21 22 21 20 19 19 18 20 25 29 35 39 46 57 64 67 68 67 67 68 66 65 65 66 65 67 66
70 73 72 68 61 56 50 44 37 33 26 24 24 30 26 22 23 23 25 23 23 21 21 20 21 23 26 29 33 37 45 55 63 67 68 69 67 66 66 66 68 68 68 69
68 68 68 63 60 57 49 44 38 34 27 25 26 32 30 26 23 23 23 27 24 24 24 21 20 20 21 25 31 37 38 43 52 60 64 67 67 68 68 69 70 69 70 71
69 76 74 69 62 56 51 45 40 36 30 29 24 33 34 29 26 22 23 24 27 27 24 24 24 22 22 20 21 24 30 34 37 41 47 55 61 64 65 66 67 68 69 71
71 75 74 69 65 58 52 46 42 37 34 30 24 37 39 36 31 27 22 24 23 25 28 27 27 28 26 24 25 27 28 30 31 32 36 38 40 44 48 53 55 58 60 60
72 77 76 72 65 60 54 47 43 39 34 30 25 36 43 39 38 33 29 25 23 22 23 27 27 27 27 28 27 27 26 27 28 29 30 32 33 35 37 40 43 43 45 47
71 76 77 74 69 62 57 50 45 41 36 32 30 32 49 45 42 38 36 32 27 24 24 24 23 24 24 25 25 26 26 28 29 30 31 33 35 35 36 38 41 43 45 45
74 75 78 75 69 64 58 52 47 42 36 33 30 27 48 50 46 43 40 37 33 30 28 28 27 24 22 21 19 18 19 21 22 24 26 28 28 28 29 31 32 33 36 38
77 78 80 76 71 66 60 53 48 44 39 34 31 28 43 55 51 48 46 44 40 37 33 33 33 31 29 28 28 28 26 28 29 28 28 29 30 31 34 37 39 40 42 44
78 79 82 77 72 67 62 56 53 48 42 36 33 27 34 51 55 52 48 46 45 42 40 37 37 36 34 34 34 34 34 36 35 33 32 33 36 38 41 43 45 46 48 51
79 80 82 79 75 70 65 61 57 51 45 37 34 30 29 40 53 55 54 51 48 45 45 46 43 40 38 38 41 41 41 41 40 41 41 43 46 49 51 52 53 55 56 56
81 82 81 81 76 71 69 65 60 53 45 38 36 34 31 30 40 50 53 53 52 51 51 51 47 44 42 50 52 50 47 47 47 46 49 50 50 51 50 52 53 53 52 51
84 84 83 81 79 76 73 70 63 55 48 44 40 37 35 32 31 36 42 47 49 51 49 50 49 48 51 51 54 53 50 49 49 47 45 44 43 44 44 46 46 43 40 38
85 87 82 81 81 80 77 70 63 54 50 48 46 43 40 35 32 30 27 32 38 47 54 48 47 50 52 48 49 48 43 40 39 41 40 37 37 36 36 35 35 34 34 35
81 88 87 89 86 82 79 70 62 57 55 52 51 50 44 41 39 35 32 30 27 28 35 38 44 56 47 40 42 44 43 40 36 31 28 28 26 28 29 32 34 36 37 40
84 92 93 90 86 83 76 71 64 60 59 63 64 60 53 48 45 42 38 34 30 29 27 29 33 30 28 28 26 27 29 29 28 28 29 30 31 32 34 36 38 40 44 48
85 89 92 91 85 80 76 75 75 73 73 73 71 65 57 53 49 43 40 38 37 34 35 37 36 33 33 32 32 31 32 32 32 33 34 35 37 39 41 43 46 50 54 57
79 86 89 89 87 85 85 84 83 82 80 77 74 66 61 58 52 48 46 45 41 43 46 44 40 38 38 38 37 37 37 38 39 40 41 43 45 47 48 52 55 59 62 64
74 80 85 87 88 91 91 89 87 87 85 82 76 72 65 60 57 55 53 51 52 54 52 49 47 46 45 45 45 45 46 47 48 49 50 51 52 55 58 61 63 66 69 72
67 74 79 85 89 93 94 94 92 90 87 84 80 75 71 68 64 62 61 62 61 59 56 54 53 53 53 53 53 54 55 56 57 57 58 59 61 63 65 68 71 74 76 78

GFSNW_250_spd_024.txt.gz
Wind_Speed
40 41 44 48 51 51 50 48 52 48 39 36 35 33 32 29 25 21 21 29 30 26 16 6 22 32 39 50 60 65 68 77 78 82 82 81 87 82 81 76 72 70 67 62
37 40 43 48 50 48 50 54 54 44 38 35 32 29 24 21 16 13 15 22 22 16 6 13 38 45 50 61 66 69 70 69 74 80 83 80 78 78 77 71 71 69 62 59
36 38 43 49 49 51 53 56 48 41 37 33 28 24 20 15 10 5 10 15 16 10 5 21 40 54 55 62 68 72 70 72 74 78 78 78 79 76 69 66 66 64 61 57
38 40 45 48 51 54 57 52 48 43 37 32 26 21 18 12 8 2 5 11 13 8 9 17 37 52 57 59 62 68 67 68 74 75 69 71 72 69 66 64 65 60 58 57
38 41 48 51 53 57 58 54 49 44 36 31 26 20 19 12 11 8 7 7 12 7 10 20 21 41 57 60 62 69 70 71 71 70 72 69 66 63 62 62 61 60 55 53
39 45 54 56 58 60 59 55 51 43 36 29 26 20 21 16 15 13 11 10 11 13 11 14 25 28 35 47 53 58 57 57 69 71 71 70 66 64 64 64 60 60 56 58
41 47 50 53 59 63 61 56 48 41 34 31 25 21 23 19 18 18 16 16 15 16 20 22 21 21 28 34 38 41 49 52 57 66 66 59 57 57 58 57 55 54 55 55
44 48 56 64 66 65 59 53 47 41 34 32 26 23 25 19 22 23 21 19 18 18 19 20 25 30 31 31 33 38 40 46 53 56 56 55 57 57 56 56 56 55 55 55
47 55 62 65 67 65 60 55 47 40 36 33 27 23 25 23 25 27 23 21 20 18 18 19 21 25 29 32 34 35 38 43 50 55 59 58 54 55 56 56 56 57 57 56
51 54 62 68 68 64 59 55 47 40 38 33 28 27 30 25 27 28 27 24 23 20 19 18 19 21 25 29 32 36 38 41 47 53 57 59 59 57 58 59 60 59 59 58
50 60 68 68 67 66 61 54 48 41 39 33 29 32 32 27 27 29 30 28 26 23 21 19 18 18 20 22 26 30 33 37 43 48 54 58 59 61 61 61 60 61 62 62
54 64 68 70 69 66 60 55 49 43 42 34 30 32 35 32 28 28 32 31 29 26 23 22 21 20 20 21 23 26 29 31 34 40 45 49 55 58 60 62 63 64 65 66
56 64 68 70 71 67 64 57 50 45 43 36 32 31 37 36 32 28 31 32 32 31 29 25 24 24 23 23 23 26 28 30 34 36 37 41 46 51 55 57 59 60 62 64
58 67 70 72 71 67 63 58 52 47 44 41 32 31 36 39 36 31 32 32 29 30 32 30 28 26 25 26 26 25 25 26 28 31 33 35 37 40 43 46 49 50 51 52
57 67 73 75 73 69 64 59 54 49 44 40 33 32 35 41 41 36 33 32 30 27 27 26 26 27 26 25 27 26 27 27 27 28 29 30 31 32 34 36 37 37 38 40
61 68 75 78 75 70 65 58 54 50 46 42 37 33 31 40 44 43 39 35 32 30 29 30 28 30 29 29 30 29 28 27 28 27 29 30 29 30 30 30 31 32 33 35
64 71 78 78 74 69 65 60 58 53 49 45 41 34 36 34 46 47 45 41 37 34 31 29 28 27 26 26 25 26 27 29 28 27 27 27 27 29 28 29 31 34 36 40
65 71 78 78 77 72 68 65 61 57 52 48 43 36 36 33 40 53 50 48 45 41 36 34 31 31 32 33 32 31 31 29 28 27 27 27 28 31 32 34 37 41 44 46
66 71 77 78 76 72 70 67 63 59 52 48 45 39 35 34 33 48 57 51 48 46 43 38 35 34 37 41 39 38 37 37 36 34 35 36 38 40 42 44 46 48 51 53
67 74 77 77 79 79 76 72 67 61 53 50 45 40 36 36 31 40 51 56 53 48 45 44 43 43 45 47 45 43 41 42 41 41 42 44 45 46 48 49 50 50 50 48
66 72 75 79 82 81 77 74 66 59 53 51 49 46 42 38 37 36 42 50 54 54 52 48 45 50 53 52 49 47 46 47 47 49 50 52 52 50 48 47 47 45 45 45
64 73 79 84 85 84 81 75 65 59 56 54 53 53 49 44 39 35 33 38 44 51 55 54 53 59 58 54 52 54 55 53 53 51 51 48 46 46 45 44 42 42 39 35
68 78 84 85 84 83 80 71 65 59 59 62 63 61 56 49 43 41 37 32 32 36 41 51 59 55 56 53 51 52 51 49 48 47 45 43 39 40 40 38 36 35 36 38
67 73 81 85 83 81 77 70 68 68 69 70 70 66 60 52 49 43 39 36 33 29 34 40 40 41 43 44 44 43 42 40 38 36 36 35 34 34 35 36 37 39 41 44
64 70 76 80 81 80 80 78 77 76 75 74 72 70 65 59 52 47 42 40 36 40 44 41 38 35 33 32 33 33 32 32 33 34 35 37 38 39 39 40 42 45 48 51
61 66 71 75 83 82 84 85 83 83 82 81 77 73 70 64 58 52 47 46 48 52 48 44 41 40 38 36 37 37 38 39 40 40 40 41 42 43 45 47 50 52 56 59
59 64 70 73 81 87 88 87 88 87 85 83 80 78 75 69 63 58 57 58 58 54 51 47 47 46 46 46 45 45 45 45 46 47 48 49 50 51 53 55 58 60 63 66

GFSNW_250_spd_027.txt.gz
Wind_Speed
34 37 38 39 42 44 47 45 44 48 43 36 37 36 31 30 26 30 36 35 32 37 40 31 22 6 9 16 28 47 47 48 60 61 62 57 66 59 53 60 72 78 75 77
25 29 34 37 39 39 41 42 45 43 41 43 38 34 30 23 24 28 28 22 25 30 29 21 10 16 27 37 48 58 58 59 62 69 65 56 51 49 53 74 76 74 74 73
24 26 31 35 37 40 41 42 43 44 49 45 39 32 25 22 23 23 15 15 18 23 20 18 12 24 38 49 52 55 57 59 50 43 53 48 33 47 60 66 73 71 72 70
23 25 31 34 35 35 38 42 44 53 51 47 38 31 25 21 21 14 9 10 13 17 21 15 7 28 41 51 53 55 54 56 45 43 52 57 51 58 69 68 72 72 69 67
24 29 32 35 36 39 44 48 55 57 51 43 37 31 24 21 16 12 6 4 11 18 19 16 8 8 29 49 51 54 55 54 54 53 52 53 59 67 70 71 72 71 70 65
24 30 33 35 41 48 52 56 59 56 49 43 35 28 23 20 16 15 10 3 8 13 11 7 3 18 26 42 47 53 56 56 53 53 57 60 62 67 67 68 65 60 60 60
27 29 29 37 46 51 57 64 62 56 48 40 35 28 23 22 18 18 16 11 9 8 6 5 8 17 19 29 37 44 52 57 53 51 50 50 56 57 59 59 58 57 59 55
26 27 35 47 55 59 64 61 59 52 47 39 33 29 26 23 21 21 21 20 14 13 9 10 13 13 18 23 25 28 36 43 45 44 44 45 54 57 57 54 51 52 52 48
28 33 42 50 56 62 62 64 58 52 45 39 33 30 26 26 22 22 23 23 21 17 16 18 18 19 21 19 20 24 32 32 38 39 41 45 54 54 51 48 48 48 47 49
31 36 46 52 59 64 65 62 56 50 46 39 35 30 25 26 23 24 26 25 23 22 19 18 20 22 22 23 24 24 25 28 30 35 39 46 51 51 49 47 47 47 47 48
34 42 51 56 61 67 66 61 55 49 45 39 35 29 30 27 25 24 28 27 25 22 21 21 21 22 23 23 22 24 25 26 27 32 42 46 49 48 48 48 50 49 48 48
38 45 50 59 66 69 67 62 56 50 43 40 35 32 33 30 28 24 26 29 27 24 23 21 21 20 21 21 22 24 23 23 26 32 40 48 51 51 50 49 49 50 50 51
41 47 55 62 69 69 66 61 56 51 45 42 37 34 36 33 31 27 25 31 30 26 23 21 19 20 21 22 23 22 24 26 27 29 33 42 47 50 52 53 53 54 54 56
43 50 59 66 70 71 68 63 57 51 45 43 37 35 38 34 32 28 24 26 31 28 27 23 22 19 19 19 21 22 23 25 27 28 31 35 41 47 51 53 56 57 58 58
44 51 62 68 72 70 67 63 56 51 47 43 37 34 38 38 34 31 29 22 28 31 29 25 23 22 20 19 19 20 20 20 20 23 26 28 31 35 39 42 44 45 47 50
46 53 64 71 73 71 67 62 57 52 47 45 40 34 34 41 39 34 31 26 26 30 29 27 29 29 27 26 24 23 22 21 19 20 21 23 25 26 28 29 30 33 36 39
48 53 64 71 72 71 65 62 59 54 49 47 45 38 35 36 41 41 36 30 29 30 30 30 30 30 28 28 28 26 24 24 24 25 26 27 28 28 30 31 31 31 32 34
50 54 65 72 73 73 71 66 61 56 52 49 46 42 37 34 34 39 40 36 31 28 28 31 32 31 30 29 29 29 29 29 29 29 31 33 33 32 29 28 31 33 34 34
52 56 66 72 74 75 73 70 65 58 52 49 47 43 38 36 35 31 32 41 39 35 32 29 29 31 32 30 29 30 29 27 25 25 24 25 26 29 31 32 32 33 36 38
53 58 63 72 75 77 76 74 68 60 54 50 47 42 41 34 34 35 31 32 41 45 42 36 34 35 34 33 32 31 30 29 29 31 31 32 34 36 36 37 39 41 44 46
53 54 60 72 77 78 76 72 66 60 54 50 47 45 45 44 38 38 40 36 35 46 48 45 45 46 41 36 35 35 35 35 35 36 37 39 40 42 43 45 47 48 51 52
52 54 61 74 79 79 76 71 65 59 55 54 52 50 50 48 46 41 37 34 32 41 51 50 53 52 48 46 45 44 44 43 42 43 44 46 47 49 50 51 52 52 52 51
50 55 61 70 78 78 77 71 65 60 60 62 61 57 55 54 50 43 35 32 30 33 44 55 58 51 51 49 48 48 48 49 51 51 51 51 53 54 52 52 52 50 49 48
48 52 56 64 71 77 75 72 73 72 72 72 70 64 61 58 51 46 40 35 32 29 38 47 47 48 52 52 52 52 53 54 54 53 52 52 53 52 51 49 44 43 42 40
45 47 51 55 63 72 77 77 79 79 77 77 75 70 64 58 51 48 44 41 36 41 43 38 35 35 37 41 43 45 45 46 46 45 43 42 41 39 38 37 36 36 38 40
42 44 54 59 65 73 78 81 83 84 81 79 75 72 66 61 55 55 51 47 49 50 42 36 34 33 32 32 33 33 33 34 34 33 32 32 33 35 36 38 40 42 44 47
36 46 58 65 68 73 78 82 86 87 85 83 81 78 73 69 64 61 58 57 55 50 45 43 41 40 40 40 40 38 38 38 37 37 38 38 40 42 43 45 46 49 51 54

GFSNW_250_spd_030.txt.gz
Wind_Speed
28 25 26 31 35 36 44 50 51 48 42 40 47 52 56 53 36 34 31 25 26 31 41 39 44 36 21 15 11 16 22 38 32 26 20 15 17 26 39 48 47 48 53 66
22 17 19 24 28 30 34 41 42 38 36 38 46 52 55 39 35 33 22 24 23 30 29 29 28 24 17 21 31 36 44 46 37 37 42 32 36 34 35 45 56 56 58 68
15 10 17 22 24 24 31 38 37 33 35 41 48 53 41 40 35 24 23 18 21 20 19 13 18 19 23 41 40 45 40 45 41 45 50 44 35 38 38 43 52 58 64 73
12 7 13 19 23 28 32 33 34 37 41 48 51 45 44 37 26 22 15 17 12 15 10 8 14 18 31 44 47 40 30 42 43 46 48 41 42 47 46 41 51 57 64 70
8 7 14 18 22 28 33 35 42 47 50 48 49 48 39 30 26 18 16 12 10 9 11 13 13 21 39 48 46 32 35 46 36 42 47 37 32 36 26 25 49 57 63 66
5 7 12 18 25 31 39 46 52 51 52 56 53 44 36 31 23 17 18 13 9 8 9 10 4 15 32 47 49 36 24 38 34 35 28 44 42 39 44 22 47 58 64 66
5 8 12 19 26 34 44 52 54 56 60 55 50 42 35 28 22 19 17 13 5 14 12 7 14 12 16 42 42 36 28 38 37 37 33 34 40 39 47 45 59 63 67 66
7 9 15 22 29 38 45 52 59 62 58 52 46 40 35 28 24 22 17 11 9 13 8 8 3 9 10 33 30 38 30 31 38 37 37 29 30 32 44 53 61 58 55 59
10 13 17 22 30 42 51 63 64 61 55 50 44 39 35 28 25 25 19 14 16 13 9 5 4 7 12 11 21 21 23 22 22 18 20 19 24 31 47 49 54 52 57 57
14 18 19 23 35 45 57 65 64 60 56 49 44 39 34 29 28 30 24 18 17 16 15 14 10 9 10 10 9 11 14 14 15 13 10 18 19 33 41 41 46 52 53 51
17 21 24 29 41 54 64 66 63 59 54 50 44 39 36 31 29 29 28 22 17 18 16 14 17 17 16 15 15 15 15 15 14 10 13 18 24 33 35 43 48 51 50 49
22 25 29 39 51 59 66 67 64 58 54 49 42 38 37 33 29 30 31 29 23 20 19 18 16 15 17 16 17 17 16 17 17 17 20 23 27 35 38 44 46 47 47 48
25 28 35 46 55 63 68 67 63 59 54 47 41 35 36 32 28 26 28 30 28 24 19 18 16 15 14 15 18 20 19 17 16 16 19 25 30 38 43 45 47 46 46 47
26 31 39 47 57 66 67 67 62 57 52 46 41 38 38 36 29 26 27 29 29 27 24 20 17 15 16 16 18 19 20 19 20 20 21 26 31 39 44 46 47 47 47 47
29 33 44 52 63 68 69 66 60 56 50 45 43 38 37 37 31 28 25 24 23 26 24 23 21 17 15 15 16 18 18 19 18 18 20 24 31 40 45 47 48 49 49 50
30 36 46 57 65 69 67 64 61 55 51 46 45 38 38 36 34 32 28 23 19 17 22 26 24 23 22 19 17 18 18 18 18 19 19 22 24 28 34 40 44 47 49 51
34 40 46 59 66 68 69 65 62 57 51 47 45 40 39 37 36 34 32 26 20 18 23 28 27 27 27 25 22 21 18 16 15 16 18 18 19 23 27 31 34 36 38 39
34 41 47 60 67 70 71 67 62 57 54 49 45 41 38 40 38 37 34 30 26 24 21 21 25 30 30 28 25 24 23 21 21 20 19 19 19 21 23 25 27 28 30 32
37 44 49 61 71 75 73 68 62 57 51 48 46 41 35 35 37 38 37 32 29 28 25 21 20 24 29 30 29 28 27 27 25 24 24 24 25 26 26 27 26 25 26 28
38 46 50 63 75 77 73 70 65 56 50 46 44 42 39 34 33 33 34 39 35 32 29 29 28 27 27 25 23 27 25 24 24 25 26 25 23 22 21 24 27 28 30 33
40 44 51 68 74 77 76 72 66 59 53 49 45 45 44 40 37 35 33 35 41 41 38 36 33 31 30 29 27 28 26 26 27 27 27 27 28 27 29 31 33 35 38 42
40 44 53 65 69 75 75 70 65 60 56 54 52 49 47 47 44 40 36 33 33 36 42 45 42 38 37 34 34 32 32 32 31 31 32 33 33 35 37 39 40 43 46 49
40 47 53 60 62 69 72 69 64 59 58 62 61 56 52 51 49 46 41 32 31 35 37 37 35 45 49 46 43 40 39 38 38 39 40 41 43 45 46 46 49 51 52 53
39 45 50 54 55 64 72 72 75 74 72 71 68 64 60 56 53 48 43 41 39 37 39 35 31 31 39 52 51 50 49 49 48 48 48 48 49 49 52 53 56 56 55 53
36 40 45 50 55 67 76 78 78 79 77 76 74 69 65 60 54 47 45 45 44 48 45 37 32 29 29 35 44 50 51 51 51 51 52 53 54 54 52 50 48 44 39 37
29 34 44 51 55 67 77 81 82 83 82 79 75 71 68 62 56 54 51 47 50 53 46 38 33 30 28 25 27 32 36 38 39 39 39 38 37 35 34 32 32 32 34 36
24 33 46 54 58 68 77 82 84 85 84 81 79 76 73 68 63 60 55 57 55 49 46 42 39 37 35 33 32 31 31 32 32 32 32 33 33 34 34 35 37 38 40 43

GFSNW_250_spd_033.txt.gz
Wind_Speed
48 37 27 23 22 29 37 38 45 48 61 56 60 63 73 71 67 60 52 47 42 44 45 32 30 38 43 40 49 45 42 33 16 23 20 13 8 8 11 18 25 43 54 68
43 30 22 16 17 23 32 36 39 38 51 53 56 65 73 71 67 59 52 44 41 38 27 24 32 40 38 34 29 24 15 8 23 28 31 25 21 13 6 3 12 33 62 68
37 22 13 9 13 20 30 33 34 39 40 42 37 44 58 66 61 54 46 41 34 24 16 23 34 35 28 23 19 18 25 31 26 30 27 30 27 25 15 12 17 35 53 60
31 15 8 5 13 22 27 30 29 30 30 33 36 43 46 53 52 42 38 34 25 18 13 28 23 21 26 22 20 28 34 35 31 40 40 38 24 31 28 29 28 34 41 45
26 11 6 6 17 25 27 27 31 35 42 43 42 44 41 41 42 41 38 29 18 18 24 18 6 23 22 28 29 36 34 26 32 43 36 32 29 22 18 28 29 19 30 35
22 9 5 6 13 23 31 37 39 36 33 33 37 40 44 46 46 41 32 22 22 15 20 15 13 30 23 14 23 35 23 33 31 38 35 32 27 11 17 17 15 22 24 37
19 6 3 5 14 21 25 26 29 32 36 40 40 46 51 49 43 35 27 24 18 16 18 17 20 32 28 18 13 34 30 35 22 38 37 31 32 15 17 26 16 19 21 37
20 10 2 4 11 15 20 26 32 38 41 45 54 55 51 43 36 31 27 23 17 25 27 22 15 34 24 23 11 29 25 38 37 29 37 33 34 28 13 23 26 13 29 37
17 8 4 6 10 19 23 30 39 44 51 57 57 52 45 39 33 30 27 21 21 22 25 21 12 18 10 25 20 21 22 25 22 7 13 30 32 25 17 26 31 24 39 44
14 7 5 9 14 20 26 38 46 56 60 56 52 47 41 34 30 30 26 21 20 20 22 20 14 15 7 27 13 16 14 6 8 3 7 4 8 16 17 22 27 32 36 41
13 6 9 13 18 27 36 44 55 61 60 55 49 44 39 34 31 28 24 19 19 19 19 16 15 14 8 7 9 6 6 5 6 7 12 7 5 8 2 12 26 34 37 42
12 8 12 19 26 37 46 54 60 61 58 53 49 43 39 34 31 25 23 19 14 15 18 17 13 12 10 11 10 11 12 12 10 11 12 11 7 7 10 11 21 32 34 40
11 11 15 22 34 44 52 60 62 60 57 51 47 43 39 38 33 29 25 23 20 15 12 12 10 5 7 10 11 12 13 11 9 10 13 14 14 13 12 16 18 28 34 39
11 13 18 28 42 50 59 63 62 60 57 51 49 44 40 39 34 29 26 23 21 19 17 16 13 9 9 11 14 16 14 11 12 14 13 14 17 18 17 20 25 31 36 41
11 16 22 36 51 52 62 63 60 57 54 49 45 41 36 36 32 30 28 29 25 22 18 17 16 15 13 13 14 14 14 16 15 14 15 16 17 19 22 22 24 30 37 41
12 17 25 39 51 56 63 66 60 57 51 46 43 39 36 34 31 30 31 31 29 22 18 19 17 14 11 10 11 12 13 13 13 14 16 17 18 19 20 26 29 32 37 40
15 21 31 43 52 63 68 67 61 56 51 48 44 39 36 36 31 26 30 29 29 27 23 22 21 20 19 17 15 12 12 10 13 12 13 14 15 17 22 27 31 34 38 40
16 24 34 47 58 67 69 66 62 58 53 49 43 38 36 35 34 31 27 25 25 23 23 22 22 23 25 22 17 13 11 11 11 10 10 11 12 14 17 20 24 29 34 37
19 27 37 49 60 70 71 67 64 58 53 49 45 39 36 35 36 35 32 28 23 22 22 19 20 21 21 21 21 20 17 16 17 17 16 14 14 14 14 13 13 15 17 20
18 29 36 51 62 69 71 70 66 60 55 51 45 42 38 35 35 36 36 31 29 26 23 21 20 18 16 15 16 20 23 24 21 21 20 17 15 14 14 15 16 16 16 19
16 29 34 49 57 70 74 70 66 59 53 48 46 45 42 39 36 36 37 36 34 32 29 25 23 20 16 15 14 15 14 15 19 21 17 17 16 16 18 18 20 22 25 29
19 28 37 48 54 64 70 70 65 59 55 51 49 46 46 44 40 37 34 37 39 36 33 31 28 25 25 23 23 23 21 20 21 20 22 24 25 25 26 28 29 30 33 35
18 25 38 44 49 54 67 70 65 62 64 63 60 54 51 50 47 41 37 34 34 38 42 39 34 34 34 32 30 29 30 31 30 30 30 30 32 32 32 33 34 38 42 43
18 24 34 43 42 54 68 74 77 76 71 70 66 60 56 54 51 47 42 38 36 37 37 36 37 42 42 41 39 38 38 39 40 39 38 37 37 38 38 41 43 46 48 51
15 20 28 35 42 57 73 78 81 79 76 73 71 66 61 57 52 48 44 43 43 43 38 37 36 34 33 33 33 34 37 45 54 51 48 47 46 47 48 49 51 53 54 57
10 14 20 35 44 55 72 81 85 84 80 77 73 69 64 61 56 52 49 48 51 50 44 39 34 31 29 28 27 27 27 31 37 47 55 53 52 53 54 55 55 51 42 37
9 14 22 37 45 52 65 79 84 85 83 81 78 74 70 67 63 60 58 57 56 49 45 42 38 36 35 34 33 32 31 31 28 29 36 42 46 43 39 36 35 35 37 38

GFSNW_250_spd_036.txt.gz
Wind_Speed
74 61 50 38 21 14 16 23 33 39 46 51 57 67 64 62 59 55 53 48 43 42 38 42 44 46 49 45 39 46 48 45 40 48 50 27 17 21 27 31 31 30 29 45
70 56 43 33 17 12 15 22 30 35 43 46 52 59 67 65 59 56 48 44 42 40 40 43 43 45 38 38 39 33 27 21 21 12 11 18 19 22 16 11 14 20 31 41
66 51 38 29 12 9 12 19 25 29 33 36 41 51 65 65 62 56 50 46 45 42 42 40 44 35 32 36 25 23 25 14 5 9 9 20 32 27 23 11 4 7 11 28
62 47 32 24 9 10 14 18 23 27 30 31 34 41 51 61 57 54 48 47 45 42 42 41 35 26 34 21 22 23 16 9 13 25 26 27 32 29 24 24 17 9 11 20
58 42 28 20 7 7 16 19 21 26 29 30 33 39 47 55 57 56 52 49 44 43 41 33 27 28 24 21 20 20 17 19 17 19 21 17 26 27 29 27 18 11 7 10
53 38 26 15 6 5 12 17 22 26 25 27 29 33 37 42 51 57 55 49 43 42 32 32 26 25 22 25 24 19 27 24 18 15 16 25 16 20 26 26 29 17 13 19
50 35 23 11 3 7 13 20 26 28 30 32 36 34 38 44 51 53 52 48 44 36 31 24 21 23 19 24 24 24 27 25 21 15 17 16 14 14 20 18 17 15 16 15
47 32 18 7 1 3 12 20 27 29 28 26 29 34 35 35 39 43 46 44 38 33 26 23 23 25 18 26 21 22 28 28 24 19 19 16 8 13 15 21 15 13 16 14
42 31 17 6 2 7 14 18 23 26 30 31 32 34 37 42 46 46 46 37 32 26 32 32 30 26 14 7 11 21 27 25 24 11 16 11 11 12 13 13 7 6 11 9
38 26 13 3 3 9 15 23 28 32 34 36 40 44 47 49 49 42 37 33 25 31 39 37 32 22 15 15 8 19 26 21 8 4 14 14 6 9 10 11 4 5 3 4
36 22 7 4 9 14 20 26 33 37 40 44 50 54 52 48 43 39 34 28 33 36 36 34 28 20 11 8 14 6 21 20 9 2 10 13 13 11 12 16 14 14 7 9
32 21 7 6 11 16 22 32 39 47 50 54 52 51 49 43 40 36 32 33 31 32 36 31 26 22 17 14 14 11 12 9 7 8 9 11 9 14 9 13 13 12 10 14
27 17 7 8 16 20 28 41 50 52 54 52 51 47 43 41 39 36 32 31 30 29 28 28 25 19 16 13 8 9 8 7 7 7 8 11 10 10 12 10 7 6 9 14
23 13 10 12 20 25 37 50 53 54 54 53 48 44 41 39 36 34 32 29 26 24 23 22 19 16 10 7 11 12 10 8 8 9 11 11 12 8 8 7 7 6 8 16
19 13 13 16 25 33 45 51 54 55 55 50 47 43 38 35 36 33 28 25 23 21 19 19 18 14 12 8 7 6 9 10 9 10 10 12 12 13 12 10 8 7 9 12
16 13 14 17 27 40 52 57 55 54 53 50 46 41 38 34 32 31 29 25 20 18 17 17 15 12 6 4 5 9 10 9 9 9 10 11 12 12 15 14 12 12 12 13
14 13 17 22 32 45 57 57 55 53 52 49 44 39 39 34 30 26 23 24 24 20 13 9 7 5 9 11 10 11 11 9 7 6 7 8 10 11 12 15 17 18 18 19
14 13 20 26 35 45 55 56 57 53 49 45 38 37 35 36 33 30 25 23 23 21 19 15 12 10 12 13 9 6 5 6 6 8 9 8 8 10 11 13 16 20 23 23
12 15 22 27 32 42 58 56 58 54 50 44 36 35 34 34 34 32 31 27 25 24 23 20 18 18 16 13 13 12 8 6 7 8 7 7 7 8 8 8 9 10 9 10
10 14 22 28 34 44 58 58 60 55 52 47 41 38 36 35 34 32 30 30 29 28 26 23 22 21 17 13 15 19 16 17 13 14 14 13 11 11 10 9 9 10 10 11
11 11 24 30 34 39 58 61 57 56 53 50 46 42 40 37 36 34 33 30 29 27 26 23 20 18 17 19 18 18 19 14 11 11 16 17 16 15 13 13 14 16 19 21
12 12 23 28 32 36 45 63 60 59 57 55 52 49 45 41 38 36 35 33 32 30 28 25 23 24 21 21 20 17 15 14 14 11 11 13 18 18 18 20 21 23 24 26
15 11 18 27 28 29 45 65 67 67 66 64 60 55 50 46 40 37 35 35 35 34 34 30 28 28 26 26 24 21 19 19 18 17 18 19 21 23 24 25 27 30 33 34
16 14 15 22 27 29 49 69 76 74 69 66 62 58 52 48 46 41 37 35 36 39 39 36 35 35 33 30 28 27 26 25 25 25 27 28 30 32 34 35 35 36 38 40
16 16 16 19 31 36 51 70 76 75 73 70 65 61 57 54 48 46 44 41 37 38 36 36 36 38 38 37 36 35 34 33 32 33 36 39 41 45 46 45 45 45 45 46
18 17 17 24 35 42 50 63 72 77 77 75 70 66 63 60 56 53 50 49 50 44 40 37 35 34 33 32 33 32 31 32 33 34 35 37 38 40 44 47 51 51 51 51
18 17 17 29 37 43 48 56 62 69 78 80 77 72 70 65 61 59 57 59 59 52 46 42 40 37 36 37 38 37 36 36 35 35 35 34 32 32 31 33 38 43 48 49

GFSNW_250_spd_039.txt.gz
Wind_Speed
88 76 67 53 39 32 18 9 17 29 33 33 40 48 61 61 58 56 54 52 47 40 37 34 35 35 32 37 37 37 40 49 47 47 38 36 36 39 44 46 45 38 42 43
84 73 62 47 37 30 14 6 16 26 32 35 39 50 63 61 57 56 54 50 46 42 40 40 38 37 36 39 36 37 42 39 33 27 27 31 27 29 38 37 42 39 38 36
80 70 57 41 32 23 12 4 14 22 27 33 39 48 62 60 54 52 49 47 46 43 42 40 40 37 36 37 36 37 36 24 14 17 10 17 25 29 37 46 26 17 29 27
77 66 52 36 29 20 12 7 17 23 25 32 38 47 60 64 57 54 49 46 44 42 40 41 37 35 34 36 34 31 23 10 13 7 6 9 24 34 39 46 43 26 9 11
74 62 49 32 25 15 7 5 16 22 24 28 32 41 51 59 54 52 49 46 41 40 40 36 34 32 35 33 29 23 8 21 20 11 9 16 20 33 32 38 38 35 34 27
71 60 47 30 23 10 4 9 16 22 27 28 32 33 39 54 56 51 49 46 44 42 36 37 36 33 34 29 26 14 21 23 7 6 12 11 20 26 30 34 37 34 30 27
67 56 43 29 20 8 0 10 19 23 26 28 28 33 40 45 55 51 50 48 46 41 38 38 35 31 31 24 18 14 23 18 10 8 6 5 17 22 26 31 35 32 29 25
64 53 38 24 14 7 2 8 17 22 26 27 30 33 38 47 54 57 54 49 46 42 39 35 31 30 27 20 16 23 18 20 12 9 5 10 7 15 24 26 29 31 28 27
60 50 35 20 12 5 2 8 15 21 25 27 31 33 38 44 51 56 56 52 48 43 37 30 30 29 21 23 19 24 28 21 12 11 4 1 8 10 11 21 24 26 23 26
57 46 33 18 10 4 4 8 15 21 25 28 30 31 33 38 43 48 54 54 49 43 35 33 32 24 27 25 22 27 24 22 17 12 7 5 3 1 4 10 20 21 21 16
53 44 31 17 10 5 5 10 16 20 24 28 29 32 33 34 37 40 43 44 42 37 36 33 34 31 24 17 17 17 24 30 21 12 10 9 15 11 11 8 11 16 11 12
51 40 30 16 10 5 9 14 19 22 25 29 32 34 33 32 33 35 37 40 43 39 34 38 35 33 30 25 17 9 21 27 18 11 9 9 13 15 11 8 11 16 10 2
48 37 25 13 10 11 12 16 20 25 30 34 37 37 37 40 43 42 39 36 31 33 39 44 38 36 30 23 21 20 20 20 18 17 13 11 13 13 13 8 6 12 14 7
44 33 23 12 10 11 14 16 22 28 34 39 40 42 47 43 40 36 32 29 27 31 42 43 41 38 30 22 19 14 14 17 19 18 15 15 12 11 13 11 9 13 15 12
40 29 20 12 10 13 15 18 26 33 38 42 47 48 44 41 38 33 29 28 26 37 43 40 36 30 25 19 15 14 13 16 17 15 14 14 12 11 11 10 12 13 13 12
35 26 17 11 11 14 18 22 33 37 41 46 48 45 44 42 37 32 30 30 32 33 34 31 29 23 18 17 10 7 11 14 15 13 12 10 11 10 11 9 8 11 12 12
32 24 14 12 15 20 26 32 39 41 42 45 45 42 44 42 37 33 30 33 33 30 27 24 22 20 19 15 12 9 9 9 8 8 9 10 11 11 13 13 12 10 11 15
27 21 13 13 18 20 26 37 42 42 44 45 42 39 37 39 36 35 34 31 27 26 25 23 19 16 13 10 10 10 8 5 5 6 6 8 9 12 14 16 17 17 17 17
26 17 11 13 17 18 30 37 42 44 45 44 40 37 34 36 34 33 31 29 26 24 23 22 20 16 11 10 8 9 9 7 6 5 6 6 9 11 12 14 15 16 15 15
23 16 9 12 17 20 29 37 40 45 47 44 39 36 35 33 31 29 28 27 26 27 26 24 22 18 15 14 12 12 11 9 6 7 7 6 6 5 7 10 10 10 10 11
21 15 10 11 14 20 26 37 42 44 48 46 42 40 37 37 34 32 29 27 27 27 26 24 22 21 21 21 18 17 16 17 16 17 15 14 14 14 14 14 14 15 17 18
20 15 10 10 16 22 28 41 49 50 49 49 45 43 42 38 37 36 35 33 32 30 29 28 27 26 25 24 22 20 19 18 18 18 16 14 17 19 19 21 20 20 20 21
20 15 11 10 14 19 26 50 58 56 51 52 51 48 44 41 38 36 37 37 36 34 33 32 30 29 29 28 26 23 23 23 22 20 17 14 14 15 15 17 20 22 24 26
19 14 10 11 17 24 31 50 57 54 54 52 54 52 48 44 41 39 36 34 36 36 34 32 32 30 28 26 25 25 24 23 23 21 18 18 18 20 22 23 26 28 31 34
23 15 10 10 23 32 37 46 50 55 55 55 53 54 53 49 45 42 40 40 39 39 38 37 36 35 33 31 30 28 26 25 24 24 24 25 26 27 29 32 35 36 38 42
23 20 14 10 21 32 43 47 48 51 56 57 55 55 56 57 52 50 47 46 46 43 42 42 42 41 40 39 37 35 34 33 32 32 32 33 35 37 38 36 36 37 38 37
18 21 19 14 15 26 39 47 49 50 54 60 61 60 58 56 56 56 54 56 53 47 44 41 40 43 42 42 42 42 40 39 38 36 36 36 36 36 37 36 35 35 35 32

GFSNW_250_spd_042.txt.gz
Wind_Speed
89 80 71 63 50 39 30 22 9 6 16 26 34 43 59 62 59 52 52 51 47 39 29 25 25 26 29 31 32 33 32 36 36 36 41 48 53 57 56 52 54 53 49 43
84 76 67 59 46 35 27 19 6 8 17 25 34 45 58 62 55 47 50 50 46 41 34 29 27 26 25 27 27 28 26 31 34 37 46 47 48 42 40 46 38 41 39 41
80 71 63 54 43 32 23 14 3 14 20 28 37 46 58 56 50 45 48 48 46 42 37 33 30 26 26 27 25 24 25 29 35 41 41 33 22 18 27 38 36 34 24 20
76 68 60 51 40 28 19 11 1 14 24 32 37 45 57 57 51 46 47 50 47 43 39 35 31 28 29 26 22 23 25 29 33 33 13 20 23 15 26 34 33 32 24 12
73 65 57 48 37 27 18 8 1 15 22 34 42 48 58 57 53 46 44 45 44 42 40 36 31 31 29 24 24 24 24 26 23 14 18 16 12 19 22 30 35 32 29 15
71 62 56 46 34 24 15 5 6 16 23 33 42 49 59 58 50 45 42 44 45 44 39 35 32 30 29 25 23 23 23 18 12 7 8 3 12 18 23 31 36 31 30 26
69 60 52 44 33 22 12 5 7 12 21 29 35 42 49 56 53 46 45 45 44 41 39 36 34 31 30 22 22 22 17 8 11 8 3 8 13 20 22 30 36 32 28 28
66 59 50 41 29 22 12 3 11 17 22 28 31 34 39 51 55 50 47 45 44 43 39 38 35 31 26 21 22 17 15 14 12 8 3 7 12 20 23 26 31 32 30 28
62 57 49 39 27 19 12 5 7 17 24 30 35 39 43 52 59 57 52 51 48 45 42 38 33 29 25 21 19 16 20 19 18 13 8 7 11 14 18 26 25 28 31 32
57 55 47 37 25 17 9 4 6 17 24 34 38 42 47 53 59 59 54 52 48 44 41 36 32 29 25 20 20 22 22 24 19 17 10 10 11 11 9 20 16 20 24 24
56 51 43 35 23 17 9 3 5 10 16 25 31 37 41 47 53 58 55 51 48 45 42 36 31 27 22 19 25 28 24 28 23 15 12 12 10 14 11 13 13 13 17 17
52 48 41 33 22 15 10 3 6 11 16 20 26 30 35 41 47 52 55 53 50 46 41 36 31 25 20 30 29 31 29 32 26 24 18 15 13 15 18 8 7 10 10 10
47 45 38 29 21 13 7 4 7 13 17 20 25 27 29 31 35 41 47 49 47 44 39 34 29 29 28 29 32 27 28 26 26 28 25 17 20 18 15 12 4 5 7 4
46 42 35 27 19 12 7 5 8 13 16 20 26 28 29 30 32 33 37 42 43 40 34 30 29 32 35 32 29 24 21 21 19 26 24 21 22 18 13 13 6 3 6 10
43 39 33 24 16 8 5 9 11 15 20 23 26 30 32 33 34 35 33 33 33 35 35 31 38 43 37 31 29 23 21 18 22 28 24 23 20 15 11 11 7 10 7 10
40 35 31 21 13 7 9 12 13 17 22 26 32 34 36 36 36 33 31 31 30 31 31 35 44 45 41 37 31 23 20 19 23 20 17 18 18 14 12 9 8 9 13 14
36 32 27 17 10 8 10 14 16 20 26 32 34 38 37 34 32 30 30 27 26 28 33 41 45 45 41 34 25 17 18 17 17 17 16 16 16 15 13 12 10 9 9 10
34 28 23 14 7 6 8 17 20 23 30 35 40 38 35 34 32 30 26 22 26 37 45 46 43 41 33 28 21 21 18 17 15 13 14 15 16 16 16 14 14 13 11 10
31 26 19 10 5 6 11 18 22 26 33 39 42 39 37 35 33 30 30 28 30 34 35 36 35 29 23 24 24 19 19 17 13 10 8 10 13 13 14 14 17 16 15 15
28 23 16 10 4 8 12 16 24 28 35 41 41 37 39 37 36 34 32 33 34 34 33 31 29 28 28 23 19 17 18 15 12 10 11 10 11 10 10 11 11 15 15 15
25 21 12 5 6 10 10 17 25 30 35 39 40 37 40 41 39 37 36 36 35 34 33 32 30 26 23 23 22 21 19 17 14 11 10 12 12 12 13 13 13 16 17 19
22 19 13 6 9 12 14 19 26 30 35 39 41 39 38 40 39 38 37 38 38 36 35 33 31 28 26 26 25 23 23 22 22 18 16 16 18 18 18 17 16 19 19 21
21 20 14 7 11 17 20 24 25 30 34 38 43 41 39 39 38 36 36 34 33 34 35 36 34 32 29 27 25 25 25 24 23 22 21 20 21 19 19 20 19 19 21 22
20 17 14 11 13 20 26 31 27 33 36 38 42 44 42 40 39 37 36 36 35 34 34 34 34 32 30 29 29 29 29 28 28 28 26 26 26 26 23 23 22 20 20 21
22 16 15 12 15 21 28 33 31 33 36 38 43 43 47 45 45 43 43 41 40 39 38 37 36 35 34 34 33 32 31 30 31 31 29 29 28 26 25 25 25 25 25 28
24 20 15 14 14 17 23 27 31 35 37 38 41 47 47 50 50 50 49 47 48 46 43 41 39 38 37 37 36 34 33 33 32 32 31 31 31 31 31 31 31 32 34 34
23 23 21 15 14 16 19 21 24 31 37 42 44 44 50 52 53 56 55 54 49 45 44 45 45 44 44 43 42 41 40 38 37 37 37 36 36 37 38 39 38 35 33 34

GFSNW_250_spd_045.txt.gz
Wind_Speed
89 85 81 74 65 49 39 30 18 7 9 17 28 37 45 55 54 48 43 42 47 45 41 36 33 31 30 31 31 33 34 35 35 26 29 33 40 39 43 49 56 61 65 51
85 82 77 69 59 45 35 26 13 2 13 24 30 39 48 54 51 47 41 41 45 44 39 30 26 25 26 28 28 29 30 28 24 21 22 29 35 39 46 49 47 45 50 42
82 78 74 66 54 41 32 21 13 5 17 25 34 42 49 52 49 45 40 41 42 42 38 28 24 24 25 25 26 25 20 18 17 19 24 31 35 39 33 29 25 27 45 40
79 76 70 62 51 38 29 19 10 8 21 28 33 39 47 52 48 46 42 41 42 43 37 28 25 24 24 23 20 17 16 15 18 20 25 30 27 20 10 23 30 34 33 32
76 74 67 60 48 36 25 18 8 7 18 26 29 34 44 45 45 40 38 39 40 41 38 32 27 26 24 20 18 16 15 14 18 23 23 16 9 4 10 25 32 39 19 27
73 70 65 56 45 34 26 18 6 10 15 26 32 38 49 48 44 40 38 41 43 42 38 33 30 27 23 21 18 15 13 18 21 21 10 2 4 8 18 25 32 30 19 21
70 66 61 53 42 32 24 15 8 6 15 23 31 40 51 49 46 44 42 44 43 40 37 34 31 27 24 20 17 14 19 19 17 11 6 2 7 13 19 22 26 24 19 22
68 63 57 48 39 32 20 12 7 4 16 24 28 36 48 51 50 47 41 42 45 41 37 34 30 28 23 18 17 20 19 17 12 13 11 4 7 16 20 19 25 19 14 18
67 62 56 48 37 29 22 11 4 6 16 23 29 36 50 54 53 48 44 43 44 41 39 36 33 29 23 20 22 20 18 17 16 17 11 3 9 15 16 16 21 19 21 13
67 64 57 48 36 26 20 12 2 9 16 27 31 37 46 50 51 50 46 44 44 42 39 37 34 29 25 24 23 20 18 19 18 16 14 12 10 14 18 17 16 12 17 12
60 60 53 48 35 25 18 10 4 8 16 27 34 38 43 52 55 53 50 48 46 45 42 38 34 30 26 25 22 19 16 22 20 17 17 14 8 11 18 18 18 4 16 6
55 54 50 44 34 23 16 10 6 9 16 20 32 36 41 46 52 54 54 51 50 48 44 40 35 32 27 23 22 19 24 25 24 18 14 14 13 12 18 20 16 7 9 8
54 51 46 40 30 22 13 8 7 13 16 21 26 30 35 39 44 50 56 53 51 49 45 40 37 32 26 25 24 22 30 29 26 25 22 21 20 15 17 20 16 8 4 1
52 47 44 37 28 19 12 9 8 10 13 17 23 25 29 33 38 44 51 52 48 49 45 40 37 31 25 24 23 26 31 30 26 25 24 21 21 19 16 16 12 4 7 8
48 46 40 33 25 17 12 9 7 9 12 16 20 23 24 26 31 35 43 51 49 47 43 40 35 28 25 25 25 28 30 26 22 19 21 22 17 18 15 15 11 6 7 5
45 43 38 30 22 15 11 8 8 10 13 18 21 23 25 27 28 31 35 46 50 47 43 35 32 28 28 28 33 31 28 20 15 17 25 20 16 17 15 14 10 7 10 9
41 38 34 26 18 11 8 6 10 12 15 19 23 26 28 29 28 28 30 35 38 39 36 34 34 31 33 32 33 30 23 17 18 23 21 21 18 16 14 14 12 9 5 5
39 34 30 22 15 10 8 9 12 14 18 23 27 27 27 28 28 28 29 29 30 33 35 37 33 36 38 34 32 31 23 21 23 22 20 20 17 17 15 15 13 14 12 12
36 31 26 19 13 9 9 10 14 17 21 28 29 31 32 30 27 26 25 24 24 27 33 39 38 40 39 37 37 31 28 27 24 21 19 15 15 16 17 16 15 14 14 15
32 29 23 18 11 9 9 10 16 21 23 31 33 33 32 29 27 26 25 24 22 23 28 33 39 41 42 42 39 34 31 29 24 20 16 13 14 15 16 15 13 12 14 16
28 27 22 16 11 9 11 12 18 23 27 32 37 34 33 31 30 29 27 27 29 31 33 37 43 45 41 40 40 35 29 25 25 22 17 16 15 17 15 14 13 14 15 17
23 23 22 16 12 10 12 13 19 24 29 34 40 37 35 33 32 32 30 30 31 33 34 37 36 36 36 36 32 29 29 30 26 22 19 18 16 17 17 17 17 18 18 18
22 19 20 16 11 11 16 18 21 23 29 34 40 39 37 37 36 36 35 34 33 34 36 37 37 37 36 35 33 34 32 29 29 27 24 23 22 20 20 22 22 22 21 22
22 18 16 16 13 13 17 19 25 30 31 36 40 42 39 41 42 41 41 39 40 38 39 39 39 40 39 35 34 32 32 33 33 32 31 31 28 27 26 26 27 27 26 26
21 20 16 14 14 13 15 16 19 33 37 37 40 44 45 43 46 47 45 45 44 44 44 43 41 40 39 38 36 34 33 33 32 31 31 33 32 30 30 30 31 31 31 29
20 21 19 15 14 13 13 14 16 21 37 43 44 44 47 48 47 47 49 49 48 45 44 44 43 42 41 41 39 36 35 34 34 35 34 34 35 33 33 33 32 33 32 31
21 21 21 19 16 14 14 14 16 21 22 35 49 50 50 52 53 53 52 53 51 47 45 44 43 42 42 42 41 41 41 41 40 38 37 35 35 36 37 37 37 38 38 38

GFSNW_250_spd_048.txt.gz
Wind_Speed
90 89 85 80 70 63 56 43 35 20 7 9 15 25 30 36 45 42 35 31 30 33 37 37 35 33 32 31 30 33 35 39 43 43 44 43 41 42 39 35 35 41 43 43
87 86 83 77 67 60 51 40 32 19 6 12 21 30 35 41 42 40 33 27 27 34 35 32 31 30 29 29 28 30 33 35 33 26 23 21 22 22 23 26 33 44 47 50
85 83 81 74 65 57 46 35 28 17 3 12 23 34 40 46 42 37 30 27 26 31 32 29 28 26 25 25 26 26 25 22 17 16 16 19 18 18 24 29 34 24 39 35
83 81 78 71 62 54 43 31 24 15 1 12 24 34 39 47 43 38 32 28 28 33 31 27 24 21 21 23 24 23 21 17 18 16 14 16 17 22 26 16 14 15 31 29
80 80 77 69 61 52 41 29 23 15 1 8 19 27 37 40 38 35 30 27 29 32 32 27 20 18 19 20 22 22 21 19 15 13 15 14 20 15 11 8 13 22 27 27
75 76 75 67 57 48 37 27 20 12 2 9 12 14 31 40 38 35 31 27 31 32 32 28 21 20 21 23 22 20 17 13 13 10 11 13 11 11 10 10 17 22 23 10
72 70 70 64 53 46 34 26 17 11 3 11 20 27 35 40 39 36 33 29 32 34 33 28 24 23 22 20 18 16 14 13 7 10 12 17 8 7 4 11 18 16 16 19
72 67 64 59 51 45 33 23 16 8 4 12 23 33 43 46 44 39 34 34 36 37 36 32 27 24 21 19 16 14 12 8 9 12 17 16 4 7 6 12 17 15 20 12
70 68 63 56 50 43 34 23 16 9 6 14 22 37 44 46 43 40 37 37 40 39 38 35 30 26 22 19 16 13 10 11 11 14 16 13 6 7 7 13 16 16 15 10
67 66 64 58 49 43 32 22 14 10 9 14 22 31 45 50 49 45 41 41 42 42 39 36 33 28 24 19 16 12 13 13 14 18 21 17 12 5 7 10 19 17 15 8
66 65 60 57 48 42 31 21 14 9 12 13 23 27 40 51 51 49 45 43 43 42 40 36 33 29 24 21 18 16 17 15 16 21 23 20 10 7 6 12 12 20 13 9
60 60 57 52 45 40 32 18 15 12 13 17 19 27 33 40 49 51 48 45 44 43 40 36 33 30 26 23 21 19 16 15 17 21 20 19 15 12 11 12 7 16 7 6
56 55 54 48 43 37 32 21 13 13 14 14 18 25 29 40 46 47 47 45 43 42 40 35 33 30 26 24 22 21 16 18 21 25 19 17 17 12 9 10 12 11 6 9
53 52 50 46 41 36 30 20 15 12 15 18 18 20 26 29 36 43 46 47 42 40 38 37 34 32 28 26 25 23 20 21 25 25 23 22 21 15 12 12 9 9 6 8
50 50 48 43 39 34 27 18 12 13 15 16 16 18 22 25 31 36 42 46 45 42 40 40 37 33 30 28 27 24 19 23 29 23 22 18 17 16 11 11 10 8 10 10
47 47 45 40 36 32 25 15 12 13 18 20 19 21 24 25 27 32 42 46 46 45 42 41 38 34 31 30 30 21 18 23 25 20 18 16 15 13 11 11 6 7 8 10
46 43 40 36 32 27 21 13 13 15 17 18 18 18 20 21 24 27 30 39 49 46 43 42 38 35 33 33 29 24 23 21 19 17 13 16 13 13 13 11 9 8 8 9
44 39 36 32 27 22 16 12 11 14 14 16 17 20 21 21 22 25 27 31 40 48 45 40 40 37 37 37 27 25 27 23 23 16 14 15 15 16 16 13 11 11 11 11
42 37 32 28 23 17 14 12 12 15 16 19 20 20 20 22 22 23 25 28 31 36 43 41 40 39 40 31 29 30 26 27 24 19 19 18 16 15 16 15 14 13 13 14
39 36 29 25 19 15 11 8 12 17 19 20 22 23 25 25 24 23 23 24 27 32 36 40 43 42 35 34 35 32 32 30 25 21 22 19 20 17 17 18 15 14 15 14
34 32 27 22 18 12 8 9 14 19 21 23 25 28 29 29 27 27 27 26 27 28 30 33 37 37 34 36 36 31 32 31 28 28 26 24 22 19 20 18 15 15 17 15
32 26 24 19 14 11 8 10 15 21 23 26 27 31 31 29 29 28 28 26 26 28 31 35 38 38 35 37 38 36 36 34 34 30 25 27 25 23 19 18 18 16 17 17
30 24 20 18 14 10 8 12 18 24 26 28 31 33 33 31 30 29 27 25 23 25 28 30 35 37 36 41 42 42 36 35 33 30 31 30 28 23 22 21 21 21 21 21
28 23 19 16 13 11 8 8 16 25 28 32 34 37 37 35 34 33 32 29 27 28 29 28 32 34 35 35 38 38 38 36 35 33 35 35 33 30 27 25 26 27 28 26
26 22 19 17 15 12 9 8 12 21 35 36 36 41 41 40 38 37 35 35 34 34 34 33 33 35 36 37 38 39 39 35 32 35 37 38 37 34 33 32 32 32 31 29
25 21 21 17 16 15 12 8 11 18 25 41 41 42 47 45 43 42 40 40 40 38 38 38 38 38 38 38 39 40 39 38 36 35 36 38 38 36 34 33 32 33 32 33
25 21 22 20 17 15 15 13 9 14 25 30 41 45 49 50 50 48 47 46 44 42 41 41 42 42 43 43 43 45 45 43 42 40 37 36 36 36 37 36 35 36 36 36

GFSNW_250_spd_051.txt.gz
Wind_Speed
95 92 89 87 85 78 71 56 43 36 26 12 7 17 30 35 39 38 34 29 24 24 27 28 31 32 30 28 27 26 27 26 27 25 29 31 33 33 35 38 41 47 47 58
91 88 86 84 82 74 67 53 40 31 25 11 6 18 26 34 39 38 32 28 25 27 24 27 25 26 26 25 23 25 26 25 25 28 30 32 32 33 35 38 40 44 43 49
89 85 84 81 80 72 62 49 37 31 27 16 5 17 31 38 41 35 30 25 23 25 31 32 30 27 26 25 25 24 26 26 26 27 29 30 30 28 26 28 26 27 32 38
86 82 82 79 76 71 60 46 34 29 24 17 2 13 30 39 39 34 28 25 27 28 28 27 26 24 24 23 23 24 23 22 22 24 23 23 19 18 16 18 21 25 29 34
82 79 77 74 70 67 60 46 33 27 23 15 4 14 33 39 38 33 27 24 32 33 33 30 29 25 23 22 22 21 20 26 27 25 22 18 15 13 17 18 13 18 24 33
79 75 74 71 65 59 55 44 31 24 19 11 13 9 28 37 34 27 24 25 30 30 28 25 22 19 17 17 17 23 27 27 26 21 16 12 13 17 16 16 10 13 12 14
76 72 72 69 62 55 51 41 29 20 18 6 14 26 34 36 34 31 28 29 34 33 29 24 19 17 19 22 26 27 27 24 20 16 13 12 13 13 15 21 10 12 11 10
71 70 67 66 59 55 48 41 30 18 12 2 17 30 37 37 36 34 31 33 36 35 31 26 22 26 28 29 27 24 21 19 18 14 10 8 16 15 16 4 5 9 9 13
68 68 65 64 57 50 48 41 31 20 10 5 15 29 38 40 39 35 33 33 37 37 35 31 28 28 27 25 22 19 18 17 15 7 8 18 25 16 9 3 4 12 9 14
68 64 65 61 56 46 42 40 30 21 11 6 14 22 36 40 39 38 36 34 37 38 36 33 29 27 25 22 19 17 18 16 11 6 13 24 24 17 10 5 5 8 10 11
64 62 62 61 55 49 40 36 31 22 15 7 12 23 29 38 42 41 38 34 36 37 37 35 31 28 25 22 20 19 17 11 8 6 16 27 21 14 13 8 2 6 9 8
60 58 58 58 54 49 41 36 30 22 17 12 12 18 28 38 42 43 41 37 36 37 38 37 34 31 27 25 21 18 15 12 8 8 17 27 25 18 16 9 5 7 8 8
57 54 55 54 51 45 41 34 30 22 18 14 13 16 20 24 32 36 41 39 37 38 38 37 36 33 30 26 23 20 16 13 10 11 19 25 23 23 18 10 10 8 9 10
54 50 52 51 48 42 38 33 29 23 18 15 15 15 16 21 29 35 41 41 38 39 39 38 36 33 30 27 25 21 18 15 13 15 20 22 21 19 17 14 14 11 10 11
52 47 48 49 45 39 36 31 27 22 19 16 16 16 17 19 24 34 39 41 40 38 39 38 36 33 30 28 28 22 18 16 17 19 18 21 23 16 20 14 14 11 13 11
51 46 46 46 42 36 33 29 24 19 19 18 18 19 19 20 21 24 42 39 43 39 39 38 37 34 31 32 29 23 20 18 17 18 18 17 15 11 12 9 11 12 11 9
49 44 44 42 38 33 28 26 21 19 19 17 17 18 19 22 25 27 34 47 45 44 41 39 36 36 34 34 30 25 21 20 19 12 13 12 11 11 6 6 7 9 8 8
46 41 41 39 34 29 25 22 17 16 14 15 18 20 23 25 25 26 30 37 47 46 45 40 37 38 38 34 26 26 24 24 20 14 15 15 14 8 9 9 7 8 9 13
44 39 37 35 30 26 22 19 16 15 14 18 20 22 23 24 24 25 29 32 38 47 46 43 44 43 40 28 29 29 28 26 19 18 21 18 14 11 13 13 12 11 13 14
41 37 34 31 26 22 19 16 15 13 15 19 18 21 23 23 23 24 27 30 32 38 47 49 44 41 37 37 34 32 30 26 21 22 24 19 18 16 17 16 16 13 12 12
40 35 32 26 23 20 17 15 14 12 15 18 19 21 23 23 23 24 27 30 33 36 42 48 48 43 38 38 36 35 34 29 23 28 23 19 20 17 19 21 21 17 14 13
36 33 29 24 22 17 15 15 13 14 16 17 19 21 23 24 26 26 28 29 31 35 37 41 44 46 44 41 39 38 37 27 28 31 26 23 24 22 25 24 23 21 18 17
33 30 26 20 19 17 14 14 15 16 14 18 21 23 24 27 29 28 29 29 28 29 31 35 38 41 43 42 40 39 34 28 30 30 28 30 27 25 29 29 26 24 22 20
31 29 24 19 18 15 14 13 13 16 17 22 25 26 28 28 29 29 29 28 28 28 28 30 31 34 34 38 40 38 34 33 35 35 31 29 31 31 32 32 30 28 26 25
29 27 23 18 19 16 13 14 14 18 21 24 28 30 31 32 31 31 31 31 30 27 26 28 30 33 36 37 40 37 37 35 35 35 33 31 32 31 32 33 34 32 31 30
29 27 23 19 19 17 15 15 14 15 21 26 29 32 35 36 36 34 33 32 31 28 27 28 29 28 31 36 37 37 41 40 40 37 38 36 32 31 34 36 37 38 37 36
28 27 25 21 21 19 18 18 17 16 17 25 30 36 38 39 40 40 39 36 34 34 32 32 33 33 33 35 38 40 41 42 40 40 39 38 37 34 35 38 39 40 38 38

GFSNW_250_spd_057.txt.gz
Wind_Speed
105 102 96 91 85 83 78 74 70 62 49 39 34 23 17 11 22 26 29 33 37 34 30 29 29 28 27 28 29 29 32 39 45 50 51 55 63 70 70 66 61 61 65 67
101 96 90 85 79 77 74 70 65 56 44 35 30 19 10 10 22 26 26 27 24 24 25 25 27 27 27 29 30 31 33 36 43 48 49 50 53 58 60 60 66 67 68 66
95 90 86 82 75 73 69 64 61 53 45 33 26 12 8 17 23 27 27 29 27 26 25 23 21 23 25 24 25 25 28 30 33 38 44 48 49 49 52 58 57 56 57 56
88 82 80 78 73 69 64 59 56 47 38 27 19 4 6 16 23 27 30 29 26 24 24 24 24 24 24 25 25 25 24 25 27 30 34 37 40 42 45 47 48 48 43 39
82 77 74 75 69 64 59 56 51 43 33 21 10 7 9 16 20 21 21 20 22 22 24 25 25 23 23 24 26 26 27 26 25 26 26 26 27 28 31 32 33 28 30 28
78 74 70 68 65 61 57 51 47 41 30 19 7 7 13 16 18 20 22 23 24 27 27 25 25 26 25 24 26 27 27 27 27 26 26 26 28 28 27 27 30 28 25 24
75 72 68 64 61 58 54 49 44 38 29 16 10 10 12 18 19 20 23 26 28 28 26 26 26 25 25 24 24 24 24 25 24 24 25 26 26 25 25 25 24 23 23 22
71 71 65 62 58 55 52 46 41 36 28 18 15 14 16 17 21 22 25 28 31 32 30 27 25 23 22 22 22 21 23 23 23 24 25 25 25 25 24 24 23 22 17 16
70 67 63 58 56 53 49 44 40 35 28 20 16 17 20 21 22 25 28 30 33 32 29 28 26 23 21 21 21 22 23 24 24 23 26 27 26 24 22 21 22 21 17 14
68 66 61 56 53 50 47 43 36 32 28 22 18 18 23 24 24 25 27 30 30 29 28 26 24 22 22 22 23 24 24 24 25 28 29 26 22 22 23 23 20 16 17 17
67 64 59 55 51 48 45 42 35 30 28 25 20 20 22 25 28 28 27 28 29 29 28 26 23 22 22 24 25 27 26 27 27 26 22 20 19 22 25 22 18 19 18 15
64 62 58 54 51 47 44 38 35 30 26 25 23 20 21 27 32 32 32 28 28 29 30 27 23 22 25 28 29 28 27 25 24 22 17 16 17 25 26 24 23 22 18 15
62 59 55 53 50 48 45 38 32 31 26 24 24 22 22 27 30 33 33 35 29 30 33 29 25 27 30 30 29 26 24 23 22 19 15 11 14 21 21 24 25 25 23 19
60 57 53 51 50 49 48 41 33 31 29 24 23 23 24 26 29 31 33 32 33 31 34 35 31 32 32 31 28 26 23 22 21 19 14 11 13 19 24 26 25 25 23 23
58 54 50 49 48 47 47 43 34 30 29 27 22 23 23 25 30 29 30 36 33 36 36 39 39 38 35 33 30 26 25 23 21 20 19 16 17 21 26 30 31 29 27 27
55 51 48 46 46 44 44 42 35 31 29 27 23 20 22 25 29 32 30 30 40 39 38 40 44 42 40 38 33 31 25 22 21 22 18 14 14 18 23 23 25 25 22 23
54 49 46 45 45 42 41 39 34 29 29 26 22 18 20 24 29 35 38 36 36 44 42 42 42 44 44 41 36 31 29 27 23 23 20 14 13 20 19 18 21 25 21 18
51 46 44 42 43 41 38 37 31 27 27 23 19 17 20 25 29 36 43 45 44 43 48 46 42 44 46 43 35 36 31 28 27 26 21 17 15 19 21 19 21 22 19 18
47 44 42 41 42 40 38 35 28 26 23 19 16 17 19 22 27 31 38 45 48 49 50 49 44 43 44 40 34 35 34 31 31 29 24 17 14 19 23 24 23 21 18 18
45 42 39 39 41 38 36 33 25 24 22 17 14 15 18 20 23 27 32 36 41 48 49 49 45 44 44 40 38 39 40 35 33 31 24 19 18 18 22 25 23 21 20 16
43 40 37 38 37 35 34 30 25 23 20 17 15 15 17 20 22 26 30 34 37 41 45 48 47 47 47 43 41 43 40 34 32 32 26 23 22 18 21 26 26 21 20 18
40 37 37 37 35 33 31 28 23 22 19 16 15 15 17 18 20 23 26 30 34 38 37 42 49 51 50 44 43 43 40 37 35 33 29 27 24 23 22 25 27 25 23 22
38 35 36 33 32 31 29 24 21 21 19 16 16 17 18 17 18 20 23 26 30 32 35 38 44 52 51 48 45 43 41 39 39 36 32 30 30 28 25 26 30 23 24 21
35 33 33 30 30 29 26 23 21 21 19 16 15 17 18 17 16 17 19 22 25 27 29 33 39 45 52 50 47 46 43 41 40 38 36 34 36 33 28 29 31 30 28 25
34 32 30 29 28 27 25 21 21 20 21 18 15 16 18 17 16 17 18 21 22 23 25 27 31 38 45 51 50 48 46 44 43 42 41 39 37 37 34 32 34 36 34 33
32 31 28 28 26 26 23 22 22 21 21 20 17 15 17 19 19 20 21 23 21 19 22 24 26 30 36 43 50 52 51 49 46 45 45 44 41 40 39 38 38 40 38 34
31 29 27 27 26 25 22 23 23 22 22 21 18 17 16 19 21 24 26 26 24 23 22 22 21 24 29 34 38 46 52 54 55 54 52 50 49 47 42 43 42 42 42 41

GFSNW_250_spd_060.txt.gz
Wind_Speed
96 92 87 83 82 80 77 75 70 71 66 57 46 37 29 23 17 12 19 21 28 29 31 33 30 31 31 30 32 32 33 38 48 54 54 55 55 56 61 63 67 69 68 67
91 87 83 79 77 75 73 71 67 65 62 55 44 36 30 19 17 14 16 19 20 22 21 23 27 24 26 26 26 26 28 33 40 49 57 58 56 56 59 60 61 63 61 61
88 84 81 76 73 71 69 67 63 62 58 51 41 31 24 14 12 16 18 18 20 20 21 23 23 25 25 24 25 24 24 30 37 45 50 55 58 62 63 65 63 60 60 62
85 80 78 73 70 66 65 62 58 56 53 44 35 29 20 10 6 9 14 15 18 19 19 19 21 20 19 20 21 22 23 26 31 37 42 46 50 56 62 60 56 59 62 59
82 76 73 70 67 63 62 58 55 52 48 43 34 27 19 8 2 8 13 15 14 16 18 18 17 15 15 16 18 22 24 25 26 29 35 40 42 42 42 43 46 44 47 46
77 73 70 65 63 59 58 56 52 49 45 38 30 25 18 12 4 6 9 11 13 13 15 16 17 19 19 18 20 21 21 22 24 26 28 31 34 36 36 38 38 37 33 32
74 70 67 63 61 56 55 53 50 46 43 36 27 22 20 18 12 9 11 11 13 14 16 17 19 20 20 21 21 20 21 21 20 21 22 23 24 25 25 23 21 21 22 22
72 68 65 62 60 54 52 50 47 43 40 36 29 21 17 18 19 14 13 14 15 18 20 19 20 21 21 20 19 18 18 17 18 18 19 20 20 19 17 18 21 22 22 21
71 68 64 60 58 52 49 47 44 42 39 34 28 22 15 18 20 21 16 15 19 20 20 22 22 22 22 21 18 17 17 16 17 18 19 20 20 19 19 19 19 17 17 19
70 66 65 60 56 51 48 45 43 39 38 34 29 24 16 17 21 22 21 17 19 21 21 20 20 20 20 17 15 15 15 17 18 20 19 20 19 19 19 19 20 20 21 20
70 65 63 60 56 49 47 43 40 37 37 34 30 24 20 16 19 25 23 21 20 22 24 23 21 19 17 16 17 19 20 20 19 19 22 22 20 18 20 21 23 20 19 18
69 64 59 58 57 50 44 42 39 36 35 32 30 28 21 19 21 25 29 27 22 22 24 25 24 22 20 19 20 20 21 20 23 25 23 20 19 20 20 23 22 20 18 19
65 62 57 56 54 50 44 40 37 36 34 32 28 29 26 22 23 28 29 28 27 25 26 27 25 23 21 20 21 21 23 26 25 24 21 18 18 17 21 22 24 22 20 22
62 59 55 53 51 49 44 40 37 34 32 32 29 28 27 27 25 28 31 31 32 26 27 29 29 25 21 21 24 26 27 25 24 22 20 18 16 16 20 23 24 22 23 25
61 57 54 51 48 47 43 40 38 35 32 29 31 28 27 29 28 26 34 34 32 32 30 30 33 29 24 26 29 28 26 24 23 23 22 19 17 15 13 19 24 25 27 26
58 55 51 48 45 44 41 39 38 36 33 30 30 28 26 30 29 27 32 38 36 33 37 34 36 33 30 31 31 30 28 27 24 25 23 20 17 13 18 24 29 29 30 30
56 54 50 46 43 42 39 37 37 36 33 31 30 28 24 27 28 26 31 38 41 39 36 39 36 39 36 38 37 33 33 28 26 27 24 23 22 19 18 22 27 29 27 27
54 52 49 45 43 40 36 35 35 34 31 29 29 26 25 25 25 26 29 35 43 45 43 44 39 37 44 45 42 37 35 31 31 29 25 25 24 21 17 20 25 25 23 23
52 49 46 43 41 39 35 33 32 30 28 27 26 25 24 23 22 23 29 35 44 48 47 46 43 44 46 49 43 43 41 38 36 33 29 26 25 22 19 19 23 24 24 23
48 46 44 41 39 38 34 32 29 26 25 24 23 22 20 20 20 23 26 31 39 48 46 45 50 49 46 46 47 47 45 44 40 36 32 28 28 25 19 17 20 25 27 23
45 44 41 39 37 37 34 31 28 25 22 22 21 19 18 19 19 21 24 27 33 37 40 44 47 53 51 48 45 47 49 48 44 38 34 32 30 27 24 19 18 20 25 26
43 41 38 37 35 35 33 30 26 24 21 20 19 17 17 18 19 22 25 27 29 33 33 36 44 48 53 52 46 44 47 50 46 39 35 33 33 30 27 22 20 20 25 29
42 38 35 34 34 34 31 29 24 21 20 20 18 16 17 17 18 21 24 26 28 28 30 34 37 41 49 53 50 47 46 48 45 42 38 35 34 34 31 27 26 24 24 29
39 34 32 33 34 32 29 26 24 21 19 19 17 16 15 16 17 19 22 23 23 25 28 30 32 35 41 50 53 50 48 48 45 44 41 39 37 37 36 34 31 28 27 28
35 32 31 32 31 31 28 25 23 20 19 18 16 15 16 16 16 19 21 22 21 21 25 28 29 33 36 41 51 52 51 48 46 45 45 43 42 42 40 39 36 33 31 30
33 31 31 29 30 29 26 25 22 20 19 18 16 15 15 17 16 18 23 24 21 20 23 25 26 29 32 35 42 51 52 52 49 47 45 45 45 45 43 41 40 38 37 36
33 30 29 29 30 28 27 25 22 21 20 19 17 16 15 17 17 19 21 23 21 23 23 24 23 25 28 30 35 42 50 55 53 51 50 50 49 48 46 44 44 44 43 41

GFSNW_250_spd_063.txt.gz
Wind_Speed
98 92 87 84 80 77 75 72 69 66 65 61 54 46 42 37 29 23 18 12 13 22 28 29 29 29 33 33 33 31 33 35 40 44 49 45 47 51 61 61 61 59 59 62
95 88 83 80 76 73 71 70 65 63 61 58 51 43 40 34 25 16 14 11 13 15 15 19 22 25 25 25 28 28 32 35 39 43 45 49 50 54 60 60 64 62 63 62
92 86 80 76 73 70 69 67 62 58 56 54 48 39 36 31 24 14 9 9 10 10 15 17 16 19 21 23 25 27 27 31 35 41 44 44 42 40 43 50 60 64 62 59
88 82 78 74 70 67 66 64 59 54 52 51 45 37 30 31 22 14 7 7 7 10 13 15 16 17 17 17 19 21 22 26 30 35 40 43 43 43 45 47 47 48 49 55
83 79 76 72 68 64 62 61 58 52 47 47 43 36 27 24 25 17 11 5 4 7 10 13 15 17 17 16 16 18 20 21 27 32 37 44 49 51 50 48 46 44 47 46
78 76 74 71 67 62 60 58 54 50 46 43 39 33 25 21 21 22 15 9 2 3 8 10 12 14 16 17 18 20 20 20 23 28 34 39 44 48 49 50 48 47 45 44
76 74 73 69 66 61 57 56 52 48 44 40 37 32 25 17 15 18 16 14 11 6 7 10 13 16 15 15 16 17 18 20 23 25 28 33 35 36 39 40 39 36 36 35
77 73 71 69 64 59 54 52 51 45 42 38 35 30 24 18 13 14 15 16 16 10 8 10 13 13 13 14 14 15 16 17 18 20 22 26 29 31 33 32 30 29 29 29
79 74 70 66 63 57 52 49 48 44 39 36 34 29 24 18 13 11 12 14 16 14 8 11 14 14 14 14 12 12 13 13 14 15 16 18 19 20 20 21 22 22 21 21
81 75 69 64 59 54 51 46 46 42 40 34 32 29 22 19 15 14 11 12 12 13 10 12 14 15 15 14 13 11 11 12 13 14 15 16 17 18 19 19 18 17 19 19
80 74 68 62 58 52 50 45 43 40 38 38 29 29 24 20 16 16 14 13 12 13 14 15 17 17 17 15 14 12 12 12 13 14 14 16 18 18 18 18 19 19 19 18
78 75 67 61 57 52 47 43 42 39 35 35 34 29 25 21 18 17 17 17 14 13 14 18 20 20 20 19 16 16 16 17 18 17 18 19 20 20 19 20 20 19 17 17
75 73 67 59 55 52 46 41 41 38 35 32 31 34 31 22 20 19 18 20 20 18 16 19 23 23 22 21 20 19 19 20 19 22 23 23 23 21 19 18 18 19 20 21
73 70 65 58 53 50 47 39 40 36 35 33 30 30 32 30 24 20 21 22 25 25 22 21 24 26 26 24 22 20 19 20 23 27 28 25 22 19 17 18 19 19 21 22
70 67 63 57 51 48 45 40 40 36 33 33 31 30 30 29 29 26 23 23 27 30 29 26 26 28 27 26 23 20 23 24 27 28 29 25 21 17 17 16 19 20 20 25
68 64 60 55 49 47 43 40 39 36 35 32 29 31 31 28 27 29 30 27 28 33 38 34 31 28 29 29 25 24 27 30 29 29 26 23 21 20 17 16 19 21 22 23
66 62 57 51 47 45 41 39 38 37 37 34 29 31 31 30 26 29 33 31 29 36 41 42 38 31 32 33 29 28 32 31 29 29 27 25 23 21 19 16 15 18 23 25
64 59 53 48 45 43 40 38 36 37 36 34 31 31 29 29 28 29 31 29 29 37 41 46 42 36 36 39 33 32 36 34 31 30 28 25 24 22 21 20 16 17 24 29
61 53 48 44 43 41 39 36 34 35 35 32 30 29 29 28 28 27 27 26 27 33 39 45 44 43 40 45 37 38 40 38 35 33 30 27 27 25 24 22 23 20 21 25
56 47 44 42 40 39 37 35 34 34 32 31 29 28 27 26 24 24 25 25 27 34 39 42 46 48 50 46 44 44 43 43 40 36 33 30 29 27 25 24 23 19 17 22
49 42 41 39 39 37 36 34 33 32 31 29 27 25 24 24 22 22 22 23 25 29 30 37 46 51 50 50 47 48 49 48 46 42 38 35 33 31 29 27 26 24 20 19
41 38 40 36 37 37 35 33 32 30 28 26 24 23 23 23 21 20 20 22 24 27 29 34 40 43 46 52 51 47 49 52 50 47 42 39 37 35 34 31 30 26 24 19
36 36 37 34 36 36 34 32 28 27 26 24 23 21 21 22 19 19 19 20 22 24 27 31 35 38 41 44 49 53 50 51 54 52 48 45 41 39 38 35 33 31 28 26
34 35 35 34 35 34 31 29 29 27 24 23 21 20 19 20 19 18 19 20 21 23 26 28 30 32 35 38 43 48 54 52 50 52 52 50 46 43 42 38 36 35 34 31
33 35 34 34 33 32 30 31 28 25 23 22 21 20 19 19 18 18 19 20 21 22 25 27 29 30 32 34 37 43 47 54 51 48 47 48 48 47 45 42 39 38 38 36
32 34 34 32 33 31 31 31 27 23 22 21 21 20 19 18 20 19 20 20 20 23 25 28 29 29 30 32 35 38 43 49 53 52 48 47 48 50 49 47 44 43 42 41
34 32 32 32 31 32 30 30 25 22 23 23 22 22 19 20 20 20 20 18 19 24 27 29 29 29 30 31 33 36 39 44 50 54 52 49 51 52 52 51 49 47 47 47

GFSNW_250_spd_069.txt.gz
Wind_Speed
110 109 103 108 98 97 92 83 79 78 71 65 60 56 53 47 35 33 32 28 21 17 11 13 17 20 23 25 29 29 31 32 34 34 37 38 40 41 43 48 53 57 63 70
117 119 109 107 99 95 89 78 75 75 69 63 56 51 48 42 34 28 27 23 18 12 8 6 10 13 15 17 20 24 26 27 29 30 31 32 34 37 39 42 46 53 58 61
120 121 124 103 97 101 92 79 72 70 67 60 54 48 42 39 32 24 22 20 17 12 6 9 11 13 15 18 19 21 23 26 27 28 30 30 32 35 37 39 43 46 51 57
121 121 122 105 98 96 93 79 68 65 62 58 52 46 40 35 29 21 16 16 15 10 6 3 9 14 16 19 20 21 24 26 28 28 28 31 31 33 35 39 42 45 47 50
122 125 120 106 94 95 93 86 68 62 58 54 50 44 38 33 29 19 13 12 13 11 6 1 4 11 15 17 18 21 23 24 25 27 30 32 33 34 33 33 36 40 42 46
123 119 113 98 82 89 87 83 68 60 55 51 47 43 36 31 27 21 13 9 7 8 6 4 2 7 10 14 17 20 23 26 27 28 30 31 34 34 34 34 34 34 38 42
118 115 108 101 80 83 83 78 67 59 52 49 45 40 35 30 25 22 16 8 5 4 3 4 5 5 8 11 14 17 19 22 23 25 28 31 32 34 34 35 36 36 36 40
114 114 104 101 82 81 79 79 65 56 51 46 43 38 35 29 25 21 17 11 6 4 3 4 7 8 10 11 13 14 17 21 23 23 25 27 30 32 35 37 36 33 33 34
112 107 102 99 81 77 73 74 66 57 50 45 42 36 33 29 25 20 18 16 11 7 7 6 8 10 11 14 15 18 20 21 21 21 21 27 27 29 31 32 33 36 37 36
111 99 105 97 90 77 76 71 64 55 49 45 42 35 30 29 25 21 18 16 16 15 10 8 8 9 10 11 13 16 18 21 22 23 21 22 26 28 31 35 40 40 40 41
113 110 104 95 93 83 78 70 62 54 49 43 43 35 30 27 26 22 19 17 17 20 17 14 11 10 11 13 15 17 16 16 17 21 22 24 25 27 29 32 35 35 36 38
113 110 107 99 98 85 78 67 61 54 51 42 41 38 31 28 25 24 22 18 18 20 22 20 18 15 15 17 18 19 20 19 16 16 19 20 24 25 26 28 29 30 30 30
111 117 123 98 89 83 75 64 58 53 51 43 40 39 33 27 26 26 22 20 19 21 23 26 24 22 21 21 22 22 20 19 20 21 20 20 19 21 24 25 25 25 25 25
109 115 115 85 83 74 71 59 53 51 50 44 40 39 35 28 26 26 26 24 20 22 24 28 31 30 28 27 27 26 25 24 23 21 22 22 23 23 24 25 26 26 27 28
108 112 116 96 82 72 66 54 50 47 46 44 40 39 34 31 27 26 28 27 23 23 25 27 34 36 35 33 32 32 31 27 26 25 25 24 26 27 28 29 29 30 30 30
110 112 104 93 78 65 57 49 48 45 43 41 40 39 34 32 30 27 28 28 25 24 26 28 31 39 41 41 41 37 35 33 30 28 27 28 30 31 31 32 33 32 32 30
112 101 102 87 73 61 52 47 46 42 40 38 39 37 35 32 31 29 27 29 28 27 26 29 32 34 42 44 47 44 40 37 34 32 29 29 31 32 33 35 34 30 28 28
105 105 90 79 64 57 51 47 44 42 37 37 38 37 36 32 29 29 29 30 29 28 28 31 33 33 36 46 50 47 45 40 39 35 31 32 32 34 37 37 33 29 26 28
107 89 79 71 60 53 49 44 40 40 38 38 38 36 35 31 29 29 29 30 29 30 30 33 30 31 37 48 51 44 46 47 43 38 33 34 34 38 39 36 32 29 26 24
83 77 71 64 56 50 47 43 37 38 38 38 37 34 30 29 29 30 30 31 30 30 34 30 30 35 40 41 44 48 48 52 47 41 37 36 38 41 40 37 34 30 28 26
74 69 63 58 51 46 45 40 37 38 38 37 34 31 29 28 28 28 30 30 30 31 31 32 34 39 35 41 45 46 51 53 52 45 41 41 43 43 42 39 36 33 32 30
70 61 56 52 46 42 42 38 37 37 35 34 31 30 28 27 26 28 29 29 28 28 27 30 32 31 34 36 41 45 48 54 55 50 45 47 47 46 44 41 39 37 35 33
61 54 50 44 41 40 37 38 35 34 33 30 29 28 28 27 26 27 28 26 26 26 28 28 27 29 30 32 35 40 45 53 54 52 49 50 51 49 47 45 43 41 38 35
54 49 45 40 39 37 36 37 33 33 31 29 27 27 25 25 25 26 26 26 25 26 26 26 26 27 28 29 33 36 41 52 54 55 53 52 54 53 51 49 47 44 42 39
50 46 40 37 37 36 35 35 33 31 29 28 26 25 25 25 26 26 26 25 24 24 24 25 25 25 27 29 31 34 39 47 55 55 55 54 56 57 56 53 51 49 46 43
45 43 38 36 36 36 35 33 32 31 27 25 24 25 25 26 26 27 26 24 22 23 24 25 25 25 28 30 31 33 38 43 48 52 56 57 56 57 59 57 55 53 51 48
45 39 37 36 36 36 34 32 31 29 27 26 25 25 27 28 27 28 27 22 21 23 24 24 25 25 27 30 32 34 37 40 44 47 52 56 58 58 57 59 58 56 56 55

GFSNW_250_spd_072.txt.gz
Wind_Speed
104 104 109 112 99 103 96 86 94 95 85 76 68 62 59 58 54 46 36 29 26 22 20 14 11 8 9 16 18 24 27 29 33 36 40 41 43 44 45 45 48 53 58 62
105 105 109 111 104 98 91 89 95 93 83 75 68 60 55 51 49 44 36 24 21 19 14 12 9 8 8 12 15 18 18 20 22 26 27 31 34 35 36 38 42 47 52 57
105 111 106 112 109 97 101 87 100 90 83 72 65 59 52 47 44 40 34 25 16 13 12 7 4 4 8 10 10 12 15 17 19 23 25 25 28 30 32 35 38 41 45 51
107 106 108 117 108 97 102 99 97 88 84 68 63 56 51 46 40 36 31 22 14 9 7 4 1 5 9 13 14 16 17 19 21 23 24 26 28 30 32 34 35 36 41 45
106 105 111 111 114 106 110 112 107 84 89 67 57 53 48 44 37 34 29 23 14 6 4 2 1 5 8 12 15 18 20 22 24 26 28 29 29 31 32 32 34 38 38 40
104 108 110 112 111 112 118 104 108 80 90 68 53 48 45 41 37 32 28 22 16 10 4 2 2 5 7 10 14 17 20 22 24 26 27 29 31 33 34 36 37 38 41 43
107 105 108 111 105 113 114 106 107 90 107 75 51 46 42 38 35 31 28 23 18 12 9 5 5 4 7 9 13 15 19 22 24 25 26 29 31 33 34 36 37 40 39 44
105 102 104 110 102 111 112 109 108 95 101 75 52 45 39 37 33 30 26 24 20 16 9 9 9 9 9 9 11 13 15 18 22 24 26 27 29 32 36 37 38 38 39 41
110 109 109 104 100 110 113 107 108 103 90 72 53 46 40 36 32 30 25 24 20 20 14 12 12 13 13 14 14 14 16 17 19 22 24 26 26 29 31 34 35 38 40 42
114 112 110 98 106 102 119 110 112 95 89 65 49 46 38 35 31 29 26 23 22 20 19 16 15 15 14 15 16 17 20 21 21 21 22 22 23 27 29 31 36 36 36 38
113 115 104 98 99 105 113 112 103 85 74 56 46 42 37 34 32 28 26 25 23 22 21 21 19 17 16 16 16 17 18 19 22 24 23 23 21 24 27 29 32 33 34 36
116 108 102 99 96 105 109 111 93 90 69 52 46 40 37 32 32 27 26 26 24 22 22 23 22 21 19 18 17 17 16 17 19 22 26 24 24 23 25 27 29 32 35 37
119 107 110 98 100 99 97 89 85 76 63 49 44 38 36 33 31 28 25 24 24 24 23 24 25 25 23 22 20 20 19 19 19 19 19 22 25 26 27 29 30 31 33 35
123 110 101 99 108 116 99 86 69 57 55 48 40 39 33 33 32 29 24 26 26 26 25 26 27 28 28 27 25 24 25 22 21 20 19 18 20 23 25 28 29 30 31 32
111 107 98 101 105 102 88 88 62 51 47 45 41 37 32 32 34 29 25 27 26 26 26 28 29 30 31 31 31 31 30 28 26 23 22 20 21 19 19 21 23 26 28 29
118 120 125 92 101 96 87 75 59 49 43 41 41 35 33 33 32 30 26 27 26 27 28 29 30 31 31 34 36 35 35 34 31 29 27 25 24 24 23 22 22 22 24 26
115 113 104 109 99 80 76 65 57 46 41 40 39 34 33 34 33 30 28 27 28 26 27 28 30 31 31 36 39 39 38 40 39 36 33 31 31 30 29 30 29 29 29 30
121 104 110 110 99 79 63 59 54 47 41 38 37 35 33 34 32 30 28 27 27 27 27 29 31 31 32 37 41 42 43 42 43 42 39 37 36 33 33 34 35 34 34 34
104 103 104 104 101 68 56 54 52 46 40 37 36 35 34 33 30 29 28 28 27 28 28 30 30 30 32 43 43 39 40 44 46 46 43 42 40 38 35 35 36 35 36 36
114 98 92 105 71 56 51 49 47 43 40 35 32 32 31 32 30 28 28 26 28 29 31 30 29 34 40 40 40 38 36 46 49 49 50 46 44 40 37 35 36 38 39 38
89 90 84 83 63 54 50 47 42 42 38 32 30 30 30 29 28 28 26 27 29 30 31 28 32 38 32 34 38 38 38 39 46 51 50 50 49 43 40 36 37 42 42 40
96 79 76 81 68 56 48 43 40 40 35 32 31 30 28 27 26 27 27 27 29 30 30 31 33 31 31 34 37 38 39 40 43 47 53 49 49 46 42 38 40 46 44 41
97 83 96 69 64 56 45 40 38 38 34 30 30 27 26 25 25 26 26 27 28 28 28 30 29 30 32 33 35 38 40 41 44 45 48 53 49 47 44 41 44 48 46 43
115 93 79 66 59 53 42 38 36 34 34 29 27 26 25 24 23 25 25 26 26 27 28 27 27 28 29 31 32 33 35 37 42 44 45 52 53 49 47 43 47 50 48 45
109 97 73 62 55 48 40 37 35 33 33 28 26 26 25 24 24 25 26 25 26 26 26 25 26 27 27 28 29 29 30 32 36 39 43 51 55 51 50 48 50 52 51 49
90 73 64 56 50 44 39 36 34 32 31 27 25 25 26 25 25 24 25 26 24 24 24 24 25 25 25 25 25 26 27 28 31 35 39 49 54 53 51 50 50 53 53 52
71 64 58 51 45 41 36 34 33 30 29 26 25 26 26 27 25 24 23 21 22 23 23 22 22 23 23 23 23 25 26 27 29 31 34 45 51 52 50 52 50 52 55 56

GFSNW_250_spd_075.txt.gz
Wind_Speed
88 87 92 96 99 102 108 108 97 87 88 86 82 69 60 56 52 49 47 42 36 26 20 15 13 12 11 9 10 15 21 29 35 39 40 41 42 42 44 45 47 49 51 56
86 86 92 97 101 105 111 103 96 95 90 86 81 82 65 54 49 46 43 41 34 25 18 14 10 10 10 9 8 9 10 14 22 28 34 35 34 35 37 38 39 40 43 49
87 87 92 99 102 105 105 103 98 93 91 88 83 77 65 54 47 43 37 36 33 25 17 11 8 5 7 9 10 10 12 12 14 17 22 25 28 28 30 32 33 35 37 42
89 88 91 97 102 103 106 108 98 96 89 86 80 72 60 52 45 40 37 29 29 25 16 9 4 2 3 8 11 13 15 17 18 20 22 23 26 28 29 31 30 32 37 40
91 89 94 97 97 103 105 106 104 94 96 81 78 68 59 50 44 37 35 30 24 21 17 10 4 3 3 6 12 15 17 19 20 22 26 27 27 28 30 31 33 35 37 39
92 91 92 99 102 103 107 109 108 99 93 89 77 68 55 50 43 37 31 29 24 20 16 12 9 7 8 11 12 14 16 18 20 23 25 29 31 31 31 32 33 33 34 37
93 93 95 98 101 108 104 102 101 100 97 90 80 66 56 48 42 37 30 27 24 19 17 14 12 11 11 12 14 15 17 19 20 22 25 26 29 34 36 37 36 37 38 38
96 95 97 100 104 106 109 104 104 109 100 93 80 69 59 47 40 37 30 25 23 19 16 15 14 14 15 14 14 15 17 19 21 23 24 26 27 29 33 39 41 42 40 41
99 98 100 103 106 105 108 104 104 104 96 92 79 67 56 44 39 33 30 25 24 21 18 18 15 15 17 17 16 16 17 19 22 24 26 27 25 27 30 32 37 41 43 44
101 101 103 104 105 106 106 113 113 105 90 86 68 59 52 44 37 33 29 25 23 22 19 18 17 16 18 20 20 21 20 20 21 22 25 24 26 28 30 32 36 38 41 43
105 105 107 109 113 115 109 117 111 92 92 87 66 52 47 43 37 32 27 26 23 23 21 19 19 18 18 21 22 23 24 24 23 23 23 23 25 27 28 31 32 35 39 41
109 108 108 108 111 112 111 127 103 101 89 76 58 48 42 40 36 30 26 26 24 24 23 20 21 19 19 22 21 22 24 22 22 23 24 25 26 26 26 30 31 34 36 39
111 110 112 114 117 114 107 111 102 97 83 72 56 43 41 36 34 29 27 24 24 24 23 23 23 22 21 22 24 24 23 23 21 20 20 23 27 28 27 27 30 31 34 36
114 112 115 116 119 118 112 104 107 95 85 75 54 45 40 35 31 29 25 24 25 26 25 24 24 24 23 25 24 27 26 24 22 20 20 21 24 25 26 27 28 30 31 33
117 116 120 125 120 125 106 109 97 96 86 67 50 46 40 36 29 28 24 23 25 25 26 26 27 26 26 27 27 29 28 28 28 25 24 22 20 20 25 27 28 28 29 32
121 117 126 121 124 122 119 97 99 91 88 61 48 44 39 36 29 26 24 22 24 24 27 28 27 27 28 29 28 30 32 31 32 30 27 26 23 21 20 21 22 25 28 30
126 123 122 122 125 126 104 98 95 83 73 58 46 38 38 36 29 24 22 22 24 25 26 28 29 27 28 31 31 32 32 35 36 34 33 32 29 26 24 22 19 18 19 22
123 123 121 125 123 119 101 90 91 85 61 49 43 37 37 35 28 22 20 20 23 25 28 29 30 27 30 34 36 34 35 34 37 36 38 37 34 31 30 29 27 25 23 23
124 128 124 132 107 98 100 80 74 75 57 48 39 37 36 32 26 21 19 20 23 26 29 31 29 29 32 39 36 30 31 34 36 41 43 44 41 38 34 33 32 31 30 30
131 126 135 132 116 111 92 86 69 60 52 47 40 36 34 29 23 19 18 20 22 26 28 29 30 34 38 36 33 32 31 33 40 40 43 46 46 45 42 39 37 36 33 33
137 140 136 124 121 118 94 92 92 58 52 45 38 35 32 26 22 19 18 22 25 28 28 31 34 38 31 31 33 35 34 34 38 42 41 43 48 49 49 45 42 39 38 36
138 135 125 114 107 99 94 91 77 60 53 43 37 33 29 24 22 19 19 23 25 26 28 32 34 30 29 33 35 34 35 35 35 39 43 43 44 48 50 50 47 44 40 38
139 140 132 111 105 102 102 92 63 58 52 41 35 30 27 24 21 19 20 23 26 28 28 30 31 31 30 31 33 34 35 36 36 37 40 43 46 46 46 49 50 49 44 40
144 138 127 107 106 99 101 89 64 53 47 40 33 28 27 23 22 20 21 24 27 28 28 30 29 30 30 31 33 34 35 36 36 38 40 43 45 47 47 45 48 47 46 43
141 125 113 114 101 98 104 71 60 50 43 38 32 28 25 23 22 22 24 26 28 26 27 28 28 27 27 31 32 33 33 34 35 36 38 41 44 46 48 46 47 49 47 45
135 134 118 107 110 115 76 66 54 46 39 36 29 27 25 23 23 23 25 25 25 24 26 27 27 26 28 29 28 29 29 30 31 32 34 36 39 41 45 48 47 49 49 47
135 122 106 118 112 80 67 58 49 44 37 32 29 27 26 25 24 25 25 24 23 25 25 25 24 26 27 27 27 27 26 28 28 28 29 30 32 35 40 46 49 48 48 48

GFSNW_250_spd_081.txt.gz
Wind_Speed
67 70 75 79 83 86 88 92 98 101 104 102 107 112 111 107 105 100 89 82 69 49 36 28 25 22 15 3 10 12 16 22 28 36 41 45 48 49 49 46 50 52 52 54
67 72 74 79 83 85 88 91 97 100 101 100 109 110 107 105 103 98 91 80 68 49 36 26 21 16 12 6 8 14 17 18 21 23 28 37 43 46 48 48 49 49 48 53
67 73 75 79 82 84 89 90 96 100 103 104 107 102 101 98 99 97 88 77 68 47 37 26 19 13 8 6 8 14 18 22 24 26 30 32 39 43 44 46 44 48 47 54
68 73 76 78 81 83 88 91 97 100 103 102 111 101 100 96 94 90 83 72 66 46 31 26 17 15 7 6 9 13 18 22 23 25 26 27 27 32 36 37 42 39 45 47
70 73 76 78 82 82 87 93 97 99 102 105 107 104 95 96 98 84 75 67 59 44 29 26 17 14 10 8 9 14 17 22 23 25 25 27 30 31 31 30 33 37 41 45
72 75 75 77 82 82 87 91 94 97 103 104 108 102 91 85 87 83 71 63 50 41 31 22 20 13 13 11 11 15 19 24 25 28 29 30 32 33 31 32 32 36 38 42
73 75 76 77 81 82 86 91 93 96 105 106 109 104 91 85 89 75 63 57 43 36 30 23 21 14 13 14 14 16 20 21 24 28 31 33 34 34 34 34 35 36 39 38
77 76 77 79 81 83 87 91 95 99 102 102 108 112 89 87 80 76 60 51 40 33 27 23 21 18 14 14 15 17 19 22 23 26 27 29 33 34 35 37 37 38 39 39
78 78 78 81 83 85 88 92 97 100 104 106 109 111 104 95 85 76 58 48 38 31 26 22 22 20 16 15 16 18 20 22 24 26 28 29 31 33 33 35 35 38 39 39
81 80 81 84 85 88 91 94 100 104 108 108 111 110 113 105 87 78 63 45 37 30 25 21 22 20 19 16 16 18 20 23 25 26 28 30 30 32 32 33 33 34 34 35
82 86 86 87 88 92 93 95 102 105 110 107 115 110 113 105 87 79 66 44 36 28 25 20 21 22 21 19 18 17 20 21 24 27 29 28 29 31 31 33 35 35 36 36
85 89 92 92 93 95 96 98 105 109 115 114 110 105 103 98 85 78 63 44 35 30 23 21 22 23 22 21 21 19 19 21 22 24 26 27 28 30 31 31 32 33 34 35
87 92 96 97 97 97 98 102 106 112 116 109 100 106 98 90 78 68 61 45 34 28 24 21 23 26 25 23 22 25 21 22 23 25 25 26 26 27 27 28 31 32 33 33
88 93 99 101 100 98 99 102 108 112 110 97 102 105 102 84 73 62 52 46 35 28 24 22 24 26 27 26 25 26 26 23 23 24 25 26 27 29 30 30 29 30 32 32
90 95 100 103 103 103 103 107 112 113 108 86 103 109 96 93 74 61 46 39 36 31 27 25 26 27 28 27 27 25 25 27 26 25 24 21 23 24 25 27 29 31 31 31
93 98 101 105 106 108 108 114 116 111 107 101 107 101 98 102 85 70 48 36 33 31 27 26 27 29 29 29 29 26 28 28 27 27 25 22 21 21 22 22 24 28 31 30
95 99 104 106 110 111 114 116 116 110 101 109 104 109 108 93 81 74 48 37 33 30 26 27 27 28 29 31 30 28 29 30 29 28 27 25 24 23 22 22 21 20 24 29
99 102 106 109 113 115 117 117 117 108 109 107 102 101 104 81 77 72 49 37 33 32 28 26 27 26 31 34 35 33 31 31 30 30 29 30 28 27 25 25 24 23 21 21
101 104 108 112 115 118 120 118 117 113 108 105 102 111 114 90 79 72 47 37 33 32 30 25 27 30 35 42 31 27 31 29 29 30 30 31 32 31 29 28 26 27 26 24
103 107 112 116 118 121 122 120 119 116 114 117 105 104 118 94 88 67 49 37 33 30 28 28 28 31 32 34 30 25 30 31 32 33 33 34 35 34 34 33 32 31 32 31
109 109 116 121 122 124 125 120 119 118 119 113 111 112 115 105 90 60 48 40 32 29 29 30 30 28 29 32 31 28 27 32 34 34 35 35 36 36 35 36 37 37 35 35
112 116 121 123 125 126 124 118 122 123 118 116 117 114 105 116 100 60 47 39 36 32 29 30 31 31 30 31 31 31 30 30 33 34 35 36 37 39 39 38 38 39 40 41
119 122 126 126 125 126 122 121 119 122 114 120 119 118 113 111 103 56 47 38 35 33 32 30 31 31 30 31 31 31 31 31 32 34 36 38 38 39 40 40 40 40 41 43
124 126 127 128 129 128 120 123 124 120 124 125 129 119 121 85 82 54 45 39 35 33 32 31 32 31 30 28 29 30 32 33 34 34 35 37 39 40 40 40 39 40 41 43
125 130 129 129 127 129 130 126 123 126 124 126 128 113 116 101 72 54 45 38 35 33 31 32 32 31 29 29 30 31 32 33 34 35 36 37 38 38 39 41 41 41 41 43
129 131 131 129 130 128 124 126 125 130 129 129 128 108 111 108 61 52 44 38 35 33 31 32 32 32 30 30 29 29 29 31 33 34 35 36 37 37 38 40 41 43 44 43
126 127 130 132 134 131 129 129 133 136 132 123 104 126 109 76 57 50 43 37 33 32 32 32 32 31 30 30 31 30 30 31 32 33 34 36 36 36 36 37 39 41 42 43

GFSNW_250_spd_087.txt.gz
Wind_Speed
48 48 50 50 55 60 65 70 74 74 82 85 87 93 98 104 115 113 98 94 94 87 74 56 41 26 16 11 5 4 11 19 28 34 35 38 41 45 50 52 52 53 55 57
47 48 49 50 53 59 64 68 72 73 79 82 84 90 96 105 113 113 99 97 90 89 75 52 38 25 15 9 5 5 8 15 21 26 30 33 36 40 43 45 48 49 50 51
45 47 47 51 54 59 64 67 69 72 77 82 83 88 94 101 110 121 98 98 94 84 72 50 35 25 15 9 2 8 9 17 25 33 36 39 44 46 48 48 48 50 50 55
43 47 48 50 55 60 62 66 68 72 77 82 84 89 93 101 106 113 104 98 90 82 66 49 33 24 16 8 4 4 10 18 25 31 36 40 41 42 43 43 45 46 49 48
43 47 47 51 55 61 63 66 67 72 76 81 84 90 94 97 105 113 108 99 90 79 62 45 33 25 16 10 5 4 8 14 23 27 29 33 35 36 37 39 41 44 48 51
44 47 47 52 57 61 62 65 67 71 76 81 85 87 91 99 104 112 108 99 87 75 58 44 34 26 17 11 8 6 8 11 17 25 30 32 33 36 37 38 41 42 42 49
45 46 47 52 57 60 61 64 67 73 76 80 83 89 94 97 104 108 108 96 88 77 56 41 35 26 18 12 10 8 8 10 13 18 26 31 34 35 38 42 43 43 45 48
43 46 49 52 56 60 61 64 67 73 76 80 86 92 95 100 105 104 101 95 89 83 59 42 36 29 20 12 12 12 10 10 11 15 20 25 30 33 38 43 43 44 48 49
44 46 50 53 55 59 61 65 68 72 78 80 85 91 97 103 110 111 109 107 92 90 71 47 37 32 22 15 12 13 12 11 12 12 14 17 20 27 34 39 40 43 46 46
43 48 50 53 54 59 62 66 69 72 77 81 85 90 95 102 108 112 108 100 97 89 72 54 39 32 24 15 12 15 15 15 14 13 14 13 15 18 19 23 31 35 37 38
45 49 51 54 56 59 64 65 69 73 76 81 87 89 98 103 106 110 108 99 93 89 82 58 44 31 25 17 12 15 17 17 16 17 17 16 17 18 19 21 22 23 25 27
48 52 54 55 57 61 62 66 71 74 79 84 87 92 97 101 103 107 108 94 92 85 77 65 47 37 27 20 14 15 20 21 19 19 19 21 21 20 21 22 22 22 23 24
50 52 53 58 61 60 60 65 68 73 79 85 87 94 96 100 103 107 100 97 89 85 76 68 50 40 33 24 17 16 20 22 21 21 22 22 22 23 24 24 24 24 25 27
48 53 55 60 62 60 61 66 69 76 81 86 90 94 97 101 103 102 105 100 95 85 76 72 53 41 32 28 21 17 18 22 22 23 23 22 24 24 24 25 25 25 25 28
51 54 59 61 61 62 65 68 72 77 82 87 91 95 98 100 103 100 106 108 97 89 80 71 67 47 35 28 25 22 20 21 22 23 24 23 23 25 25 26 26 25 25 26
51 56 59 60 66 67 68 69 76 79 84 88 93 97 98 99 103 105 107 108 101 89 85 81 68 55 38 32 26 26 25 23 22 24 25 24 24 25 26 27 27 25 26 28
52 57 60 65 70 70 70 75 77 81 86 90 93 97 101 100 103 107 108 108 105 101 83 81 77 55 39 34 26 19 24 25 27 26 28 28 28 27 26 27 27 26 27 27
56 58 63 69 73 74 76 80 83 86 87 92 94 99 101 102 107 109 111 117 110 96 85 75 72 57 40 36 23 15 26 24 26 29 29 30 31 31 31 29 30 30 29 27
56 62 67 72 79 79 80 84 87 90 91 93 96 100 104 104 108 109 112 113 111 88 83 77 68 54 41 36 26 18 27 27 25 29 30 32 34 34 35 33 32 33 33 31
61 68 71 76 84 82 84 87 87 91 93 97 101 104 107 109 112 115 118 116 106 93 72 73 70 53 45 38 28 19 24 30 27 28 30 33 35 36 36 36 35 35 35 36
59 67 73 78 88 86 87 89 92 95 96 101 104 105 109 114 115 119 120 121 106 94 66 68 61 48 41 39 32 23 22 28 31 30 30 32 36 36 35 35 37 39 38 37
66 69 78 84 87 87 90 93 96 99 100 105 108 109 113 116 119 122 126 127 102 79 68 77 63 49 39 38 34 28 24 26 30 33 34 34 36 37 37 37 37 38 40 40
72 78 84 88 90 89 90 96 98 103 106 109 110 111 117 117 122 126 124 130 100 83 70 76 60 50 39 35 33 30 25 25 28 32 35 35 35 38 38 38 38 38 39 39
77 82 87 90 88 89 93 97 103 107 109 111 114 116 118 120 125 128 126 117 100 86 78 67 55 48 41 35 34 33 29 27 28 31 33 35 37 38 38 39 40 40 41 41
83 88 90 92 92 93 97 103 106 108 110 114 116 120 121 124 125 129 135 116 107 91 91 64 55 46 42 36 34 35 32 29 29 30 33 35 37 39 39 38 40 41 40 40
90 92 95 99 95 98 102 104 108 110 113 117 119 123 124 125 129 132 125 118 108 84 88 67 58 48 41 37 35 34 33 31 30 31 32 34 36 38 39 40 41 41 41 40
95 99 101 97 97 101 102 105 109 113 116 120 122 123 127 129 131 134 120 117 108 80 76 63 57 50 42 38 37 36 32 33 33 33 35 36 36 37 38 39 40 40 40 40

GFSNW_250_spd_093.txt.gz
Wind_Speed
29 32 30 29 28 32 37 42 44 45 49 54 59 61 68 73 79 87 98 102 88 86 82 63 50 40 31 22 18 12 4 12 17 24 35 45 53 54 55 59 63 68 71 69
29 30 29 29 29 31 37 43 43 44 46 52 57 60 65 71 76 85 96 100 98 85 81 64 50 43 33 23 18 13 7 9 16 20 32 45 50 51 54 59 63 65 68 70
29 32 33 30 32 34 37 40 39 42 45 50 54 58 64 68 74 83 91 97 102 91 78 67 55 49 37 25 18 14 8 9 19 25 31 39 45 51 55 58 62 65 68 70
29 34 32 33 33 34 38 40 40 41 42 49 53 55 60 65 71 81 90 93 100 91 82 70 59 53 44 30 19 14 10 8 21 32 35 39 44 49 53 57 61 64 67 67
31 32 33 35 35 35 37 38 37 39 41 48 49 55 60 65 70 77 86 90 97 99 88 74 66 57 49 36 21 12 9 6 18 28 40 45 46 48 51 54 57 61 64 67
33 33 32 36 36 34 36 36 36 38 39 46 48 55 59 62 67 75 82 89 95 99 98 84 75 59 53 38 26 14 8 7 11 20 31 37 40 46 49 51 55 59 63 63
34 35 34 37 31 34 36 35 36 37 39 42 47 54 59 60 66 73 80 88 95 97 97 94 79 67 58 45 29 19 10 7 10 20 21 31 37 41 45 49 52 56 58 59
33 32 35 37 31 34 34 33 36 36 39 40 46 54 58 61 64 72 79 86 93 98 102 97 86 71 61 56 34 20 14 11 11 16 20 26 31 38 42 46 50 53 55 55
32 32 35 34 31 33 33 34 35 36 38 40 45 52 57 62 66 72 77 85 93 97 101 100 94 75 65 60 50 26 15 14 14 16 17 24 32 36 38 43 45 48 50 51
30 34 36 33 31 32 34 34 34 35 38 40 45 51 56 61 67 71 77 82 88 93 98 100 102 87 69 62 52 43 23 15 17 17 19 22 27 32 38 41 45 47 48 49
32 34 33 32 32 33 35 34 33 35 38 39 45 51 55 61 67 71 77 81 87 91 97 101 102 100 78 65 57 53 31 20 17 19 21 23 25 28 30 36 42 42 44 47
32 33 34 34 36 35 35 34 32 34 36 40 47 50 54 59 65 71 76 80 83 89 93 98 101 108 87 72 63 53 36 23 20 20 22 25 26 27 28 31 36 39 40 41
32 33 33 34 35 35 34 35 34 34 37 41 49 50 54 59 63 70 76 79 85 89 92 97 102 105 102 83 64 60 38 26 22 23 23 25 26 29 31 31 31 32 33 36
33 33 33 36 36 34 35 37 37 36 38 44 50 49 53 59 65 69 75 78 83 87 92 96 100 105 103 96 68 60 46 29 24 23 26 27 28 29 30 31 33 34 32 33
34 33 34 35 35 38 35 37 37 38 41 46 48 48 54 59 66 68 74 78 83 88 92 95 101 104 105 102 78 61 56 35 25 26 28 30 31 32 32 32 31 33 34 35
33 32 33 34 38 38 39 37 38 42 47 48 48 48 55 59 64 68 73 80 84 86 91 94 97 100 106 107 83 69 60 42 30 28 29 32 34 36 36 35 34 35 35 35
34 33 34 38 38 40 41 39 42 45 48 49 48 49 53 57 63 68 73 78 83 86 92 96 97 100 105 106 89 67 63 46 35 28 30 32 35 38 40 39 39 38 38 36
34 33 34 36 38 40 40 43 46 49 51 49 50 51 54 60 65 69 74 80 83 87 92 94 98 102 102 108 98 73 64 49 38 30 29 31 34 37 40 42 42 41 40 39
35 34 35 35 38 39 41 45 50 54 56 54 53 56 57 61 68 71 75 80 84 88 94 94 97 103 107 101 112 89 69 57 42 33 28 28 32 34 39 42 43 44 43 42
36 34 34 34 40 42 46 47 54 60 59 56 59 61 60 63 70 72 78 83 87 93 95 98 101 105 105 109 105 100 74 70 47 37 29 28 30 35 38 41 42 43 44 44
40 33 32 40 42 45 49 50 57 61 61 63 64 61 60 66 73 76 81 84 90 94 98 100 105 111 113 112 107 105 93 76 53 41 33 28 29 33 37 39 43 44 44 45
40 36 36 39 44 48 51 56 60 63 65 67 66 64 65 71 76 78 83 87 91 96 102 105 108 112 111 116 117 115 103 73 55 43 36 30 29 33 36 38 40 43 45 45
41 35 35 40 45 49 55 61 65 64 67 66 67 66 67 73 77 80 86 89 91 96 103 108 110 114 117 124 119 112 102 75 58 46 37 32 30 32 35 38 40 42 45 46
41 40 42 46 47 52 59 64 67 70 68 70 69 69 70 76 77 83 88 92 94 100 104 110 114 117 120 126 126 126 105 81 64 48 39 34 31 31 35 37 39 42 43 44
46 44 46 47 52 57 63 67 72 71 71 71 71 72 76 78 81 86 90 93 97 102 106 111 115 119 120 123 125 131 106 94 73 53 42 36 33 31 33 37 40 42 42 44
44 47 50 53 57 62 67 73 73 74 75 71 71 76 78 80 85 90 93 97 101 104 107 114 116 120 122 124 126 134 100 90 73 55 44 38 33 32 32 34 39 41 42 42
53 55 55 58 64 70 75 77 75 75 74 74 77 78 82 85 88 93 95 101 104 108 110 115 118 122 124 128 122 136 104 87 70 56 46 39 35 33 33 33 36 40 41 41

GFSNW_250_spd_096.txt.gz
Wind_Speed
37 37 29 26 26 28 28 29 31 35 38 43 47 50 53 58 65 68 74 83 91 90 84 74 61 54 41 33 23 21 16 6 4 14 22 29 44 51 53 57 60 64 66 67
36 28 26 24 25 27 27 29 30 33 37 42 45 47 47 57 64 66 73 83 89 88 82 75 60 54 45 37 25 21 19 9 6 14 25 35 41 46 50 54 59 64 62 64
28 26 27 25 25 25 26 26 30 32 36 39 42 45 46 55 61 65 72 79 84 86 82 77 68 57 49 39 32 22 19 12 6 15 24 31 38 44 49 52 55 58 61 62
27 26 25 25 26 27 27 26 29 32 33 36 39 41 45 53 59 62 70 77 82 86 87 79 73 61 56 48 37 27 18 11 6 14 20 25 34 39 45 49 52 54 58 59
26 26 27 24 26 29 27 25 29 32 32 33 37 40 44 51 56 62 68 76 80 87 90 83 78 71 60 52 45 32 21 11 8 11 17 23 30 37 42 46 49 55 59 59
27 26 29 27 29 25 23 24 26 30 30 32 36 38 42 49 54 61 67 73 80 86 89 91 84 76 73 59 50 41 27 18 10 10 15 24 29 34 40 45 48 52 56 56
27 27 28 29 27 24 21 23 25 28 27 30 33 36 41 48 53 56 63 70 78 82 90 92 89 83 76 69 55 47 33 23 15 12 13 21 25 32 39 43 47 50 53 55
27 28 31 31 28 24 21 22 25 25 27 30 31 35 39 48 50 56 63 69 76 79 88 88 93 94 82 76 63 50 42 24 18 14 15 18 27 28 36 43 46 48 51 53
26 29 31 29 25 24 19 21 24 24 27 29 31 33 38 46 48 55 59 67 73 77 84 90 95 95 94 83 71 57 50 29 17 17 16 20 24 29 32 37 42 44 48 51
28 30 30 27 27 23 20 24 25 25 28 27 31 33 38 45 49 55 60 65 70 76 80 86 92 97 100 91 87 66 52 45 25 16 18 23 25 29 31 34 41 40 42 45
28 31 29 26 25 23 23 25 25 26 27 25 30 33 38 42 48 54 58 62 68 72 77 82 88 93 99 101 87 77 55 47 33 21 17 24 27 29 32 35 38 39 41 44
28 28 27 25 25 26 26 27 27 27 27 25 29 31 37 41 47 51 56 61 65 71 74 79 83 89 93 99 105 83 68 54 39 24 21 23 25 27 30 34 39 41 43 44
29 29 29 28 27 28 28 28 28 29 25 28 30 30 36 41 46 50 54 60 64 68 74 77 84 88 93 101 100 90 73 60 49 33 23 24 25 28 30 32 35 37 40 44
31 29 30 30 28 29 28 27 29 29 27 30 32 31 35 42 46 50 54 59 65 70 73 77 82 86 92 98 102 97 79 61 48 40 28 24 27 28 32 33 35 35 37 38
30 31 30 29 31 30 28 28 30 29 29 31 33 33 35 41 45 49 55 58 63 69 72 77 80 86 91 98 101 103 91 80 58 41 31 24 26 29 33 37 37 38 38 38
32 31 31 32 31 30 30 31 30 30 31 34 33 35 37 41 45 51 55 58 65 70 72 77 82 85 89 95 101 105 100 83 63 48 32 27 25 28 31 36 39 40 40 39
34 32 33 33 30 29 30 32 30 32 34 37 36 37 39 44 47 50 56 59 64 70 73 75 79 84 89 93 100 105 99 100 72 55 42 31 24 25 30 32 37 39 42 42
34 32 34 33 32 30 31 28 30 35 38 39 38 39 42 45 50 54 56 60 65 70 74 77 81 86 89 96 98 106 101 105 97 74 49 39 29 26 25 31 34 37 40 41
34 34 34 33 33 32 30 29 32 37 40 42 44 42 43 45 51 54 60 61 67 72 75 78 81 87 91 94 101 103 98 110 98 90 65 45 36 28 28 29 32 36 39 40
37 33 34 35 36 34 34 32 36 40 41 45 46 48 48 48 51 55 61 64 68 73 77 80 83 87 92 95 101 104 107 106 112 112 74 55 42 34 28 28 31 34 37 41
37 38 37 37 35 37 35 36 39 43 47 48 49 50 50 51 54 59 62 65 70 74 79 83 86 90 95 98 102 105 106 112 116 117 86 64 49 39 33 29 30 32 36 39
44 43 41 38 38 34 34 38 42 48 50 52 52 51 53 53 56 59 64 68 71 76 81 85 90 94 97 101 104 107 111 115 115 117 99 73 54 44 36 32 31 32 34 38
48 47 43 39 37 35 38 38 48 52 53 56 55 53 56 56 58 61 66 67 74 79 84 88 93 97 100 103 107 103 111 116 121 120 104 81 61 48 40 35 32 32 34 36
51 47 42 39 38 37 39 44 52 56 58 60 57 57 57 58 60 65 67 71 76 81 85 91 95 100 101 106 111 111 114 120 123 121 116 88 67 53 44 38 34 33 34 37
51 47 41 40 40 40 45 51 54 56 57 62 61 59 60 61 64 67 70 75 80 83 87 93 98 101 105 109 111 113 113 121 121 120 127 94 73 59 48 41 36 34 35 36
49 44 42 43 43 47 55 57 58 60 64 63 61 61 61 65 67 69 75 80 82 87 90 95 100 103 107 110 113 116 118 123 122 126 124 101 80 62 53 46 40 35 35 37
47 42 44 46 48 54 58 61 63 65 66 64 63 66 67 69 69 73 79 82 85 88 93 98 103 105 109 113 115 121 120 125 125 129 125 107 83 68 56 48 43 39 35 35

GFSNW_250_spd_099.txt.gz
Wind_Speed
53 51 48 45 40 35 29 28 27 27 27 30 31 36 38 43 46 54 57 62 73 79 79 78 74 64 54 44 32 23 18 13 6 9 13 17 25 29 38 49 53 54 58 63
51 47 43 38 35 27 25 27 24 22 24 27 29 34 37 40 46 51 56 61 68 78 80 79 76 67 59 51 39 29 22 15 6 4 13 18 24 31 37 43 47 51 57 62
49 42 36 33 30 28 27 24 20 21 21 23 28 30 35 38 45 50 54 59 68 74 81 81 77 70 66 56 47 36 26 19 14 8 5 13 21 27 34 39 42 47 54 59
46 38 34 28 26 27 26 23 20 19 20 22 24 27 33 36 44 49 53 61 66 72 80 80 78 77 70 65 54 44 31 23 17 17 8 8 15 22 28 34 39 44 49 48
45 38 30 26 27 29 26 22 17 18 19 19 21 26 31 36 43 48 52 60 65 69 76 81 82 82 75 70 59 52 38 26 19 14 12 9 12 17 24 30 36 40 42 45
43 37 30 27 29 28 21 19 16 15 15 17 20 24 29 33 41 46 51 58 64 65 73 80 85 85 79 77 73 59 49 34 22 14 10 11 14 17 22 28 34 38 41 47
42 34 29 27 31 24 20 15 13 14 14 15 18 23 26 31 39 47 52 56 61 64 68 77 83 87 85 82 73 71 56 43 28 18 13 10 13 17 21 25 31 35 39 44
40 33 30 28 26 22 19 14 14 13 12 14 18 22 24 30 37 43 49 55 61 65 65 72 82 88 92 86 82 75 67 52 34 23 17 14 14 16 21 26 29 34 39 42
39 35 30 29 23 20 18 15 15 14 12 13 17 21 23 28 34 40 47 54 58 63 66 70 76 84 89 90 90 81 75 63 48 28 22 20 17 19 20 25 28 33 36 40
40 32 29 27 22 19 19 16 16 17 13 12 15 20 21 25 32 38 46 53 57 60 64 66 71 77 83 84 83 83 74 65 53 37 24 23 21 22 25 27 31 31 33 37
38 33 31 25 21 23 22 18 18 18 13 11 14 19 20 23 30 37 44 49 57 60 63 67 70 72 83 80 87 83 86 66 61 46 32 23 20 24 27 30 31 31 32 35
38 32 29 25 23 25 24 21 22 19 14 10 14 19 18 24 28 34 42 48 54 58 64 67 67 73 78 81 87 86 92 74 71 53 37 25 17 23 27 30 31 32 33 36
38 33 29 26 27 28 26 23 23 21 14 13 13 17 19 25 27 32 37 45 51 58 63 68 69 72 76 81 87 89 94 85 79 63 44 32 22 18 25 31 33 34 35 37
41 35 28 30 34 31 28 25 23 20 16 13 12 17 20 24 27 30 34 41 49 56 61 66 70 72 75 81 85 84 92 92 88 75 50 38 26 21 20 27 33 36 37 37
42 36 30 35 33 32 28 25 22 21 18 15 15 19 21 25 29 31 35 39 45 53 59 65 69 72 76 79 82 90 91 96 94 87 63 43 30 22 22 23 30 34 37 40
43 37 34 34 34 32 29 27 23 22 19 18 18 19 22 26 30 33 38 41 44 50 58 64 69 74 75 80 83 88 90 95 101 94 83 50 36 26 22 24 27 32 36 39
44 36 36 35 32 31 28 24 23 23 20 20 21 21 22 26 30 33 36 41 45 51 58 64 68 71 73 78 82 90 92 94 101 103 91 74 49 33 25 21 26 31 35 38
43 36 35 34 30 28 22 23 25 25 24 23 25 23 24 28 30 34 38 41 45 50 57 63 68 72 77 79 81 85 90 96 99 104 107 98 63 44 30 24 23 27 34 37
41 36 33 31 30 25 24 26 28 26 27 28 26 26 27 30 33 38 39 42 47 50 57 63 68 73 76 79 83 86 91 95 99 102 107 110 84 55 40 29 24 24 28 35
41 36 31 30 30 27 25 27 28 29 31 33 29 29 31 32 34 39 42 45 48 52 57 64 68 73 77 80 86 89 92 96 101 104 110 113 98 74 52 39 30 25 26 30
40 37 31 33 33 30 27 26 30 31 33 33 32 32 33 34 37 40 43 45 49 53 59 65 70 75 79 85 86 89 94 96 101 104 110 113 109 96 65 47 36 30 27 28
45 41 38 35 34 32 23 28 31 32 33 33 34 36 35 37 42 42 44 48 51 55 61 67 72 77 81 85 88 91 95 98 103 109 110 115 113 106 75 57 43 35 31 29
47 42 39 37 37 29 27 32 34 36 39 39 39 39 38 41 41 45 48 53 55 58 63 68 73 78 83 86 89 95 99 101 105 109 113 115 120 109 89 66 51 40 35 31
47 44 43 40 36 34 37 37 39 42 42 43 43 41 44 45 48 48 51 55 60 62 65 71 76 81 84 88 92 97 101 104 109 112 115 117 123 122 93 75 58 47 39 34
52 49 45 42 42 41 39 42 45 46 44 46 44 47 49 52 51 53 56 59 63 65 69 74 78 82 86 90 95 99 102 106 110 115 119 120 125 119 102 82 64 52 45 38
53 50 49 49 46 44 44 48 49 48 48 48 49 52 54 53 54 56 59 64 66 69 73 77 80 85 88 92 97 101 105 109 113 117 121 122 128 121 107 86 70 55 48 42
54 51 52 50 46 46 50 52 52 51 51 51 53 55 55 56 56 58 65 68 69 72 76 82 84 88 90 95 99 104 107 111 115 118 122 125 130 129 108 90 74 58 50 45

GFSNW_250_spd_102.txt.gz
Wind_Speed
54 45 41 38 38 39 39 39 36 34 31 20 17 24 25 26 32 40 44 47 56 66 74 79 74 69 59 51 45 34 26 21 16 6 13 17 19 28 45 53 59 63 67 72
53 47 42 38 38 38 37 34 31 30 20 13 16 21 21 24 31 38 43 45 53 63 71 75 74 71 67 58 53 46 33 24 19 15 5 12 21 26 32 44 53 57 59 63
50 45 40 38 38 36 33 30 28 23 13 12 16 18 17 22 29 37 43 45 52 59 69 74 76 74 71 67 60 50 42 30 20 14 9 3 11 22 27 34 43 52 55 59
52 45 41 39 36 33 30 29 25 17 12 11 13 13 14 20 28 36 44 47 51 57 66 72 74 74 73 72 68 62 49 42 29 18 11 7 1 11 22 29 36 42 51 54
54 48 42 36 33 29 28 25 21 16 12 10 10 10 13 19 26 32 40 48 52 55 65 70 75 74 75 73 74 67 61 50 37 24 14 8 4 5 12 21 28 35 39 45
57 49 43 37 33 30 27 22 20 16 13 9 7 8 12 18 24 31 36 45 51 54 61 64 70 75 76 78 78 74 69 63 51 35 20 10 5 3 10 16 23 29 36 39
52 50 44 38 34 32 23 22 19 16 14 7 5 7 11 15 23 29 35 42 49 57 56 65 69 74 76 81 85 82 76 68 60 48 32 17 12 8 9 13 19 24 29 36
49 49 43 38 36 28 26 25 20 18 11 7 4 7 9 14 20 26 33 39 47 54 58 60 66 68 77 82 86 85 86 75 64 55 41 26 15 11 11 13 17 22 27 31
55 47 42 40 35 29 30 26 22 18 12 8 5 6 9 13 16 23 31 37 43 50 56 63 63 66 70 75 84 86 85 85 72 58 47 36 23 15 14 16 19 21 25 30
57 49 44 41 34 31 32 27 23 18 14 9 6 6 7 13 16 22 29 34 40 46 54 59 63 65 66 72 78 86 92 84 79 68 52 42 30 21 18 17 21 22 24 26
55 49 45 39 33 33 32 28 23 19 15 10 8 8 7 12 16 20 27 32 38 44 51 57 63 64 66 68 70 78 86 92 90 81 64 51 35 26 22 21 22 23 27 29
50 48 43 37 36 35 32 28 24 21 16 10 11 8 7 11 15 20 25 31 37 41 46 53 57 63 65 64 72 77 82 86 92 92 71 57 42 30 24 24 24 25 28 30
51 47 42 37 39 35 31 27 26 21 15 12 13 10 8 11 14 19 25 29 34 40 44 49 56 60 66 66 68 73 79 84 90 93 87 68 54 40 29 25 26 27 29 32
53 47 40 39 40 36 31 28 27 23 18 13 14 12 9 12 14 17 23 28 34 38 41 47 54 60 64 67 68 73 80 80 88 92 96 84 72 51 39 28 26 29 30 32
55 49 41 42 41 35 32 31 28 24 18 14 14 13 11 13 15 17 23 28 29 35 41 45 50 58 63 68 68 70 77 81 87 91 96 97 83 75 48 38 29 27 29 33
57 50 43 41 41 37 35 34 31 25 19 16 14 13 13 15 16 19 23 27 30 35 39 43 49 55 61 65 72 71 72 80 85 91 96 100 100 75 65 46 36 30 28 30
57 50 41 40 41 39 39 36 30 26 21 17 16 16 14 15 17 21 22 26 30 36 40 43 49 54 60 65 71 74 76 81 85 89 95 99 102 95 87 56 44 34 30 29
56 49 39 41 40 39 37 35 30 25 23 19 17 17 16 17 19 21 25 28 32 37 41 44 50 55 61 64 69 75 77 79 85 89 93 97 100 103 91 82 55 40 32 30
54 49 40 40 38 36 35 30 27 26 25 22 20 18 17 21 25 23 26 28 32 35 40 45 50 56 61 65 70 75 78 82 85 90 93 97 102 103 98 99 65 50 37 31
55 48 39 36 35 33 32 30 29 28 28 26 23 20 23 23 25 25 28 31 34 38 42 46 51 56 61 65 71 76 78 80 84 89 93 100 100 106 104 107 85 62 46 34
54 45 38 35 34 36 33 32 31 29 28 26 24 24 25 26 27 27 30 31 36 40 44 48 52 56 61 65 71 76 78 84 88 88 94 99 101 106 110 103 99 80 56 41
52 49 46 40 36 33 27 28 30 30 29 27 27 28 29 29 28 31 34 34 40 43 45 51 55 58 63 67 70 76 81 82 87 92 97 100 103 105 110 108 106 101 72 48
55 52 45 43 36 25 27 31 33 29 31 30 30 30 33 32 32 35 36 39 43 46 49 53 58 61 65 69 72 78 81 85 89 93 99 101 105 106 112 112 108 114 90 60
56 51 47 41 32 32 37 36 33 36 36 33 31 33 35 36 36 38 40 42 46 49 52 54 60 64 66 69 75 77 84 86 92 94 102 103 109 109 113 119 109 117 110 75
58 55 48 41 39 40 36 37 40 41 40 35 34 36 40 40 40 42 44 44 48 50 54 57 61 67 70 74 77 79 86 89 94 96 101 105 110 112 116 119 113 124 113 89
61 56 47 46 44 42 41 42 45 46 43 39 39 40 43 42 43 45 45 48 51 53 58 61 65 68 71 77 81 84 90 92 97 100 103 108 111 113 119 121 117 129 118 93
59 53 50 48 47 46 45 48 51 49 46 43 44 46 46 46 45 46 48 53 55 58 62 65 69 72 75 80 84 88 92 96 98 103 105 111 114 117 120 126 118 127 121 97

GFSNW_250_spd_105.txt.gz
Wind_Speed
59 56 54 46 46 38 33 31 27 24 21 21 18 14 12 16 16 23 32 36 46 54 63 71 67 58 58 49 43 36 26 19 14 7 7 16 23 34 45 54 60 66 73 79
57 57 56 49 45 38 33 29 26 20 18 16 12 10 11 11 14 22 31 34 41 50 58 67 73 60 62 62 53 46 35 26 18 11 6 11 21 26 37 46 55 60 65 74
59 57 50 49 42 37 34 27 24 19 19 12 12 8 8 7 13 20 29 35 39 46 55 62 69 72 69 67 64 59 50 37 25 16 8 7 18 29 35 43 52 56 61 67
63 58 52 47 45 38 32 27 21 19 15 15 11 5 5 5 12 19 27 35 41 45 53 60 68 73 72 72 72 70 63 47 36 25 14 7 8 17 27 34 52 57 62 66
59 57 54 48 43 39 33 25 21 18 18 16 9 5 1 4 12 19 24 33 40 46 53 58 65 71 73 75 77 76 72 63 49 33 22 10 4 9 18 30 41 52 57 59
61 55 51 46 44 37 30 25 22 20 22 16 10 7 2 3 10 17 24 30 36 42 54 57 61 68 74 77 80 79 79 71 60 47 33 17 7 2 11 20 30 40 49 53
64 57 51 48 43 35 29 26 24 26 22 16 12 8 4 2 8 15 24 28 34 43 50 52 56 65 72 77 82 82 81 77 71 63 46 29 13 4 7 14 22 29 40 47
56 55 52 46 41 35 30 27 27 27 22 18 14 10 5 2 8 15 22 27 32 41 48 52 51 60 68 69 79 84 84 80 74 69 58 43 30 11 6 11 16 24 31 36
60 50 41 45 41 34 31 30 29 27 24 19 15 10 5 3 7 13 19 25 29 37 43 49 53 57 59 68 73 76 80 84 82 72 69 58 43 29 15 9 14 19 24 30
58 53 45 39 39 34 33 33 29 27 24 19 15 10 6 4 6 12 17 23 28 34 40 46 51 58 58 65 70 73 79 85 87 79 71 67 54 42 28 13 10 17 22 26
58 53 49 42 35 37 36 33 31 27 24 18 15 12 7 4 5 9 15 21 27 32 39 44 50 53 59 60 63 71 71 78 83 87 82 73 61 52 41 28 17 13 20 25
58 54 48 46 40 36 37 35 31 29 25 19 16 13 8 5 6 9 13 19 25 31 35 41 44 51 55 61 66 65 69 73 81 80 84 78 68 60 47 39 30 21 17 22
61 55 50 45 40 39 39 36 32 32 26 20 16 12 10 7 8 11 11 18 24 30 35 38 43 48 52 59 64 63 67 64 79 79 81 85 75 67 57 48 39 30 24 20
60 55 49 44 40 41 41 38 36 32 24 21 17 13 11 10 8 11 14 17 22 28 33 37 41 46 51 56 61 63 66 63 74 74 80 81 84 82 68 59 48 37 30 25
61 56 49 44 43 43 42 38 37 32 26 23 19 15 13 13 9 11 15 19 21 25 31 35 39 44 49 53 57 61 67 67 72 78 76 81 83 83 77 85 68 48 37 29
62 57 48 43 44 44 42 39 38 32 28 24 21 17 14 14 12 11 14 19 25 30 32 35 39 41 47 51 55 60 64 65 67 70 78 84 84 83 78 88 90 79 50 37
61 54 47 45 45 46 45 42 35 31 29 26 23 19 15 14 14 14 15 19 25 29 31 34 38 42 44 50 54 60 63 68 68 68 74 80 82 89 91 83 90 88 84 58
57 52 47 46 46 45 44 39 36 32 30 25 22 19 16 15 15 15 16 19 24 29 33 35 38 41 46 49 53 57 61 68 71 75 72 79 85 87 94 94 95 92 91 93
58 53 49 46 47 46 44 41 38 35 30 26 23 21 19 18 17 16 18 21 25 28 33 36 39 42 46 49 54 59 63 67 71 75 72 79 87 91 94 94 100 103 92 104
58 55 50 45 44 43 44 39 39 35 31 27 25 23 23 20 19 18 19 21 26 28 33 37 41 45 47 51 55 59 63 68 73 80 76 85 84 89 95 94 101 105 94 90
59 54 49 44 42 41 39 36 34 34 32 28 27 27 24 20 22 22 22 25 29 30 35 38 43 46 48 51 56 61 66 70 74 79 81 82 87 92 96 99 102 109 107 88
58 55 53 48 43 40 34 32 33 33 33 31 31 29 26 23 25 25 27 29 34 33 37 41 44 46 52 55 58 61 67 72 75 80 83 83 86 92 98 99 102 110 109 104
61 59 54 49 41 34 34 37 40 37 33 34 35 32 29 28 28 29 28 31 36 37 39 43 46 48 52 56 59 64 68 72 77 81 86 85 89 94 99 101 107 110 113 112
64 61 56 47 37 34 39 40 35 34 38 38 37 33 30 29 30 32 31 33 39 40 42 43 49 52 56 57 61 65 70 74 79 81 88 88 95 97 101 102 107 110 114 115
66 63 56 46 42 43 41 35 34 38 37 36 34 33 33 32 33 35 34 36 41 43 43 45 50 55 57 61 65 68 72 77 80 83 89 92 93 101 105 107 110 113 119 118
69 64 57 51 46 46 44 41 39 38 38 38 38 36 37 37 37 38 38 40 44 45 45 47 51 55 59 64 67 70 76 82 84 87 92 96 98 103 107 109 111 116 123 116
71 66 60 55 52 49 45 43 43 43 42 41 41 39 40 41 41 41 44 45 48 48 49 51 55 58 62 68 70 73 79 85 88 90 95 96 100 102 108 111 118 118 127 121

GFSNW_250_spd_108.txt.gz
Wind_Speed
37 37 50 56 56 54 51 48 41 32 25 18 15 10 5 3 6 11 22 29 34 44 55 64 67 62 60 53 45 34 24 19 13 7 7 11 24 32 37 42 47 51 59 69
41 46 52 57 58 57 55 47 38 32 24 19 14 9 7 2 4 10 20 26 31 40 53 62 69 65 58 63 60 45 33 23 16 11 5 13 20 29 36 40 46 53 57 62
40 50 52 51 57 58 53 47 37 29 23 20 15 14 7 4 2 10 19 24 29 35 48 58 66 69 65 63 69 65 50 35 22 13 7 6 16 22 31 38 45 53 60 63
47 55 61 60 58 52 49 44 36 29 24 21 19 15 9 6 2 11 18 26 28 35 42 56 62 69 70 69 71 70 68 50 33 21 11 3 8 20 28 39 49 51 56 65
48 50 60 60 59 53 47 41 35 28 23 23 21 15 11 6 4 12 19 25 30 33 39 49 60 66 67 72 73 72 72 69 53 37 21 10 2 9 20 34 43 50 56 61
50 55 56 60 58 50 43 38 32 28 27 27 22 17 12 7 5 11 17 22 29 32 40 47 56 61 67 69 72 74 74 74 69 58 40 24 10 1 8 21 34 43 52 60
55 60 63 57 55 49 43 36 30 30 31 27 21 17 13 7 3 10 15 20 27 33 40 45 48 59 65 69 68 70 72 74 74 64 51 39 26 10 3 10 20 31 41 51
58 66 62 57 52 48 41 34 32 34 32 26 22 18 13 7 2 7 13 19 25 33 38 42 46 56 57 64 68 66 68 68 68 65 63 52 40 25 12 5 13 21 31 39
63 59 60 55 51 46 39 35 35 36 31 26 22 18 13 8 3 6 13 18 23 28 35 42 46 49 55 59 65 68 69 66 67 69 65 62 56 42 28 14 5 13 21 30
65 60 53 52 48 43 38 37 36 34 30 26 22 18 14 8 2 5 11 17 22 25 31 39 42 46 52 53 60 63 72 73 68 68 70 66 60 57 49 32 17 8 14 22
64 60 55 48 47 43 39 37 35 32 29 26 22 18 13 8 3 4 9 15 20 26 30 34 40 44 50 51 55 55 63 68 66 67 71 76 64 63 55 49 36 22 12 14
63 57 51 45 43 45 42 38 35 32 29 26 22 17 13 8 3 2 7 13 18 23 28 33 38 41 44 48 53 57 58 60 67 71 65 70 74 61 58 57 54 44 27 15
62 57 50 46 44 45 43 39 35 32 30 26 22 16 12 9 6 2 6 12 17 22 28 31 35 39 44 48 50 55 55 58 59 62 74 59 74 78 61 57 56 52 47 30
61 55 51 45 45 43 42 38 35 32 31 26 20 15 12 11 8 3 5 11 15 20 24 29 33 37 41 46 50 54 57 58 59 63 69 69 64 72 72 63 62 60 55 48
61 55 49 45 45 44 43 38 34 31 29 26 21 18 15 12 9 6 5 9 14 19 24 29 32 34 38 43 48 51 55 59 53 64 66 67 64 62 74 76 73 66 76 64
60 55 50 47 45 44 43 40 37 33 29 27 23 21 17 15 11 9 8 11 15 18 23 27 31 35 38 40 45 49 54 58 60 63 62 68 71 72 74 75 84 79 72 83
59 53 48 43 45 44 44 42 38 34 31 28 24 20 18 17 14 12 10 12 16 20 22 26 30 35 38 40 42 48 54 59 60 64 63 63 75 82 80 77 80 84 82 79
60 55 48 46 45 45 46 41 37 34 33 30 26 23 21 17 16 14 12 14 16 20 23 26 29 33 37 41 44 47 52 54 61 63 64 70 75 75 81 80 85 90 87 74
63 56 52 50 48 48 46 43 39 35 35 33 28 25 23 19 18 15 14 15 16 21 24 26 30 34 37 42 45 47 52 56 58 65 68 69 75 76 77 83 89 90 91 94
63 58 53 50 50 48 47 44 42 39 36 32 28 25 22 20 18 16 18 18 17 21 26 28 32 34 38 41 46 50 53 56 59 64 68 71 74 78 79 84 90 93 96 101
58 56 52 50 50 48 47 44 41 40 37 34 29 27 24 22 20 18 19 20 21 21 25 29 32 36 39 43 48 51 54 58 62 64 69 73 78 77 80 86 90 97 94 103
59 55 51 51 49 48 45 42 41 40 37 36 33 29 25 25 23 22 22 23 25 23 24 30 32 36 40 43 47 51 55 58 63 65 70 74 77 82 84 87 93 97 100 102
63 58 51 48 47 41 39 40 44 46 37 31 32 31 29 28 27 26 26 28 29 28 27 31 34 38 43 46 46 51 56 59 63 66 71 74 80 81 87 89 93 95 100 103
65 59 57 49 44 39 42 44 44 37 32 34 36 34 32 31 31 31 30 31 31 34 32 32 35 39 45 49 50 52 59 60 64 67 72 77 81 84 88 89 94 98 105 105
65 62 56 48 46 47 45 44 39 35 39 40 37 36 34 33 34 37 35 32 33 36 36 38 40 43 47 51 52 56 60 63 66 71 74 77 83 86 90 94 97 99 105 111
68 64 57 52 49 49 49 45 41 39 40 40 39 36 36 35 36 39 38 35 36 41 40 43 44 48 50 53 56 58 63 66 67 73 76 79 84 90 93 94 100 104 109 113
71 66 62 57 55 53 50 47 43 42 42 39 37 36 34 35 37 40 40 41 44 47 46 46 47 51 53 55 58 60 66 68 70 76 79 82 87 92 93 95 103 104 112 109

GFSNW_250_spd_111.txt.gz
Wind_Speed
31 39 46 54 60 61 60 57 55 49 44 38 31 23 16 11 3 3 13 22 30 39 51 59 57 57 58 53 41 35 26 20 13 9 6 8 14 19 26 33 40 48 63 71
35 44 48 51 59 61 58 59 58 52 44 39 31 23 17 11 5 6 14 22 29 36 47 56 62 59 59 59 57 44 35 27 18 12 9 8 14 19 26 33 38 48 51 62
50 52 51 52 57 56 59 63 58 50 44 37 30 24 18 12 9 10 18 23 27 35 46 55 64 63 62 64 70 62 50 38 28 21 15 9 9 19 26 33 35 39 47 60
52 51 52 53 55 57 64 62 56 50 45 37 30 24 19 14 13 14 18 24 27 33 42 54 60 66 72 67 71 73 67 54 41 29 21 13 8 15 24 28 33 38 45 53
53 54 55 59 61 64 63 58 53 48 40 35 31 25 20 15 15 15 18 22 26 29 36 50 62 64 69 70 74 74 70 69 58 44 32 20 11 6 20 22 28 34 40 45
43 43 48 53 66 67 60 54 50 44 39 36 29 25 21 17 14 16 18 22 27 29 35 43 54 59 65 67 70 73 74 74 68 63 51 37 21 10 2 8 19 28 35 41
41 47 58 64 64 65 59 51 44 41 39 34 28 25 21 16 13 16 18 22 27 29 35 39 47 56 64 68 68 69 68 72 72 69 64 58 38 23 11 5 9 16 26 35
35 43 62 68 65 60 55 48 43 41 39 33 29 25 20 15 15 16 17 21 24 30 32 38 42 45 52 59 64 64 66 68 66 67 68 69 58 46 32 18 6 8 18 25
41 52 64 62 61 56 52 45 41 41 38 33 29 24 19 15 15 16 17 21 24 29 32 33 36 40 47 49 58 62 59 64 64 63 61 62 58 59 52 40 25 13 9 15
40 56 63 62 59 53 48 42 42 40 37 32 27 23 18 15 15 14 15 19 24 28 31 34 37 38 44 43 50 59 61 54 60 62 63 61 58 57 58 51 45 32 20 15
55 64 62 58 55 52 44 42 41 39 35 30 26 22 17 14 12 12 12 16 22 25 28 35 37 44 44 40 41 50 56 61 62 56 58 66 57 58 58 54 53 48 40 24
57 61 61 56 52 49 42 42 41 37 33 28 25 22 17 13 9 8 10 15 19 22 25 29 34 38 41 47 42 48 48 55 61 60 60 60 57 59 56 56 56 52 49 45
59 59 57 54 50 46 43 41 39 35 30 28 24 20 17 12 7 5 8 11 15 19 23 27 30 35 38 42 46 48 47 48 57 60 61 56 62 64 59 60 59 58 54 51
59 56 53 52 51 45 43 40 38 34 30 26 23 20 16 11 6 3 4 8 13 18 21 23 29 32 37 38 42 45 49 52 53 55 58 57 55 62 55 61 67 55 55 58
58 54 50 48 50 47 43 40 37 34 29 25 22 19 16 12 7 3 1 6 11 15 19 22 26 30 33 37 39 43 46 49 51 53 55 58 62 55 66 72 67 71 58 56
59 53 50 48 48 46 42 40 37 35 31 26 23 20 16 13 10 6 4 4 9 14 16 19 24 25 30 35 38 41 45 47 50 51 56 58 60 65 67 61 72 72 74 67
58 54 50 50 48 45 42 39 36 34 30 27 24 20 17 13 10 8 5 4 7 11 15 17 21 25 29 32 37 40 43 46 49 52 54 59 61 62 65 62 72 75 75 65
56 53 52 51 48 45 41 38 34 32 28 26 25 21 18 16 13 11 9 8 9 10 13 16 20 22 26 31 34 38 42 46 47 51 54 59 62 64 68 65 75 77 83 70
57 53 50 51 48 46 43 39 35 32 30 29 26 24 20 18 17 13 12 12 12 13 15 16 19 22 26 30 33 37 41 43 48 51 54 56 60 62 67 65 73 77 80 79
59 54 52 50 50 48 43 39 36 35 34 30 29 25 24 21 20 17 16 15 15 17 18 18 20 22 26 30 34 35 39 44 46 51 53 55 58 63 66 70 71 76 79 81
60 55 52 49 50 48 43 40 39 34 33 32 31 28 26 24 21 19 18 16 15 18 20 21 24 26 29 31 34 37 41 45 48 52 57 58 60 65 68 71 76 79 79 83
63 59 56 52 49 47 45 42 40 38 35 33 33 30 28 25 22 20 20 19 19 19 21 25 25 29 32 35 37 39 42 45 50 53 57 60 61 66 69 72 78 80 78 87
67 61 57 54 51 46 42 40 42 44 43 37 35 33 31 25 23 25 24 25 24 24 25 27 29 31 34 37 39 42 43 48 52 55 59 63 66 68 73 75 78 81 86 89
71 64 56 52 45 43 47 50 51 49 42 40 39 37 33 29 29 28 28 30 29 30 32 31 32 33 35 38 42 46 49 49 54 57 61 64 66 69 74 78 79 85 88 94
72 68 57 53 47 48 48 50 50 46 43 42 42 39 35 32 31 30 32 33 33 34 36 36 35 36 39 41 44 48 50 53 57 57 63 66 68 72 76 81 84 88 90 95
72 68 62 59 56 51 52 50 50 46 41 40 41 40 38 36 33 35 36 35 36 38 38 39 40 42 45 47 48 51 53 57 58 62 65 69 70 75 78 83 86 92 98 95
72 70 65 62 56 54 55 51 50 46 44 44 40 38 38 37 36 38 35 37 39 42 42 43 45 46 49 52 52 55 58 61 62 65 68 72 73 77 82 87 88 94 98 100

GFSNW_250_spd_114.txt.gz
Wind_Speed
13 19 38 47 54 58 65 65 65 64 59 51 43 35 25 16 8 6 11 21 29 33 45 52 51 45 40 37 33 28 21 16 13 12 10 13 17 20 21 22 25 30 44 52
14 29 44 54 61 66 68 68 68 64 57 50 42 34 24 17 8 1 11 20 30 40 47 55 55 54 49 46 45 38 30 22 18 16 15 13 21 18 23 25 27 33 43 50
25 39 48 60 67 68 70 71 67 61 54 48 41 32 25 18 10 9 16 22 29 39 48 55 57 57 58 59 58 51 41 33 26 21 19 17 18 20 18 20 28 32 42 48
38 47 55 62 65 69 70 71 65 60 54 46 40 31 26 20 16 15 19 21 26 35 46 53 60 64 61 66 71 65 60 48 39 30 23 21 16 18 16 21 24 29 40 48
49 57 54 58 63 67 71 68 65 59 51 44 37 32 27 22 17 18 20 21 25 33 41 50 58 62 64 68 69 70 70 67 60 45 35 27 19 15 11 12 15 15 22 36
55 57 55 56 61 66 67 65 64 55 47 42 36 32 27 23 20 22 22 23 25 32 39 45 52 58 62 65 68 70 70 74 70 66 57 40 26 20 10 5 12 14 21 30
57 57 56 56 60 66 66 64 60 52 46 40 36 31 26 24 22 23 24 24 25 29 33 42 50 52 58 60 63 67 69 73 72 71 70 65 48 32 18 10 4 13 21 33
53 53 52 59 65 62 62 61 54 49 43 39 35 29 26 25 23 25 26 26 28 29 32 33 41 47 54 60 60 60 62 64 66 68 67 66 62 56 42 23 10 9 21 30
46 47 54 64 64 60 57 57 50 45 40 38 34 29 28 25 24 25 28 28 29 31 34 32 34 36 48 54 53 57 60 60 61 60 62 61 59 58 52 45 36 22 8 12
41 49 60 64 62 58 56 52 46 42 39 35 31 28 26 25 25 22 24 26 28 30 33 35 36 36 38 45 47 52 53 54 55 53 57 57 55 53 57 51 43 40 32 20
50 58 61 61 58 55 53 49 44 39 37 33 31 28 26 25 22 20 20 23 24 25 29 32 36 38 42 39 43 49 49 51 53 51 49 53 48 51 51 46 45 41 40 35
57 61 58 56 54 51 49 46 42 38 34 30 28 26 23 21 19 18 18 19 21 23 25 29 31 33 38 40 41 43 41 47 51 46 51 49 46 48 46 48 46 45 44 40
59 58 54 54 53 49 47 43 40 36 32 28 27 25 21 18 17 17 17 17 19 21 25 27 29 31 34 37 39 39 43 47 44 49 54 50 49 51 49 48 48 44 45 40
56 55 53 50 50 48 44 41 38 34 31 27 25 24 20 16 14 13 14 13 14 16 18 21 25 27 31 33 37 38 41 44 45 39 48 48 47 54 54 56 51 45 42 40
54 53 50 49 47 46 43 40 36 33 29 25 22 20 18 15 13 11 9 11 11 12 15 17 19 24 27 28 32 35 38 40 42 42 39 47 48 50 53 55 54 56 54 44
52 50 48 46 44 44 41 38 35 32 30 25 22 21 18 15 13 10 7 5 7 8 10 12 17 21 23 26 28 33 35 39 42 43 44 46 47 52 53 51 56 61 60 53
50 46 47 46 44 42 40 38 35 32 28 24 22 21 18 16 14 11 8 4 1 4 7 10 14 16 19 24 28 30 33 36 40 44 47 47 49 53 55 55 54 57 61 61
50 47 47 47 44 43 41 39 34 32 29 25 23 21 18 15 13 11 8 5 5 5 6 8 12 15 19 23 26 29 32 35 38 42 46 47 48 52 53 57 56 60 63 63
50 48 46 47 45 41 38 38 36 33 30 28 26 23 20 17 15 12 10 9 9 9 10 10 11 14 17 21 24 28 31 34 39 40 45 48 51 51 54 58 58 61 64 63
54 51 49 50 47 44 41 38 37 35 32 29 27 25 22 21 19 17 16 15 14 14 15 15 12 13 16 20 24 28 31 34 38 41 44 49 52 52 55 56 61 59 60 66
52 53 51 53 50 47 44 41 38 36 34 32 30 28 26 24 23 22 21 19 19 18 18 18 18 17 18 21 24 28 32 35 40 44 47 49 55 53 56 58 58 60 64 64
57 58 55 53 53 49 45 42 39 38 35 33 33 31 29 28 26 25 23 22 21 19 20 20 22 23 23 25 27 28 33 38 42 47 50 48 55 58 57 60 61 66 66 65
61 62 58 56 55 51 47 42 40 40 42 41 37 34 32 30 28 26 24 24 24 23 24 24 25 27 27 28 29 30 35 40 44 49 51 52 55 59 61 60 63 67 71 70
62 64 62 58 53 52 52 51 47 46 40 37 35 34 31 29 28 29 25 27 28 27 29 29 31 32 30 29 31 35 38 43 47 51 54 56 57 59 61 63 65 70 70 77
67 65 64 61 58 57 57 54 52 49 47 44 41 39 36 35 33 31 30 29 30 31 32 33 36 38 36 35 36 39 43 45 50 54 57 61 61 63 64 65 67 70 72 77
70 67 65 67 64 60 58 56 55 51 49 47 45 42 41 37 35 37 36 36 36 36 34 37 39 42 42 40 41 44 47 49 53 56 59 61 62 62 65 69 72 72 74 79
74 71 71 68 69 64 60 55 55 52 51 49 46 46 42 39 38 39 37 36 35 34 36 39 41 43 45 47 47 48 52 54 57 58 61 63 63 64 69 71 76 76 80 81

GFSNW_250_spd_117.txt.gz
Wind_Speed
4 14 26 42 55 62 66 73 68 66 60 54 45 37 27 19 10 5 15 19 29 39 38 36 35 36 32 30 22 17 12 9 7 12 12 14 19 23 21 19 18 24 33 41
11 23 36 50 58 66 71 73 70 64 59 51 42 35 29 25 12 10 17 27 37 44 45 45 42 43 41 36 30 25 19 16 12 14 14 16 22 25 21 17 18 22 28 37
19 29 41 50 63 70 74 71 68 63 57 49 42 36 32 22 16 16 24 32 39 46 53 53 53 57 45 43 44 38 31 23 18 13 16 17 26 25 21 17 18 21 26 34
27 35 46 59 66 71 72 71 67 60 55 48 42 37 30 21 20 20 27 32 40 48 57 59 58 59 65 56 57 52 40 31 24 20 16 22 33 28 21 18 13 13 18 24
34 42 48 61 67 69 70 70 63 57 51 47 42 36 28 23 22 23 26 32 39 47 55 58 63 65 62 66 67 57 51 47 37 30 25 24 29 28 24 20 12 11 10 21
41 41 54 62 64 65 70 67 61 55 51 47 42 35 28 24 24 25 25 30 37 44 49 56 61 63 68 68 70 69 67 56 57 47 35 28 27 29 24 20 15 14 10 17
48 50 52 57 61 65 67 63 57 53 51 45 41 34 28 26 25 27 28 31 34 39 42 51 57 60 64 68 69 68 69 70 64 60 59 42 30 28 26 22 21 17 14 12
48 46 46 52 59 62 61 58 55 52 48 43 38 33 28 26 27 27 30 33 36 34 39 46 49 54 58 63 68 69 69 68 69 68 63 56 57 49 38 32 17 9 3 8
43 48 50 57 57 57 56 54 52 49 45 43 38 33 30 29 28 28 30 34 36 38 38 41 44 47 48 54 60 63 64 67 66 66 63 62 54 55 53 39 24 7 16 23
40 48 54 57 54 55 52 49 49 47 42 39 35 31 30 27 27 27 27 29 32 35 37 39 41 42 46 50 52 56 56 59 61 60 62 61 58 58 56 49 40 29 17 4
37 49 53 51 49 50 50 45 45 44 39 37 34 32 28 25 24 24 25 26 27 29 31 37 38 38 44 43 44 48 48 50 55 56 56 57 56 53 51 45 44 38 33 28
42 46 49 44 45 45 43 40 40 40 36 35 32 29 25 23 21 21 22 23 23 26 30 32 34 36 39 41 42 41 47 49 50 51 49 49 48 50 51 49 45 43 41 37
41 44 43 41 42 41 38 37 37 35 32 32 30 25 22 20 20 20 20 21 20 22 25 26 30 31 35 36 38 38 39 42 41 44 45 45 46 48 47 46 46 45 42 40
39 41 39 40 41 39 37 35 33 30 29 29 27 25 21 19 18 18 17 15 15 17 19 21 22 24 28 30 33 33 37 39 40 39 43 43 37 37 42 43 42 39 41 40
37 38 36 37 37 38 35 33 31 27 25 25 24 22 19 17 15 13 13 13 11 11 13 16 17 20 23 25 27 30 32 34 36 40 39 38 38 38 38 37 39 39 41 40
37 37 37 36 36 37 34 31 29 25 24 23 22 20 18 16 13 11 11 10 8 6 7 10 12 14 19 21 23 26 29 31 33 36 38 38 36 38 35 36 38 40 38 43
37 36 35 38 37 37 34 31 28 26 24 21 20 19 18 17 15 12 9 8 6 3 1 5 8 10 13 15 17 21 24 28 32 34 37 38 40 38 41 39 43 41 41 40
40 40 39 37 37 39 35 32 29 27 25 22 21 19 18 17 16 14 12 10 9 6 6 6 7 8 10 12 15 18 21 25 29 33 36 38 41 43 40 43 43 46 46 44
45 42 42 39 38 37 37 36 33 31 28 25 24 22 21 19 16 15 14 14 11 11 12 11 11 11 12 14 16 20 23 26 29 33 36 40 41 43 45 45 45 46 44 47
44 46 45 44 43 40 40 39 37 34 31 29 28 26 24 22 21 20 18 16 15 15 16 16 17 17 18 18 19 22 23 25 30 34 37 40 44 48 46 49 51 48 51 48
46 50 47 48 48 48 44 42 40 37 34 32 32 31 29 27 26 25 22 21 19 20 22 21 21 21 22 22 22 23 23 26 30 35 38 41 45 49 48 48 52 53 52 53
45 54 55 54 53 52 50 46 43 41 39 35 36 35 33 32 31 29 27 24 24 25 26 25 27 25 25 25 26 25 25 27 31 34 39 42 46 48 48 47 51 54 54 58
48 55 56 55 56 54 50 52 46 42 44 46 41 39 38 35 34 33 30 29 29 29 31 30 28 28 28 29 29 28 29 30 33 36 39 44 47 49 48 49 53 56 56 57
50 58 59 59 57 52 52 56 58 54 53 50 44 43 42 41 39 35 35 33 31 29 28 27 29 29 30 33 35 34 33 33 36 40 42 45 46 48 49 51 55 57 59 63
46 59 60 57 57 56 58 61 63 62 57 54 51 49 46 44 40 40 36 31 30 30 27 29 31 33 35 38 38 39 38 40 42 45 46 47 48 48 51 54 58 60 62 66
42 50 62 61 64 64 65 65 65 64 62 59 55 51 46 43 40 39 32 33 37 32 35 32 32 33 35 41 41 43 44 46 46 44 49 47 49 50 55 59 61 63 67 69
38 42 63 68 69 71 69 66 66 65 66 63 59 58 53 49 46 44 39 40 34 37 37 35 33 36 37 43 46 47 47 50 47 47 49 50 52 55 60 63 65 67 70 73

GFSNW_250_spd_123.txt.gz
Wind_Speed
26 26 28 32 41 48 51 61 60 58 54 46 43 44 43 37 28 26 25 26 23 22 18 15 11 5 1 1 2 3 5 6 8 9 10 10 12 14 15 12 10 11 12 12
35 31 30 34 41 50 62 64 58 55 49 48 49 49 50 44 38 36 35 33 31 31 29 28 23 18 13 9 10 9 8 7 6 7 8 10 9 12 9 10 13 15 17 18
39 34 34 36 51 62 66 61 55 49 52 53 53 55 58 58 53 49 46 43 41 42 40 40 36 30 24 20 18 17 16 15 12 10 8 12 18 21 19 12 16 18 17 21
40 35 38 57 60 63 60 54 49 50 54 56 57 58 60 63 64 61 57 56 52 52 51 50 45 42 35 30 25 26 23 23 18 13 15 26 26 28 22 18 19 22 20 25
33 45 53 59 59 56 51 49 52 52 55 55 57 60 60 63 65 66 66 68 66 64 62 59 57 53 51 43 35 35 34 30 28 22 36 37 32 32 24 21 23 25 21 27
47 52 54 54 51 47 46 48 51 52 53 55 56 59 59 61 63 64 64 68 71 74 73 71 66 63 60 58 50 45 41 35 35 37 45 44 40 35 29 27 25 27 23 28
47 47 46 45 44 44 45 47 49 50 51 52 52 55 58 59 60 63 64 65 67 71 75 77 75 73 69 63 65 56 49 39 35 39 43 50 49 41 35 24 24 24 26 29
38 38 39 38 39 39 42 43 45 46 47 48 49 49 50 54 57 60 61 62 64 67 69 71 74 72 75 77 70 67 66 54 47 45 48 44 42 40 38 38 33 18 21 32
30 30 33 32 32 32 35 37 38 40 42 41 43 44 45 47 50 53 55 57 59 62 63 67 70 71 72 73 76 74 67 63 61 60 59 58 54 47 34 23 27 29 27 24
23 24 26 26 25 26 27 28 31 33 35 36 38 37 38 39 42 45 48 50 53 55 58 61 63 65 65 67 70 72 73 72 72 68 68 66 58 48 40 38 30 21 22 28
15 15 16 17 19 19 20 21 23 25 28 31 30 31 31 33 34 36 40 42 44 46 50 53 55 58 62 65 65 67 65 65 67 68 64 62 56 52 53 46 38 35 26 20
6 8 8 9 12 13 13 13 15 17 20 22 24 25 25 26 26 28 32 33 35 38 41 44 46 49 50 52 55 58 60 60 61 58 57 56 55 54 54 55 49 45 36 30
6 4 2 4 3 6 7 7 8 11 13 15 15 17 18 19 19 21 23 25 27 29 31 34 36 39 42 45 46 47 47 50 52 51 48 47 49 49 48 46 47 48 48 43
14 10 8 5 2 3 3 4 5 5 6 7 9 9 11 11 12 13 15 17 19 21 23 26 28 30 32 35 35 37 39 38 39 40 42 40 39 38 36 36 36 35 37 43
11 17 16 12 12 9 8 9 8 7 8 7 4 3 5 6 7 8 9 11 13 16 17 19 21 23 25 26 28 29 30 31 32 33 33 35 36 35 34 33 30 31 28 28
41 16 19 21 18 18 16 14 14 13 11 11 11 7 4 5 5 5 6 6 8 9 12 14 17 18 20 22 24 26 26 26 26 26 27 27 29 29 30 30 30 30 29 32
48 54 22 22 26 23 23 23 22 20 18 14 14 14 13 12 11 10 9 10 10 11 12 13 15 17 19 20 21 22 23 23 23 23 24 23 23 24 25 26 27 26 29 31
52 46 48 24 27 28 27 26 27 27 27 24 20 17 18 18 18 17 17 16 16 17 18 18 18 18 18 19 21 22 23 23 24 23 21 23 23 23 25 24 28 28 30 31
53 61 53 34 20 24 34 33 30 27 28 32 31 26 23 22 22 22 21 21 22 23 23 22 22 21 21 22 22 23 24 24 24 23 22 24 25 24 25 25 27 30 32 32
63 61 43 42 27 23 18 31 37 32 28 30 35 36 34 31 28 27 26 25 24 26 26 25 24 23 24 24 25 27 27 28 28 26 24 22 23 23 24 27 30 31 31 36
78 66 42 59 49 36 23 15 30 37 34 32 37 38 40 41 38 34 32 31 29 28 28 28 28 27 27 27 29 30 32 32 31 29 26 25 24 24 26 29 31 34 38 39
73 68 62 64 50 42 31 16 26 37 41 39 44 44 43 45 45 44 41 38 34 34 32 32 32 33 32 32 32 32 35 32 32 29 26 27 28 28 30 31 34 36 38 41
75 75 75 68 54 55 40 35 27 39 48 51 51 49 45 48 48 46 47 43 38 41 36 36 37 36 35 35 35 34 31 30 29 30 29 27 28 30 32 33 35 38 42 44
79 78 74 68 61 47 53 45 39 40 41 53 59 58 56 51 52 48 45 44 44 43 39 43 45 39 40 38 37 35 32 26 27 29 33 33 34 36 38 40 43 46 48 49
79 81 76 75 72 57 65 64 54 49 40 43 60 63 63 61 56 52 47 44 45 41 44 52 53 48 45 41 41 39 37 29 29 29 31 35 37 40 43 45 48 49 51 55
80 78 79 75 73 67 66 66 58 51 42 43 50 64 66 67 63 54 50 45 45 49 54 56 58 54 49 46 45 43 36 34 34 35 35 37 42 44 47 50 52 54 55 58
75 75 78 78 75 68 65 64 61 52 44 41 47 59 69 69 69 59 52 51 57 58 59 61 64 61 55 51 50 47 43 40 41 39 39 41 46 50 52 54 56 58 61 65

GFSNW_250_spd_126.txt.gz
Wind_Speed
56 59 67 67 66 65 63 59 56 51 51 49 44 40 39 35 30 26 24 20 17 11 5 1 2 4 5 8 8 8 9 8 9 7 9 11 9 12 14 16 13 13 11 10
65 66 66 65 62 60 57 57 57 57 56 56 50 47 44 41 38 35 33 29 25 20 15 11 10 10 9 9 9 9 8 9 7 7 7 7 10 9 6 6 2 3 5 2
62 63 61 58 57 57 58 59 62 63 60 61 56 56 52 50 48 46 44 40 35 32 27 22 19 16 16 16 16 14 14 16 15 16 14 10 10 13 10 9 13 12 10 14
60 57 52 52 54 52 56 59 65 66 65 65 64 65 62 61 61 60 56 51 50 46 40 33 28 26 26 24 22 24 22 20 17 23 22 19 22 21 19 19 20 18 14 25
51 47 47 47 51 53 56 58 60 60 62 65 64 66 68 66 66 69 69 67 61 58 54 47 42 38 36 36 34 31 28 21 28 28 27 27 28 24 25 25 26 24 21 24
47 45 43 47 47 50 53 56 57 59 60 61 63 64 68 67 67 69 73 75 73 68 64 60 55 53 50 46 38 32 33 34 36 38 31 28 27 27 27 26 31 30 30 27
43 43 42 44 46 48 49 50 51 54 58 59 61 64 64 67 69 69 72 74 75 75 75 71 69 63 56 46 41 37 40 40 42 43 39 34 29 25 24 25 26 28 34 33
39 40 40 42 42 43 45 44 43 48 51 53 56 58 59 60 62 65 68 68 72 74 73 77 76 71 63 58 57 55 55 54 52 44 36 30 25 24 23 25 23 25 32 31
28 33 35 35 37 38 39 41 40 40 41 44 47 50 52 53 57 58 61 64 66 66 67 69 68 69 68 69 67 63 62 64 61 57 54 45 30 25 26 21 21 21 19 27
28 24 26 28 28 31 32 34 34 35 34 36 39 43 44 45 47 50 54 55 58 59 61 64 64 64 64 66 69 70 68 67 60 55 50 50 48 42 27 23 19 13 14 17
28 24 21 19 22 24 26 27 28 29 30 28 32 35 36 38 39 42 45 46 49 51 54 57 59 59 60 61 63 63 63 61 58 55 55 56 55 50 49 39 26 19 12 8
39 24 21 19 16 19 19 20 21 23 24 25 25 27 29 30 31 33 35 37 41 42 44 46 49 52 53 54 54 55 57 57 55 56 53 51 52 54 52 46 42 41 28 11
60 36 21 18 19 18 17 17 17 18 19 21 22 23 22 23 24 24 27 29 31 34 35 36 38 39 41 44 44 46 45 46 48 50 49 47 47 48 48 48 44 38 36 36
61 61 38 19 17 17 21 18 16 17 17 17 17 18 18 18 18 18 19 21 23 25 26 27 29 31 32 33 34 34 34 35 37 37 38 38 38 38 38 40 40 41 38 34
66 51 44 36 19 19 17 18 20 18 17 17 15 15 17 17 17 17 17 17 17 18 19 21 23 24 25 26 27 27 27 27 27 29 28 28 29 29 30 31 33 34 34 33
67 48 59 42 33 18 19 21 20 20 22 19 18 17 15 17 18 18 18 17 17 19 20 20 21 21 20 20 20 20 21 22 23 23 22 22 22 22 21 21 21 22 22 21
64 65 64 51 37 37 24 24 23 22 22 24 23 21 20 19 18 19 19 19 19 19 20 21 22 22 21 21 20 20 20 20 21 22 22 21 20 20 20 17 14 13 12 14
72 61 58 52 48 56 40 25 25 27 25 23 26 27 24 23 23 21 20 21 20 19 20 21 21 22 22 21 21 22 23 23 23 24 25 24 24 21 21 20 16 14 14 14
65 63 60 61 54 55 50 32 25 24 28 30 28 28 29 29 27 27 26 24 23 23 22 21 22 22 23 22 21 23 23 25 26 28 28 27 23 23 21 19 21 20 21 22
65 61 66 67 56 59 53 58 31 24 25 34 38 35 34 32 32 31 29 29 27 27 28 26 25 24 25 26 25 26 26 26 26 28 29 27 29 26 23 22 23 23 24 26
69 61 62 60 62 60 53 52 38 30 31 32 41 43 42 40 39 36 34 33 30 29 32 32 32 30 29 29 30 29 29 28 29 30 29 28 26 25 25 23 23 24 26 28
65 62 65 64 61 60 57 62 39 45 38 39 31 30 38 48 48 44 41 39 33 30 34 32 39 35 36 32 32 31 31 30 29 30 28 27 23 22 23 25 26 27 30 35
64 60 64 65 64 63 66 67 56 51 50 36 38 35 33 34 41 51 51 46 40 39 32 33 46 41 37 38 35 34 34 34 32 33 31 26 26 26 27 29 31 34 36 39
70 62 64 70 67 69 69 67 57 55 52 48 37 37 36 37 37 45 53 53 49 42 37 41 53 48 43 42 42 41 40 39 39 37 35 34 28 28 29 31 34 38 40 44
76 70 64 67 69 74 71 69 60 54 52 52 40 37 34 35 37 37 45 57 56 52 48 48 53 57 54 51 47 47 46 43 42 42 41 40 37 37 35 36 37 40 42 46
73 62 62 69 70 70 70 66 63 60 56 46 41 42 38 38 36 37 41 46 59 64 63 59 57 59 61 58 56 53 51 49 46 47 47 46 46 43 43 41 40 45 48 52
68 58 59 70 69 68 70 70 63 60 58 46 42 41 42 45 37 40 41 46 50 60 67 67 66 64 64 63 62 61 59 56 54 54 53 52 50 51 48 47 49 50 51 54

GFSNW_250_spd_129.txt.gz
Wind_Speed
62 61 59 60 61 63 64 61 66 60 57 53 49 46 42 39 36 32 26 22 17 13 9 6 3 5 6 9 11 9 11 12 13 13 14 13 11 11 9 14 16 18 17 15
53 53 53 57 60 61 61 59 63 66 65 63 61 59 55 50 46 41 35 32 29 24 21 15 13 12 12 10 11 12 14 13 14 14 10 9 7 5 6 8 7 4 4 3
48 48 51 53 56 59 60 60 66 66 69 71 71 72 67 64 60 55 50 45 40 36 31 27 25 23 21 20 21 20 21 20 17 14 12 12 5 11 11 9 9 11 10 15
50 48 47 49 52 55 59 60 65 68 72 75 77 79 79 74 71 65 60 57 54 50 42 35 32 32 30 30 28 25 23 22 21 17 16 18 18 20 20 18 16 23 21 31
46 45 46 48 51 56 58 62 64 65 70 74 77 77 78 80 78 74 73 70 64 59 56 53 54 44 39 37 32 27 25 23 22 21 23 25 26 28 29 27 22 31 38 40
49 44 45 46 46 51 54 57 59 61 64 67 72 76 77 79 80 83 82 80 76 73 67 64 61 53 49 48 46 47 42 34 32 30 29 28 26 31 34 29 37 46 49 44
45 45 41 42 42 44 46 50 52 54 57 61 64 68 71 75 77 77 77 78 78 73 71 66 61 62 61 60 58 56 53 43 36 35 32 29 30 28 35 35 35 36 46 53
50 40 42 37 38 40 41 43 46 48 50 53 56 59 61 65 67 70 71 74 73 73 72 70 69 68 67 65 61 61 61 51 42 38 36 34 29 27 27 30 30 38 42 48
64 44 36 37 35 35 37 38 40 41 43 46 47 51 52 55 58 60 62 65 65 67 68 69 70 69 68 67 66 68 61 55 57 51 48 44 40 30 27 25 25 31 38 41
62 60 41 34 33 33 32 33 36 37 38 38 39 40 43 45 47 50 52 54 57 57 59 62 64 65 67 64 67 64 62 61 64 58 50 45 43 36 34 28 22 25 19 20
74 66 60 42 31 30 29 30 31 32 32 32 34 35 35 38 40 42 44 45 48 50 52 54 56 55 57 57 57 58 56 55 57 56 53 51 50 46 34 29 27 24 19 15
72 73 65 51 38 30 28 26 26 30 30 30 29 28 30 31 32 34 35 37 40 43 44 45 46 46 48 48 49 48 48 49 50 51 53 53 51 47 46 40 22 14 14 12
68 69 65 53 57 43 32 29 27 23 26 28 27 27 26 26 28 29 29 30 31 33 36 37 37 39 38 39 39 40 39 40 42 43 44 45 45 45 44 39 40 38 32 27
65 66 69 64 59 51 44 31 28 28 24 23 24 25 26 25 23 23 24 25 25 26 28 29 28 30 31 31 31 32 34 35 34 34 34 33 34 34 35 35 36 32 30 29
55 60 64 62 70 60 52 41 34 27 27 25 23 22 22 23 23 21 20 20 22 21 21 22 23 22 21 22 22 23 23 23 24 25 27 28 27 25 23 22 22 24 23 21
52 58 60 55 62 60 55 49 44 32 26 26 27 25 24 22 21 21 20 19 18 19 19 19 18 18 17 15 13 14 15 15 16 16 17 18 18 19 17 16 16 13 13 13
59 55 56 59 58 60 59 55 45 38 32 26 26 29 28 26 25 23 22 21 20 19 19 19 19 18 16 15 14 12 10 10 12 12 14 14 14 13 12 9 8 8 10 9
54 54 59 58 57 59 58 54 48 49 29 36 31 30 32 33 32 28 26 24 24 23 21 20 21 20 21 19 17 16 16 14 11 10 11 12 13 12 14 12 9 10 11 12
56 58 61 63 59 57 59 58 50 47 43 38 34 30 32 36 36 36 33 29 26 27 24 25 26 26 23 24 23 22 21 20 18 16 14 14 12 14 13 15 14 16 16 16
61 66 66 66 64 59 62 60 54 48 48 49 43 27 22 20 26 36 39 38 33 31 31 28 33 33 28 32 28 29 29 27 24 23 22 21 19 17 18 18 18 16 16 17
71 70 65 64 63 62 63 57 55 55 51 48 51 39 30 21 22 22 26 37 42 39 36 35 38 41 33 36 32 31 32 34 31 29 28 27 26 25 23 21 20 20 21 21
72 71 63 63 62 64 61 59 57 59 54 52 47 49 37 27 24 25 26 26 26 38 46 44 43 49 41 38 39 36 34 34 35 36 36 35 33 32 32 31 28 26 24 26
73 73 68 62 62 63 63 60 58 59 57 55 51 49 42 32 27 27 25 30 33 33 34 48 54 55 54 46 41 43 41 39 38 38 38 39 38 37 36 38 38 36 34 33
73 74 67 65 65 62 57 61 57 59 58 55 52 49 47 44 39 34 30 28 33 37 41 42 51 59 62 59 53 49 49 47 44 43 43 44 43 41 40 40 41 42 44 45
72 70 63 58 62 63 63 67 64 62 56 54 52 54 50 47 50 49 37 33 29 33 36 37 46 56 63 66 63 60 55 54 53 51 50 49 49 47 47 46 46 48 47 47
68 63 59 67 66 69 71 68 65 61 58 57 51 51 53 51 53 57 54 29 30 34 33 38 41 41 48 66 69 66 65 63 60 59 59 58 57 56 54 53 54 54 52 53
62 61 61 60 64 67 68 61 58 61 64 62 58 55 56 56 58 63 60 38 36 35 34 35 38 40 40 42 56 70 71 72 73 72 68 66 68 66 65 64 60 58 58 59

GFSNW_250_spd_132.txt.gz
Wind_Speed
64 68 72 76 79 81 83 83 84 77 74 67 60 55 50 46 43 37 32 27 21 18 17 16 15 13 11 12 12 13 13 13 12 11 12 11 9 10 12 11 9 11 12 12
56 58 65 69 74 77 80 82 83 83 81 78 71 65 58 55 51 47 42 37 33 29 27 24 20 17 17 16 15 15 14 13 11 11 13 14 13 8 5 4 2 2 5 6
54 54 56 61 66 71 76 78 81 83 84 85 85 82 77 70 62 58 53 46 41 40 36 32 29 26 25 22 20 18 17 17 18 17 18 21 17 10 10 12 13 11 11 16
51 49 51 54 57 62 67 71 75 79 83 85 85 88 90 86 81 75 66 57 55 55 50 47 44 38 34 31 30 26 23 23 21 19 19 21 22 21 22 23 27 30 28 27
54 48 46 47 51 54 57 61 66 68 74 78 82 86 87 87 86 82 76 73 73 70 66 62 60 54 50 43 37 31 28 25 22 25 28 31 31 26 32 35 35 39 40 35
73 56 46 46 46 48 49 53 56 59 62 66 71 75 78 82 84 82 81 79 79 74 70 70 67 62 54 50 48 40 34 32 31 32 32 34 34 26 39 40 45 42 39 33
81 70 58 45 43 44 45 46 49 51 54 57 60 63 67 70 73 76 77 77 76 77 77 75 76 66 61 58 54 51 41 35 34 34 34 35 31 35 38 42 43 43 38 30
74 71 70 67 46 42 42 41 40 44 46 49 51 54 57 59 61 65 66 68 70 73 72 73 75 73 67 64 60 56 52 49 43 36 33 28 29 33 32 42 37 35 31 31
68 70 68 71 67 50 40 38 38 38 39 41 45 46 48 50 53 56 56 58 59 61 63 66 67 65 65 64 62 60 61 55 47 43 42 32 28 27 27 28 36 31 24 20
67 65 62 73 69 66 52 40 37 36 35 35 37 40 41 42 44 46 49 50 52 54 54 56 57 56 56 57 58 60 62 57 55 50 45 42 38 26 24 20 25 32 27 18
64 59 63 69 69 67 58 52 43 35 34 33 32 33 35 36 37 38 39 41 43 44 47 47 48 48 49 48 49 51 51 50 50 50 52 49 39 35 23 22 27 13 6 14
58 59 63 66 64 67 67 57 48 44 35 32 31 30 28 29 32 32 33 34 36 35 37 37 38 40 41 42 43 43 43 43 45 45 48 47 46 43 38 31 26 22 18 11
56 55 56 63 62 62 63 64 57 46 42 36 30 29 29 27 25 26 29 29 29 30 31 32 31 31 31 32 33 34 34 35 36 36 35 36 35 33 33 32 31 30 26 24
52 53 57 60 57 60 62 62 64 57 42 42 37 32 28 27 27 25 23 23 23 24 25 27 27 27 26 24 24 24 25 26 28 28 27 26 26 25 25 25 24 23 22 21
52 50 52 53 59 60 61 60 60 61 41 44 41 36 31 30 28 27 26 23 20 20 19 19 19 22 23 23 22 20 19 19 19 20 20 19 18 17 15 14 15 15 15 14
50 47 49 51 51 54 62 62 60 60 60 47 42 34 33 31 30 29 28 27 25 22 21 19 19 17 17 19 20 21 20 18 16 15 14 13 12 11 10 9 8 4 5 6
50 46 46 40 43 50 59 61 63 60 56 53 53 41 34 28 28 30 31 29 27 27 26 25 24 21 19 18 16 16 17 18 18 17 15 13 10 10 10 10 10 10 10 8
50 48 45 43 46 57 57 59 60 61 59 57 53 47 37 30 26 25 25 26 30 30 28 28 30 27 24 25 22 20 18 16 16 17 17 16 14 13 12 12 14 17 17 17
54 53 45 49 52 59 63 63 59 58 59 58 55 48 44 41 28 25 23 22 24 27 31 32 36 33 26 31 29 26 24 24 21 18 18 19 20 19 17 16 17 19 20 22
54 51 54 61 54 58 54 59 55 62 62 57 54 56 48 45 38 31 27 29 27 24 28 31 37 38 34 32 36 33 32 30 28 26 22 22 21 21 22 22 21 20 19 23
63 58 58 60 64 59 57 58 59 62 64 59 56 54 50 48 42 33 26 27 28 33 36 35 36 38 34 38 38 41 38 36 34 33 29 27 25 25 26 27 26 26 26 26
75 70 70 69 66 65 67 66 58 59 61 59 56 52 53 50 49 41 33 27 29 30 33 36 41 47 47 42 42 42 44 44 42 40 37 35 34 32 32 31 31 30 30 31
79 81 76 75 71 67 65 61 58 60 59 58 59 52 50 49 49 48 46 42 31 27 31 36 41 42 43 47 45 48 50 51 51 48 48 43 41 40 39 38 38 38 38 39
83 83 76 76 70 67 65 64 59 58 57 58 57 53 48 49 52 50 52 48 46 41 41 32 36 39 41 42 45 47 46 47 50 56 56 52 51 50 49 48 47 46 47 46
85 85 81 73 72 71 62 64 51 56 59 52 47 48 52 54 50 50 53 54 52 44 44 49 46 45 38 41 46 48 46 46 44 45 52 57 60 58 57 58 58 57 58 57
78 81 77 76 75 71 63 61 58 64 50 54 51 60 64 57 52 55 59 59 56 54 54 56 55 50 35 40 36 42 46 45 41 38 43 51 56 60 63 65 66 67 67 68
76 73 81 73 74 56 56 69 68 50 53 56 62 58 63 56 55 63 65 65 61 60 57 62 60 57 53 49 37 48 43 42 40 41 44 46 48 56 64 68 70 71 71 71

GFSNW_250_spd_135.txt.gz
Wind_Speed
67 63 67 71 74 75 83 89 92 89 84 73 66 57 47 42 36 29 23 18 14 14 15 15 15 14 16 14 13 12 11 11 11 10 10 10 10 10 8 8 10 9 9 12
79 60 58 63 67 71 74 81 86 88 87 88 82 71 60 49 43 40 37 32 27 22 18 16 16 16 14 13 12 12 11 12 12 12 12 13 16 19 16 15 15 12 9 5
84 71 57 56 60 64 69 72 77 82 84 84 87 83 70 58 51 47 46 47 45 39 34 29 28 26 25 23 23 22 22 21 20 23 24 26 27 26 25 23 21 20 16 13
74 81 71 55 53 57 61 65 69 72 76 77 80 83 84 73 67 61 58 56 56 56 51 44 38 36 35 33 31 30 30 33 33 34 37 33 34 36 34 32 30 27 24 25
72 75 78 70 54 51 53 57 59 62 65 71 73 74 77 79 79 74 71 69 65 63 60 56 53 44 37 35 35 31 30 32 33 37 40 44 40 39 41 38 33 38 35 43
72 61 73 74 68 53 49 49 52 55 56 59 63 66 70 71 75 79 80 81 78 73 67 60 53 48 43 40 37 33 29 29 35 41 46 47 43 40 40 36 33 30 31 28
77 62 68 73 71 68 54 48 46 47 50 52 53 57 60 64 66 67 70 72 74 71 69 64 56 51 49 46 42 34 30 28 31 34 32 37 27 31 31 30 25 22 27 29
71 71 60 66 67 66 66 59 48 44 43 45 47 48 52 55 58 60 60 61 63 62 63 64 63 55 48 47 46 39 32 24 25 27 31 27 28 31 28 28 23 20 19 20
64 60 62 59 61 65 67 65 58 50 42 40 40 41 43 45 48 50 52 53 53 53 52 53 55 57 57 54 43 41 37 30 24 21 23 26 23 24 24 22 12 11 12 13
56 58 63 65 57 63 63 69 65 56 51 40 37 37 37 38 38 40 41 44 45 45 46 47 48 50 52 54 53 45 37 35 31 23 25 18 14 13 18 9 7 11 10 6
50 56 57 61 58 58 61 63 62 65 59 54 43 35 36 34 32 33 33 34 36 38 40 40 41 41 42 43 43 45 45 41 36 33 26 16 22 20 14 6 1 11 13 12
43 52 53 52 57 55 57 61 61 61 67 59 50 43 35 32 34 32 30 30 30 31 31 32 34 36 35 34 34 34 34 35 35 36 33 31 28 22 20 18 13 8 7 9
38 41 46 50 50 51 53 56 57 62 65 62 62 51 42 37 31 29 30 30 30 28 28 28 28 28 28 29 30 29 28 28 28 27 26 24 25 24 24 24 23 22 22 22
35 37 43 43 45 49 53 52 54 56 60 63 60 57 48 39 34 31 27 26 26 26 27 26 25 23 23 23 23 24 24 24 22 19 18 17 16 16 16 16 16 17 16 16
36 33 35 36 37 40 46 49 54 55 57 54 57 60 57 46 38 34 31 25 22 23 23 23 23 23 22 20 17 16 16 16 17 19 20 17 15 15 15 14 12 11 10 9
38 34 33 34 36 34 38 41 47 53 56 55 52 58 64 57 46 37 31 31 30 23 19 21 22 21 22 21 21 19 16 12 11 13 13 12 14 17 15 15 16 16 14 12
50 42 38 35 38 38 34 36 44 46 51 53 56 57 59 58 53 46 36 32 30 31 29 24 24 19 21 25 22 21 20 20 19 14 8 8 10 12 12 12 13 15 18 21
54 50 43 40 40 39 35 35 46 40 48 50 50 55 59 55 54 51 44 36 32 30 32 31 31 30 22 26 27 26 25 24 23 21 20 19 15 11 11 12 14 16 16 18
66 58 55 48 44 41 37 38 46 45 46 50 52 53 52 52 50 50 48 40 36 33 30 32 34 31 33 33 34 32 30 30 31 28 27 26 22 21 18 17 16 15 16 17
73 67 59 55 50 47 48 45 48 51 53 50 50 45 45 48 50 49 45 44 39 35 33 31 35 35 30 32 34 33 34 33 33 35 33 34 31 29 28 26 25 24 22 22
80 75 68 60 56 51 49 49 52 54 54 54 52 48 45 46 49 49 46 44 42 42 31 28 32 37 38 33 32 37 36 35 34 33 36 39 39 37 35 34 34 32 30 31
84 81 74 66 64 58 52 54 58 60 59 61 54 50 46 47 47 48 48 40 42 44 45 38 36 36 33 34 35 32 32 33 36 38 38 36 37 42 44 42 41 38 38 38
89 83 79 72 60 57 50 59 65 64 60 59 57 52 47 47 47 47 46 44 40 43 49 46 46 48 45 38 34 39 35 33 34 36 37 38 41 39 41 46 47 46 46 46
94 90 81 73 65 58 64 67 69 68 59 63 60 56 46 44 41 47 50 44 47 48 48 55 47 49 53 52 48 39 41 47 41 38 37 41 42 42 42 43 44 47 50 52
97 94 84 74 73 71 65 74 79 68 64 77 65 58 47 48 47 54 53 53 57 57 57 55 51 54 57 55 57 60 60 54 55 40 48 48 42 43 45 46 44 45 47 50
99 90 83 79 70 80 84 81 80 83 80 60 66 62 54 59 50 57 55 58 58 56 57 58 51 55 59 60 63 65 63 63 62 56 52 51 49 49 49 49 50 51 49 46
95 87 84 82 82 86 88 86 81 85 77 69 75 57 44 46 55 57 63 63 61 61 62 58 60 54 58 64 64 65 67 69 68 71 67 66 64 64 60 55 58 57 54 56

GFSNW_250_spd_138.txt.gz
Wind_Speed
93 87 92 80 71 72 75 79 85 88 93 82 72 59 47 41 35 28 24 24 24 24 23 22 20 19 18 18 16 16 15 15 15 15 13 12 12 13 12 13 12 12 10 12
88 91 85 80 74 68 69 71 75 78 80 87 81 69 58 48 42 40 33 25 18 15 15 14 15 14 13 12 12 12 13 12 13 13 15 17 18 20 19 17 17 17 17 17
84 86 81 76 76 70 65 65 68 70 74 76 79 78 71 65 55 46 42 40 36 29 21 17 14 13 15 16 18 21 21 20 23 25 25 30 34 32 28 28 28 29 30 27
80 79 81 78 71 71 68 62 62 64 68 71 73 77 79 79 77 72 62 51 45 42 38 35 30 26 25 25 26 25 26 31 34 38 37 35 33 33 35 34 36 37 27 32
74 78 77 80 71 69 68 69 59 58 59 64 68 72 74 77 78 80 78 70 59 49 46 41 37 35 32 30 29 29 34 36 37 37 35 34 36 36 41 38 33 24 36 27
65 72 76 78 67 70 66 66 71 59 52 54 57 61 65 68 71 72 73 73 70 60 51 42 40 40 39 34 34 34 34 36 36 34 35 33 37 43 39 30 27 35 31 27
52 62 66 73 77 65 64 69 68 71 60 51 51 52 55 57 60 62 63 65 65 66 66 56 46 41 41 34 33 31 35 32 32 31 34 35 35 33 28 29 24 22 22 22
45 52 56 63 66 70 58 61 69 67 63 62 52 47 46 48 51 53 54 56 55 55 59 61 61 48 40 39 28 25 25 27 24 20 26 23 24 18 20 16 22 16 15 14
42 41 47 53 57 63 66 58 60 67 66 61 60 54 42 41 42 45 46 47 48 48 49 51 54 56 55 43 35 32 21 17 13 10 10 9 11 9 12 13 13 13 8 5
37 36 36 42 47 52 60 61 55 57 61 65 64 56 54 45 36 35 37 39 40 40 42 44 44 44 46 47 46 36 30 27 20 14 12 12 12 11 6 12 11 14 11 9
32 30 30 33 36 43 53 52 53 57 56 58 61 65 54 50 50 38 30 30 32 34 34 34 35 35 36 36 37 37 37 34 29 22 19 17 15 10 9 7 9 11 14 14
30 32 25 25 31 32 38 43 49 51 57 55 54 58 63 58 47 43 42 33 24 24 25 27 27 27 27 26 26 26 27 28 28 28 26 24 22 19 17 16 16 17 16 14
30 34 31 21 26 27 31 33 37 45 48 53 54 55 54 61 58 47 41 38 40 25 21 20 20 20 20 20 20 19 19 18 18 18 17 17 18 18 18 17 16 15 15 14
41 38 34 31 24 22 25 30 27 34 43 45 50 52 53 56 57 53 46 40 36 34 34 27 20 17 16 15 14 14 13 12 12 10 9 10 10 10 10 11 12 12 11 10
41 42 40 36 36 23 23 28 29 28 32 37 41 46 48 52 52 52 49 42 35 34 31 29 30 28 22 15 12 10 10 10 10 8 7 6 6 4 3 3 5 6 8 10
49 48 45 50 46 36 30 26 27 28 29 30 33 38 45 47 47 46 49 47 42 33 30 32 31 27 28 26 22 18 13 10 10 10 11 10 9 10 9 7 6 6 6 7
62 59 58 56 50 42 37 35 30 28 28 32 33 34 41 42 43 43 45 45 44 41 36 32 29 31 31 28 28 24 21 19 17 13 11 13 14 14 11 11 13 13 12 13
69 72 62 57 57 50 50 46 40 32 32 31 33 34 39 40 41 43 42 43 42 42 35 35 35 27 29 29 27 28 29 26 23 20 17 18 18 16 18 19 18 17 16 17
88 82 77 65 65 70 62 52 48 39 34 30 32 31 34 41 41 43 45 41 42 42 40 32 34 32 29 27 28 26 28 29 27 25 23 21 20 22 23 23 24 25 25 26
88 93 84 72 71 78 71 64 53 44 44 41 39 36 34 37 42 41 43 45 41 42 43 42 38 37 40 37 27 24 26 28 28 28 26 27 24 24 27 27 28 29 29 31
97 96 88 83 78 77 79 72 68 53 51 50 46 37 39 39 41 40 41 42 44 45 44 45 48 43 44 44 46 37 23 31 28 26 25 26 27 29 29 31 31 34 36 36
107 104 100 91 90 89 85 77 78 68 63 56 56 36 46 48 46 40 38 33 38 45 50 48 49 48 48 50 51 52 50 46 37 24 22 26 25 27 30 32 32 33 33 36
109 104 101 97 92 86 85 84 83 74 70 62 56 44 41 49 43 37 47 48 48 38 48 55 49 52 49 53 54 51 53 49 47 46 38 38 27 25 42 38 38 39 36 37
100 96 95 98 92 86 81 88 81 75 73 69 62 54 48 47 46 40 57 57 58 46 47 45 47 48 49 56 54 52 52 55 53 51 51 46 47 49 46 45 42 43 44 44
98 97 94 87 81 80 83 76 75 74 76 73 66 61 52 49 57 55 56 59 58 51 51 55 52 50 50 49 53 58 56 58 58 58 60 54 58 59 63 61 59 57 50 49
101 93 85 78 80 79 82 72 76 77 77 72 69 66 51 49 67 62 55 59 66 59 54 47 52 54 55 54 59 56 58 63 58 57 60 62 62 62 61 66 68 68 65 64
103 87 82 77 80 82 78 80 77 73 74 74 74 65 62 61 59 52 63 73 69 65 68 58 52 57 57 59 58 59 65 65 55 56 58 60 62 63 69 73 78 73 74 74